﻿<?xml version="1.0" encoding="utf-8"?><gpx creator="Garmin Desktop App" version="1.1" xsi:schemaLocation="http://www.topografix.com/GPX/1/1 http://www.topografix.com/GPX/1/1/gpx.xsd http://www.garmin.com/xmlschemas/WaypointExtension/v1 http://www8.garmin.com/xmlschemas/WaypointExtensionv1.xsd http://www.garmin.com/xmlschemas/TrackPointExtension/v1 http://www.garmin.com/xmlschemas/TrackPointExtensionv1.xsd http://www.garmin.com/xmlschemas/GpxExtensions/v3 http://www8.garmin.com/xmlschemas/GpxExtensionsv3.xsd http://www.garmin.com/xmlschemas/ActivityExtension/v1 http://www8.garmin.com/xmlschemas/ActivityExtensionv1.xsd http://www.garmin.com/xmlschemas/AdventuresExtensions/v1 http://www8.garmin.com/xmlschemas/AdventuresExtensionv1.xsd http://www.garmin.com/xmlschemas/PressureExtension/v1 http://www.garmin.com/xmlschemas/PressureExtensionv1.xsd http://www.garmin.com/xmlschemas/TripExtensions/v1 http://www.garmin.com/xmlschemas/TripExtensionsv1.xsd http://www.garmin.com/xmlschemas/TripMetaDataExtensions/v1 http://www.garmin.com/xmlschemas/TripMetaDataExtensionsv1.xsd http://www.garmin.com/xmlschemas/ViaPointTransportationModeExtensions/v1 http://www.garmin.com/xmlschemas/ViaPointTransportationModeExtensionsv1.xsd http://www.garmin.com/xmlschemas/CreationTimeExtension/v1 http://www.garmin.com/xmlschemas/CreationTimeExtensionsv1.xsd http://www.garmin.com/xmlschemas/AccelerationExtension/v1 http://www.garmin.com/xmlschemas/AccelerationExtensionv1.xsd http://www.garmin.com/xmlschemas/PowerExtension/v1 http://www.garmin.com/xmlschemas/PowerExtensionv1.xsd http://www.garmin.com/xmlschemas/VideoExtension/v1 http://www.garmin.com/xmlschemas/VideoExtensionv1.xsd" xmlns="http://www.topografix.com/GPX/1/1" xmlns:xsi="http://www.w3.org/2001/XMLSchema-instance" xmlns:wptx1="http://www.garmin.com/xmlschemas/WaypointExtension/v1" xmlns:gpxtrx="http://www.garmin.com/xmlschemas/GpxExtensions/v3" xmlns:gpxtpx="http://www.garmin.com/xmlschemas/TrackPointExtension/v1" xmlns:gpxx="http://www.garmin.com/xmlschemas/GpxExtensions/v3" xmlns:trp="http://www.garmin.com/xmlschemas/TripExtensions/v1" xmlns:adv="http://www.garmin.com/xmlschemas/AdventuresExtensions/v1" xmlns:prs="http://www.garmin.com/xmlschemas/PressureExtension/v1" xmlns:tmd="http://www.garmin.com/xmlschemas/TripMetaDataExtensions/v1" xmlns:vptm="http://www.garmin.com/xmlschemas/ViaPointTransportationModeExtensions/v1" xmlns:ctx="http://www.garmin.com/xmlschemas/CreationTimeExtension/v1" xmlns:gpxacc="http://www.garmin.com/xmlschemas/AccelerationExtension/v1" xmlns:gpxpx="http://www.garmin.com/xmlschemas/PowerExtension/v1" xmlns:vidx1="http://www.garmin.com/xmlschemas/VideoExtension/v1">

  <metadata>
    <link href="http://www.garmin.com">
      <text>Garmin International</text>
    </link>
    <time>2022-01-28T09:06:59Z</time>
    <bounds maxlat="46.432807389646769" maxlon="8.433508621528745" minlat="46.419643443077803" minlon="8.416663343086839" />
  </metadata>

  <trk>
    <name>sicuri sulla neve riale2022-01-23</name>
    <extensions>
      <gpxx:TrackExtension>
        <gpxx:DisplayColor>Yellow</gpxx:DisplayColor>
      </gpxx:TrackExtension>
      <gpxtrkx:TrackStatsExtension xmlns:gpxtrkx="http://www.garmin.com/xmlschemas/TrackStatsExtension/v1">
        <gpxtrkx:Distance>7426</gpxtrkx:Distance>
        <gpxtrkx:TotalElapsedTime>23814</gpxtrkx:TotalElapsedTime>
        <gpxtrkx:MovingTime>8438</gpxtrkx:MovingTime>
        <gpxtrkx:StoppedTime>15366</gpxtrkx:StoppedTime>
        <gpxtrkx:MovingSpeed>0.88</gpxtrkx:MovingSpeed>
        <gpxtrkx:MaxSpeed>3.069</gpxtrkx:MaxSpeed>
        <gpxtrkx:MaxElevation>2239.537</gpxtrkx:MaxElevation>
        <gpxtrkx:MinElevation>1723.974</gpxtrkx:MinElevation>
        <gpxtrkx:Ascent>538</gpxtrkx:Ascent>
        <gpxtrkx:Descent>532.277</gpxtrkx:Descent>
        <gpxtrkx:AvgAscentRate>0.033</gpxtrkx:AvgAscentRate>
        <gpxtrkx:MaxAscentRate>0.237</gpxtrkx:MaxAscentRate>
        <gpxtrkx:AvgDescentRate>0.056</gpxtrkx:AvgDescentRate>
        <gpxtrkx:MaxDescentRate>-0.475</gpxtrkx:MaxDescentRate>
      </gpxtrkx:TrackStatsExtension>
    </extensions>
    <trkseg>
      <trkpt lat="46.420180471614003" lon="8.417012952268124">
        <ele>1727.55</ele>
        <time>2022-01-23T08:01:42Z</time>
      </trkpt>
      <trkpt lat="46.420184327289462" lon="8.417022759094834">
        <ele>1727.55</ele>
        <time>2022-01-23T08:01:43Z</time>
      </trkpt>
      <trkpt lat="46.420220201835036" lon="8.417048156261444">
        <ele>1726.0899999999999</ele>
        <time>2022-01-23T08:01:48Z</time>
      </trkpt>
      <trkpt lat="46.420267140492797" lon="8.417055029422045">
        <ele>1726.6700000000001</ele>
        <time>2022-01-23T08:01:53Z</time>
      </trkpt>
      <trkpt lat="46.420306200161576" lon="8.417049665004015">
        <ele>1726.53</ele>
        <time>2022-01-23T08:01:57Z</time>
      </trkpt>
      <trkpt lat="46.420418433845043" lon="8.417026363313198">
        <ele>1726.1099999999999</ele>
        <time>2022-01-23T08:02:10Z</time>
      </trkpt>
      <trkpt lat="46.420450285077095" lon="8.417026698589325">
        <ele>1726.49</ele>
        <time>2022-01-23T08:02:14Z</time>
      </trkpt>
      <trkpt lat="46.420491021126509" lon="8.417030554264784">
        <ele>1726.8099999999999</ele>
        <time>2022-01-23T08:02:19Z</time>
      </trkpt>
      <trkpt lat="46.420522620901465" lon="8.41709635220468">
        <ele>1726.8900000000001</ele>
        <time>2022-01-23T08:02:27Z</time>
      </trkpt>
      <trkpt lat="46.420573415234685" lon="8.417132562026382">
        <ele>1727.28</ele>
        <time>2022-01-23T08:02:33Z</time>
      </trkpt>
      <trkpt lat="46.420694533735514" lon="8.417215794324875">
        <ele>1727.73</ele>
        <time>2022-01-23T08:02:45Z</time>
      </trkpt>
      <trkpt lat="46.420710878446698" lon="8.417228953912854">
        <ele>1727.77</ele>
        <time>2022-01-23T08:02:47Z</time>
      </trkpt>
      <trkpt lat="46.420764941722155" lon="8.417258961126208">
        <ele>1727.97</ele>
        <time>2022-01-23T08:02:53Z</time>
      </trkpt>
      <trkpt lat="46.420829985290766" lon="8.417304558679462">
        <ele>1727.9100000000001</ele>
        <time>2022-01-23T08:03:00Z</time>
      </trkpt>
      <trkpt lat="46.420924533158541" lon="8.417376726865768">
        <ele>1728.4000000000001</ele>
        <time>2022-01-23T08:03:10Z</time>
      </trkpt>
      <trkpt lat="46.42096308991313" lon="8.417413020506501">
        <ele>1728.27</ele>
        <time>2022-01-23T08:03:14Z</time>
      </trkpt>
      <trkpt lat="46.421004077419639" lon="8.417458701878786">
        <ele>1727.5599999999999</ele>
        <time>2022-01-23T08:03:19Z</time>
      </trkpt>
      <trkpt lat="46.421043556183577" lon="8.417457528412342">
        <ele>1727.5599999999999</ele>
        <time>2022-01-23T08:03:21Z</time>
      </trkpt>
      <trkpt lat="46.421099798753858" lon="8.417507819831371">
        <ele>1729.26</ele>
        <time>2022-01-23T08:03:29Z</time>
      </trkpt>
      <trkpt lat="46.421121591702104" lon="8.417542017996311">
        <ele>1728.54</ele>
        <time>2022-01-23T08:03:33Z</time>
      </trkpt>
      <trkpt lat="46.421144055202603" lon="8.417584178969264">
        <ele>1728.1600000000001</ele>
        <time>2022-01-23T08:03:38Z</time>
      </trkpt>
      <trkpt lat="46.42114489339292" lon="8.417601110413671">
        <ele>1727.79</ele>
        <time>2022-01-23T08:03:39Z</time>
      </trkpt>
      <trkpt lat="46.421149419620633" lon="8.417615443468094">
        <ele>1727.8299999999999</ele>
        <time>2022-01-23T08:03:40Z</time>
      </trkpt>
      <trkpt lat="46.421169620007277" lon="8.417689623311162">
        <ele>1728.3399999999999</ele>
        <time>2022-01-23T08:03:45Z</time>
      </trkpt>
      <trkpt lat="46.421172050759196" lon="8.417706554755569">
        <ele>1728.29</ele>
        <time>2022-01-23T08:03:46Z</time>
      </trkpt>
      <trkpt lat="46.421174230054021" lon="8.417722564190626">
        <ele>1727.8399999999999</ele>
        <time>2022-01-23T08:03:47Z</time>
      </trkpt>
      <trkpt lat="46.421174565330148" lon="8.417739411816001">
        <ele>1727.71</ele>
        <time>2022-01-23T08:03:48Z</time>
      </trkpt>
      <trkpt lat="46.421200800687075" lon="8.417891375720501">
        <ele>1728.3699999999999</ele>
        <time>2022-01-23T08:04:01Z</time>
      </trkpt>
      <trkpt lat="46.421209517866373" lon="8.417906379327178">
        <ele>1728.5999999999999</ele>
        <time>2022-01-23T08:04:11Z</time>
      </trkpt>
      <trkpt lat="46.421207757666707" lon="8.417907636612654">
        <ele>1728.8</ele>
        <time>2022-01-23T08:04:21Z</time>
      </trkpt>
      <trkpt lat="46.421208512037992" lon="8.417917946353555">
        <ele>1727.8399999999999</ele>
        <time>2022-01-23T08:04:32Z</time>
      </trkpt>
      <trkpt lat="46.421203818172216" lon="8.417916186153889">
        <ele>1728.79</ele>
        <time>2022-01-23T08:04:40Z</time>
      </trkpt>
      <trkpt lat="46.421203566715121" lon="8.41791819781065">
        <ele>1728.53</ele>
        <time>2022-01-23T08:05:00Z</time>
      </trkpt>
      <trkpt lat="46.421194178983569" lon="8.417910737916827">
        <ele>1728.8299999999999</ele>
        <time>2022-01-23T08:05:13Z</time>
      </trkpt>
      <trkpt lat="46.421195268630981" lon="8.417912749573588">
        <ele>1729.1800000000001</ele>
        <time>2022-01-23T08:05:30Z</time>
      </trkpt>
      <trkpt lat="46.421196442097425" lon="8.417916102334857">
        <ele>1728.6199999999999</ele>
        <time>2022-01-23T08:05:44Z</time>
      </trkpt>
      <trkpt lat="46.421194933354855" lon="8.417912079021335">
        <ele>1728.5599999999999</ele>
        <time>2022-01-23T08:05:58Z</time>
      </trkpt>
      <trkpt lat="46.421199627220631" lon="8.41790889389813">
        <ele>1728.53</ele>
        <time>2022-01-23T08:06:11Z</time>
      </trkpt>
      <trkpt lat="46.421199627220631" lon="8.417913587763906">
        <ele>1728.3399999999999</ele>
        <time>2022-01-23T08:06:18Z</time>
      </trkpt>
      <trkpt lat="46.42120155505836" lon="8.417908390983939">
        <ele>1728.3</ele>
        <time>2022-01-23T08:06:32Z</time>
      </trkpt>
      <trkpt lat="46.421200633049011" lon="8.417906295508146">
        <ele>1728.1400000000001</ele>
        <time>2022-01-23T08:06:45Z</time>
      </trkpt>
      <trkpt lat="46.421204824000597" lon="8.417905122041702">
        <ele>1728.4000000000001</ele>
        <time>2022-01-23T08:06:54Z</time>
      </trkpt>
      <trkpt lat="46.42120935022831" lon="8.417911324650049">
        <ele>1727.95</ele>
        <time>2022-01-23T08:07:06Z</time>
      </trkpt>
      <trkpt lat="46.421209601685405" lon="8.41790453530848">
        <ele>1728.52</ele>
        <time>2022-01-23T08:07:16Z</time>
      </trkpt>
      <trkpt lat="46.421208344399929" lon="8.41790403239429">
        <ele>1727.76</ele>
        <time>2022-01-23T08:07:18Z</time>
      </trkpt>
      <trkpt lat="46.421210272237659" lon="8.417893974110484">
        <ele>1727.8</ele>
        <time>2022-01-23T08:07:45Z</time>
      </trkpt>
      <trkpt lat="46.421220330521464" lon="8.417923059314489">
        <ele>1726.55</ele>
        <time>2022-01-23T08:08:06Z</time>
      </trkpt>
      <trkpt lat="46.421220749616623" lon="8.417911073192954">
        <ele>1726.4000000000001</ele>
        <time>2022-01-23T08:08:16Z</time>
      </trkpt>
      <trkpt lat="46.421207170933485" lon="8.417899925261736">
        <ele>1726.1700000000001</ele>
        <time>2022-01-23T08:08:52Z</time>
      </trkpt>
      <trkpt lat="46.421199040487409" lon="8.417913755401969">
        <ele>1726.01</ele>
        <time>2022-01-23T08:09:26Z</time>
      </trkpt>
      <trkpt lat="46.421208679676056" lon="8.417923981323838">
        <ele>1726.3499999999999</ele>
        <time>2022-01-23T08:10:10Z</time>
      </trkpt>
      <trkpt lat="46.421213876456022" lon="8.417928926646709">
        <ele>1726.25</ele>
        <time>2022-01-23T08:10:31Z</time>
      </trkpt>
      <trkpt lat="46.42123525030911" lon="8.417922053486109">
        <ele>1726.4000000000001</ele>
        <time>2022-01-23T08:11:15Z</time>
      </trkpt>
      <trkpt lat="46.421241872012615" lon="8.417924148961902">
        <ele>1726.7</ele>
        <time>2022-01-23T08:11:57Z</time>
      </trkpt>
      <trkpt lat="46.421243129298091" lon="8.417930100113154">
        <ele>1726.97</ele>
        <time>2022-01-23T08:12:39Z</time>
      </trkpt>
      <trkpt lat="46.421246901154518" lon="8.41793529689312">
        <ele>1727.0899999999999</ele>
        <time>2022-01-23T08:13:29Z</time>
      </trkpt>
      <trkpt lat="46.42125042155385" lon="8.417930603027344">
        <ele>1727.2</ele>
        <time>2022-01-23T08:14:18Z</time>
      </trkpt>
      <trkpt lat="46.421246817335486" lon="8.417934542521834">
        <ele>1726.99</ele>
        <time>2022-01-23T08:15:07Z</time>
      </trkpt>
      <trkpt lat="46.421247404068708" lon="8.417936973273754">
        <ele>1727.1099999999999</ele>
        <time>2022-01-23T08:16:00Z</time>
      </trkpt>
      <trkpt lat="46.42124648205936" lon="8.417934877797961">
        <ele>1726.9000000000001</ele>
        <time>2022-01-23T08:16:50Z</time>
      </trkpt>
      <trkpt lat="46.421249751001596" lon="8.41790889389813">
        <ele>1728.04</ele>
        <time>2022-01-23T08:17:17Z</time>
      </trkpt>
      <trkpt lat="46.421241369098425" lon="8.41794753447175">
        <ele>1728.53</ele>
        <time>2022-01-23T08:17:30Z</time>
      </trkpt>
      <trkpt lat="46.421237848699093" lon="8.418001011013985">
        <ele>1728.0799999999999</ele>
        <time>2022-01-23T08:17:40Z</time>
      </trkpt>
      <trkpt lat="46.421246230602264" lon="8.418104611337185">
        <ele>1727.77</ele>
        <time>2022-01-23T08:17:53Z</time>
      </trkpt>
      <trkpt lat="46.421258551999927" lon="8.418130511417985">
        <ele>1728.28</ele>
        <time>2022-01-23T08:17:55Z</time>
      </trkpt>
      <trkpt lat="46.421342454850674" lon="8.418276524171233">
        <ele>1728.28</ele>
        <time>2022-01-23T08:18:07Z</time>
      </trkpt>
      <trkpt lat="46.421402553096414" lon="8.418464530259371">
        <ele>1728.6800000000001</ele>
        <time>2022-01-23T08:18:21Z</time>
      </trkpt>
      <trkpt lat="46.421438343822956" lon="8.418606771156192">
        <ele>1730.4200000000001</ele>
        <time>2022-01-23T08:18:34Z</time>
      </trkpt>
      <trkpt lat="46.421496933326125" lon="8.418698636814952">
        <ele>1732.79</ele>
        <time>2022-01-23T08:18:46Z</time>
      </trkpt>
      <trkpt lat="46.421577902510762" lon="8.418804500252008">
        <ele>1734.98</ele>
        <time>2022-01-23T08:19:01Z</time>
      </trkpt>
      <trkpt lat="46.421664487570524" lon="8.41895411722362">
        <ele>1737.6700000000001</ele>
        <time>2022-01-23T08:19:18Z</time>
      </trkpt>
      <trkpt lat="46.421763645485044" lon="8.419074984267354">
        <ele>1739.99</ele>
        <time>2022-01-23T08:19:35Z</time>
      </trkpt>
      <trkpt lat="46.421859953552485" lon="8.41917933896184">
        <ele>1740.0699999999999</ele>
        <time>2022-01-23T08:19:50Z</time>
      </trkpt>
      <trkpt lat="46.42190320417285" lon="8.41930640861392">
        <ele>1741.0899999999999</ele>
        <time>2022-01-23T08:20:04Z</time>
      </trkpt>
      <trkpt lat="46.421933630481362" lon="8.419381342828274">
        <ele>1741.9100000000001</ele>
        <time>2022-01-23T08:20:12Z</time>
      </trkpt>
      <trkpt lat="46.422024574130774" lon="8.419491313397884">
        <ele>1744.0799999999999</ele>
        <time>2022-01-23T08:20:27Z</time>
      </trkpt>
      <trkpt lat="46.422091629356146" lon="8.419556692242622">
        <ele>1746.0999999999999</ele>
        <time>2022-01-23T08:20:41Z</time>
      </trkpt>
      <trkpt lat="46.422168323770165" lon="8.419586615636945">
        <ele>1747.1600000000001</ele>
        <time>2022-01-23T08:20:54Z</time>
      </trkpt>
      <trkpt lat="46.422259770333767" lon="8.419651826843619">
        <ele>1749.5799999999999</ele>
        <time>2022-01-23T08:21:12Z</time>
      </trkpt>
      <trkpt lat="46.422342667356133" lon="8.419708572328091">
        <ele>1752.0599999999999</ele>
        <time>2022-01-23T08:21:26Z</time>
      </trkpt>
      <trkpt lat="46.422404944896698" lon="8.419728018343449">
        <ele>1752.99</ele>
        <time>2022-01-23T08:21:35Z</time>
      </trkpt>
      <trkpt lat="46.422523716464639" lon="8.419707650318742">
        <ele>1754.6199999999999</ele>
        <time>2022-01-23T08:21:50Z</time>
      </trkpt>
      <trkpt lat="46.422618264332414" lon="8.419726844877005">
        <ele>1756.8</ele>
        <time>2022-01-23T08:22:04Z</time>
      </trkpt>
      <trkpt lat="46.42267526127398" lon="8.419797755777836">
        <ele>1759.8699999999999</ele>
        <time>2022-01-23T08:22:19Z</time>
      </trkpt>
      <trkpt lat="46.422693533822894" lon="8.419837821274996">
        <ele>1761.4400000000001</ele>
        <time>2022-01-23T08:22:29Z</time>
      </trkpt>
      <trkpt lat="46.422655899077654" lon="8.419928681105375">
        <ele>1763.1500000000001</ele>
        <time>2022-01-23T08:22:43Z</time>
      </trkpt>
      <trkpt lat="46.422709543257952" lon="8.419946366921067">
        <ele>1764.6700000000001</ele>
        <time>2022-01-23T08:22:55Z</time>
      </trkpt>
      <trkpt lat="46.422749189659953" lon="8.419983414933085">
        <ele>1766.9400000000001</ele>
        <time>2022-01-23T08:23:08Z</time>
      </trkpt>
      <trkpt lat="46.422803169116378" lon="8.419971093535423">
        <ele>1768.6099999999999</ele>
        <time>2022-01-23T08:23:20Z</time>
      </trkpt>
      <trkpt lat="46.422839211300015" lon="8.420017864555121">
        <ele>1771.73</ele>
        <time>2022-01-23T08:23:34Z</time>
      </trkpt>
      <trkpt lat="46.422833846881986" lon="8.42005105689168">
        <ele>1773.96</ele>
        <time>2022-01-23T08:23:47Z</time>
      </trkpt>
      <trkpt lat="46.422796715050936" lon="8.420033371075988">
        <ele>1775.7</ele>
        <time>2022-01-23T08:23:58Z</time>
      </trkpt>
      <trkpt lat="46.422808868810534" lon="8.420115597546101">
        <ele>1776.6800000000001</ele>
        <time>2022-01-23T08:24:10Z</time>
      </trkpt>
      <trkpt lat="46.422870559617877" lon="8.420216264203191">
        <ele>1779.6800000000001</ele>
        <time>2022-01-23T08:24:30Z</time>
      </trkpt>
      <trkpt lat="46.422935100272298" lon="8.420296898111701">
        <ele>1782.78</ele>
        <time>2022-01-23T08:24:49Z</time>
      </trkpt>
      <trkpt lat="46.422998132184148" lon="8.420341741293669">
        <ele>1784.6600000000001</ele>
        <time>2022-01-23T08:25:04Z</time>
      </trkpt>
      <trkpt lat="46.423060409724712" lon="8.420353308320046">
        <ele>1786.8199999999999</ele>
        <time>2022-01-23T08:25:17Z</time>
      </trkpt>
      <trkpt lat="46.423117490485311" lon="8.420369736850262">
        <ele>1788.9100000000001</ele>
        <time>2022-01-23T08:25:30Z</time>
      </trkpt>
      <trkpt lat="46.423196280375123" lon="8.42039898969233">
        <ele>1791.3800000000001</ele>
        <time>2022-01-23T08:25:47Z</time>
      </trkpt>
      <trkpt lat="46.423261240124702" lon="8.420448107644916">
        <ele>1793.74</ele>
        <time>2022-01-23T08:26:03Z</time>
      </trkpt>
      <trkpt lat="46.423288900405169" lon="8.420496052131057">
        <ele>1795.6099999999999</ele>
        <time>2022-01-23T08:26:14Z</time>
      </trkpt>
      <trkpt lat="46.423235591500998" lon="8.420532010495663">
        <ele>1796.8099999999999</ele>
        <time>2022-01-23T08:26:26Z</time>
      </trkpt>
      <trkpt lat="46.42328018322587" lon="8.420559335500002">
        <ele>1798.5799999999999</ele>
        <time>2022-01-23T08:26:38Z</time>
      </trkpt>
      <trkpt lat="46.423366935923696" lon="8.420632006600499">
        <ele>1801.22</ele>
        <time>2022-01-23T08:26:57Z</time>
      </trkpt>
      <trkpt lat="46.423339610919356" lon="8.420683974400163">
        <ele>1803.8299999999999</ele>
        <time>2022-01-23T08:27:11Z</time>
      </trkpt>
      <trkpt lat="46.423326954245567" lon="8.420710796490312">
        <ele>1805.6300000000001</ele>
        <time>2022-01-23T08:27:23Z</time>
      </trkpt>
      <trkpt lat="46.423355620354414" lon="8.420745581388474">
        <ele>1806.9000000000001</ele>
        <time>2022-01-23T08:27:35Z</time>
      </trkpt>
      <trkpt lat="46.423284457996488" lon="8.420777432620525">
        <ele>1808.4400000000001</ele>
        <time>2022-01-23T08:27:48Z</time>
      </trkpt>
      <trkpt lat="46.423245817422867" lon="8.420854210853577">
        <ele>1810.2</ele>
        <time>2022-01-23T08:28:01Z</time>
      </trkpt>
      <trkpt lat="46.423213547095656" lon="8.420936102047563">
        <ele>1812.47</ele>
        <time>2022-01-23T08:28:14Z</time>
      </trkpt>
      <trkpt lat="46.423187311738729" lon="8.421022016555071">
        <ele>1814.46</ele>
        <time>2022-01-23T08:28:27Z</time>
      </trkpt>
      <trkpt lat="46.423175241798162" lon="8.421071637421846">
        <ele>1816.3399999999999</ele>
        <time>2022-01-23T08:28:39Z</time>
      </trkpt>
      <trkpt lat="46.423236345872283" lon="8.4210498444736">
        <ele>1818.3599999999999</ele>
        <time>2022-01-23T08:28:54Z</time>
      </trkpt>
      <trkpt lat="46.423289990052581" lon="8.42102101072669">
        <ele>1821.1199999999999</ele>
        <time>2022-01-23T08:29:10Z</time>
      </trkpt>
      <trkpt lat="46.423376407474279" lon="8.420981029048562">
        <ele>1823.8299999999999</ele>
        <time>2022-01-23T08:29:28Z</time>
      </trkpt>
      <trkpt lat="46.423454023897648" lon="8.420975664630532">
        <ele>1824.72</ele>
        <time>2022-01-23T08:29:42Z</time>
      </trkpt>
      <trkpt lat="46.42352401278913" lon="8.421001983806491">
        <ele>1825.3599999999999</ele>
        <time>2022-01-23T08:29:55Z</time>
      </trkpt>
      <trkpt lat="46.423572544008493" lon="8.421019501984119">
        <ele>1827.78</ele>
        <time>2022-01-23T08:30:08Z</time>
      </trkpt>
      <trkpt lat="46.423614202067256" lon="8.420979604125023">
        <ele>1829.8699999999999</ele>
        <time>2022-01-23T08:30:20Z</time>
      </trkpt>
      <trkpt lat="46.423702966421843" lon="8.420978514477611">
        <ele>1831.1199999999999</ele>
        <time>2022-01-23T08:30:34Z</time>
      </trkpt>
      <trkpt lat="46.423711599782109" lon="8.420982118695974">
        <ele>1831.3900000000001</ele>
        <time>2022-01-23T08:30:35Z</time>
      </trkpt>
      <trkpt lat="46.423729453235865" lon="8.420988656580448">
        <ele>1831.1900000000001</ele>
        <time>2022-01-23T08:30:37Z</time>
      </trkpt>
      <trkpt lat="46.423812098801136" lon="8.421021429821849">
        <ele>1831.54</ele>
        <time>2022-01-23T08:30:49Z</time>
      </trkpt>
      <trkpt lat="46.423859372735023" lon="8.42098924331367">
        <ele>1832.95</ele>
        <time>2022-01-23T08:31:01Z</time>
      </trkpt>
      <trkpt lat="46.423864904791117" lon="8.420986393466592">
        <ele>1833.1400000000001</ele>
        <time>2022-01-23T08:31:02Z</time>
      </trkpt>
      <trkpt lat="46.423928523436189" lon="8.420988405123353">
        <ele>1834.22</ele>
        <time>2022-01-23T08:31:14Z</time>
      </trkpt>
      <trkpt lat="46.42397747375071" lon="8.421023273840547">
        <ele>1836.8399999999999</ele>
        <time>2022-01-23T08:31:27Z</time>
      </trkpt>
      <trkpt lat="46.424025585874915" lon="8.421049425378442">
        <ele>1839.0799999999999</ele>
        <time>2022-01-23T08:31:40Z</time>
      </trkpt>
      <trkpt lat="46.424038577824831" lon="8.421100303530693">
        <ele>1840.8599999999999</ele>
        <time>2022-01-23T08:31:52Z</time>
      </trkpt>
      <trkpt lat="46.424069423228502" lon="8.421134920790792">
        <ele>1842.22</ele>
        <time>2022-01-23T08:32:03Z</time>
      </trkpt>
      <trkpt lat="46.424044612795115" lon="8.42119250446558">
        <ele>1844.1900000000001</ele>
        <time>2022-01-23T08:32:18Z</time>
      </trkpt>
      <trkpt lat="46.424103286117315" lon="8.421214800328016">
        <ele>1846.7</ele>
        <time>2022-01-23T08:32:33Z</time>
      </trkpt>
      <trkpt lat="46.424095239490271" lon="8.421250674873591">
        <ele>1847.96</ele>
        <time>2022-01-23T08:32:44Z</time>
      </trkpt>
      <trkpt lat="46.424058526754379" lon="8.421294512227178">
        <ele>1850.1900000000001</ele>
        <time>2022-01-23T08:33:01Z</time>
      </trkpt>
      <trkpt lat="46.424054335802794" lon="8.421297613531351">
        <ele>1850.46</ele>
        <time>2022-01-23T08:33:23Z</time>
      </trkpt>
      <trkpt lat="46.424050480127335" lon="8.421302223578095">
        <ele>1849.54</ele>
        <time>2022-01-23T08:33:48Z</time>
      </trkpt>
      <trkpt lat="46.424075961112976" lon="8.421339774504304">
        <ele>1850.8399999999999</ele>
        <time>2022-01-23T08:34:11Z</time>
      </trkpt>
      <trkpt lat="46.42413086257875" lon="8.421381348744035">
        <ele>1852.5</ele>
        <time>2022-01-23T08:34:24Z</time>
      </trkpt>
      <trkpt lat="46.424107560887933" lon="8.42147589661181">
        <ele>1854.96</ele>
        <time>2022-01-23T08:34:39Z</time>
      </trkpt>
      <trkpt lat="46.424154080450535" lon="8.421461479738355">
        <ele>1857.79</ele>
        <time>2022-01-23T08:34:51Z</time>
      </trkpt>
      <trkpt lat="46.424169084057212" lon="8.421503640711308">
        <ele>1859.3900000000001</ele>
        <time>2022-01-23T08:35:04Z</time>
      </trkpt>
      <trkpt lat="46.424202360212803" lon="8.421586705371738">
        <ele>1860.6900000000001</ele>
        <time>2022-01-23T08:35:17Z</time>
      </trkpt>
      <trkpt lat="46.424229852855206" lon="8.421694999560714">
        <ele>1863</ele>
        <time>2022-01-23T08:35:33Z</time>
      </trkpt>
      <trkpt lat="46.424284586682916" lon="8.421751745045185">
        <ele>1864.8900000000001</ele>
        <time>2022-01-23T08:35:47Z</time>
      </trkpt>
      <trkpt lat="46.424346612766385" lon="8.421744620427489">
        <ele>1866.1600000000001</ele>
        <time>2022-01-23T08:36:00Z</time>
      </trkpt>
      <trkpt lat="46.424408387392759" lon="8.421719474717975">
        <ele>1868.1199999999999</ele>
        <time>2022-01-23T08:36:13Z</time>
      </trkpt>
      <trkpt lat="46.424438813701272" lon="8.421735232695937">
        <ele>1869.75</ele>
        <time>2022-01-23T08:36:24Z</time>
      </trkpt>
      <trkpt lat="46.424489608034492" lon="8.42168502509594">
        <ele>1872.1700000000001</ele>
        <time>2022-01-23T08:36:37Z</time>
      </trkpt>
      <trkpt lat="46.424531349912286" lon="8.421655520796776">
        <ele>1874.73</ele>
        <time>2022-01-23T08:36:50Z</time>
      </trkpt>
      <trkpt lat="46.424571834504604" lon="8.42158729210496">
        <ele>1876.75</ele>
        <time>2022-01-23T08:37:02Z</time>
      </trkpt>
      <trkpt lat="46.424618689343333" lon="8.421575054526329">
        <ele>1879.1199999999999</ele>
        <time>2022-01-23T08:37:15Z</time>
      </trkpt>
      <trkpt lat="46.424666466191411" lon="8.421515207737684">
        <ele>1880.1700000000001</ele>
        <time>2022-01-23T08:37:26Z</time>
      </trkpt>
      <trkpt lat="46.424766965210438" lon="8.421494504436851">
        <ele>1880.52</ele>
        <time>2022-01-23T08:37:39Z</time>
      </trkpt>
      <trkpt lat="46.424795715138316" lon="8.421498779207468">
        <ele>1880.5699999999999</ele>
        <time>2022-01-23T08:37:43Z</time>
      </trkpt>
      <trkpt lat="46.424848940223455" lon="8.421495007351041">
        <ele>1881.4000000000001</ele>
        <time>2022-01-23T08:37:53Z</time>
      </trkpt>
      <trkpt lat="46.424852544441819" lon="8.421498443931341">
        <ele>1881.3199999999999</ele>
        <time>2022-01-23T08:38:13Z</time>
      </trkpt>
      <trkpt lat="46.424860674887896" lon="8.421519231051207">
        <ele>1881.5899999999999</ele>
        <time>2022-01-23T08:38:42Z</time>
      </trkpt>
      <trkpt lat="46.424887664616108" lon="8.421598607674241">
        <ele>1882.6700000000001</ele>
        <time>2022-01-23T08:38:52Z</time>
      </trkpt>
      <trkpt lat="46.424957569688559" lon="8.421603552997112">
        <ele>1884.72</ele>
        <time>2022-01-23T08:39:05Z</time>
      </trkpt>
      <trkpt lat="46.425044992938638" lon="8.42163716442883">
        <ele>1887.1300000000001</ele>
        <time>2022-01-23T08:39:21Z</time>
      </trkpt>
      <trkpt lat="46.425086986273527" lon="8.421671614050865">
        <ele>1889.52</ele>
        <time>2022-01-23T08:39:33Z</time>
      </trkpt>
      <trkpt lat="46.425055554136634" lon="8.421759624034166">
        <ele>1891.74</ele>
        <time>2022-01-23T08:39:46Z</time>
      </trkpt>
      <trkpt lat="46.425044909119606" lon="8.42187462374568">
        <ele>1894.0899999999999</ele>
        <time>2022-01-23T08:40:01Z</time>
      </trkpt>
      <trkpt lat="46.425101906061172" lon="8.421827433630824">
        <ele>1895.8099999999999</ele>
        <time>2022-01-23T08:40:13Z</time>
      </trkpt>
      <trkpt lat="46.425138199701905" lon="8.421865236014128">
        <ele>1898.05</ele>
        <time>2022-01-23T08:40:25Z</time>
      </trkpt>
      <trkpt lat="46.425192765891552" lon="8.421842604875565">
        <ele>1899.6600000000001</ele>
        <time>2022-01-23T08:40:38Z</time>
      </trkpt>
      <trkpt lat="46.425183797255158" lon="8.421910079196096">
        <ele>1901.8699999999999</ele>
        <time>2022-01-23T08:40:48Z</time>
      </trkpt>
      <trkpt lat="46.425167033448815" lon="8.421986605972052">
        <ele>1903.21</ele>
        <time>2022-01-23T08:41:01Z</time>
      </trkpt>
      <trkpt lat="46.425179187208414" lon="8.422091128304601">
        <ele>1905.73</ele>
        <time>2022-01-23T08:41:17Z</time>
      </trkpt>
      <trkpt lat="46.425247164443135" lon="8.422153992578387">
        <ele>1907.71</ele>
        <time>2022-01-23T08:41:33Z</time>
      </trkpt>
      <trkpt lat="46.425276165828109" lon="8.422243511304259">
        <ele>1910.1600000000001</ele>
        <time>2022-01-23T08:41:49Z</time>
      </trkpt>
      <trkpt lat="46.425272561609745" lon="8.422335209324956">
        <ele>1912.75</ele>
        <time>2022-01-23T08:42:02Z</time>
      </trkpt>
      <trkpt lat="46.425299048423767" lon="8.422423722222447">
        <ele>1914.73</ele>
        <time>2022-01-23T08:42:16Z</time>
      </trkpt>
      <trkpt lat="46.425277423113585" lon="8.422543834894896">
        <ele>1916.9100000000001</ele>
        <time>2022-01-23T08:42:31Z</time>
      </trkpt>
      <trkpt lat="46.425250768661499" lon="8.422630755230784">
        <ele>1918.9300000000001</ele>
        <time>2022-01-23T08:42:44Z</time>
      </trkpt>
      <trkpt lat="46.425260072574019" lon="8.422746425494552">
        <ele>1921.6600000000001</ele>
        <time>2022-01-23T08:43:01Z</time>
      </trkpt>
      <trkpt lat="46.425271388143301" lon="8.422811049968004">
        <ele>1923.9000000000001</ele>
        <time>2022-01-23T08:43:13Z</time>
      </trkpt>
      <trkpt lat="46.425269041210413" lon="8.422892773523927">
        <ele>1926.4100000000001</ele>
        <time>2022-01-23T08:43:27Z</time>
      </trkpt>
      <trkpt lat="46.425323104485869" lon="8.42288414016366">
        <ele>1927.97</ele>
        <time>2022-01-23T08:43:39Z</time>
      </trkpt>
      <trkpt lat="46.425383873283863" lon="8.422871315851808">
        <ele>1929.23</ele>
        <time>2022-01-23T08:43:52Z</time>
      </trkpt>
      <trkpt lat="46.425476660951972" lon="8.422884810715914">
        <ele>1931.6099999999999</ele>
        <time>2022-01-23T08:44:09Z</time>
      </trkpt>
      <trkpt lat="46.425537681207061" lon="8.422869555652142">
        <ele>1934.02</ele>
        <time>2022-01-23T08:44:24Z</time>
      </trkpt>
      <trkpt lat="46.425599372014403" lon="8.422877434641123">
        <ele>1936</ele>
        <time>2022-01-23T08:44:37Z</time>
      </trkpt>
      <trkpt lat="46.425653686746955" lon="8.422915488481522">
        <ele>1938.1099999999999</ele>
        <time>2022-01-23T08:44:51Z</time>
      </trkpt>
      <trkpt lat="46.425726441666484" lon="8.422971479594708">
        <ele>1940.3</ele>
        <time>2022-01-23T08:45:06Z</time>
      </trkpt>
      <trkpt lat="46.425843704491854" lon="8.42300483956933">
        <ele>1941.5999999999999</ele>
        <time>2022-01-23T08:45:24Z</time>
      </trkpt>
      <trkpt lat="46.42591972835362" lon="8.422974497079849">
        <ele>1942.55</ele>
        <time>2022-01-23T08:45:35Z</time>
      </trkpt>
      <trkpt lat="46.425984352827072" lon="8.422854971140623">
        <ele>1943.54</ele>
        <time>2022-01-23T08:45:49Z</time>
      </trkpt>
      <trkpt lat="46.42600086517632" lon="8.42277274467051">
        <ele>1944.51</ele>
        <time>2022-01-23T08:46:02Z</time>
      </trkpt>
      <trkpt lat="46.426017209887505" lon="8.422763273119927">
        <ele>1944.49</ele>
        <time>2022-01-23T08:46:21Z</time>
      </trkpt>
      <trkpt lat="46.426048809662461" lon="8.422644920647144">
        <ele>1945.45</ele>
        <time>2022-01-23T08:46:33Z</time>
      </trkpt>
      <trkpt lat="46.426093149930239" lon="8.422502428293228">
        <ele>1946.52</ele>
        <time>2022-01-23T08:46:48Z</time>
      </trkpt>
      <trkpt lat="46.426150649785995" lon="8.422344429418445">
        <ele>1947.9100000000001</ele>
        <time>2022-01-23T08:47:04Z</time>
      </trkpt>
      <trkpt lat="46.426222901791334" lon="8.422208307310939">
        <ele>1949.4100000000001</ele>
        <time>2022-01-23T08:47:19Z</time>
      </trkpt>
      <trkpt lat="46.426304373890162" lon="8.422045446932316">
        <ele>1950.6700000000001</ele>
        <time>2022-01-23T08:47:36Z</time>
      </trkpt>
      <trkpt lat="46.426381068304181" lon="8.421858865767717">
        <ele>1952.1400000000001</ele>
        <time>2022-01-23T08:47:53Z</time>
      </trkpt>
      <trkpt lat="46.426437897607684" lon="8.421755181625485">
        <ele>1953.45</ele>
        <time>2022-01-23T08:48:08Z</time>
      </trkpt>
      <trkpt lat="46.426447117701173" lon="8.421771107241511">
        <ele>1953.45</ele>
        <time>2022-01-23T08:48:30Z</time>
      </trkpt>
      <trkpt lat="46.426488189026713" lon="8.421767167747021">
        <ele>1955.0999999999999</ele>
        <time>2022-01-23T08:48:46Z</time>
      </trkpt>
      <trkpt lat="46.426524566486478" lon="8.421810753643513">
        <ele>1956.9300000000001</ele>
        <time>2022-01-23T08:48:58Z</time>
      </trkpt>
      <trkpt lat="46.426535546779633" lon="8.421925837174058">
        <ele>1959.0599999999999</ele>
        <time>2022-01-23T08:49:11Z</time>
      </trkpt>
      <trkpt lat="46.426550634205341" lon="8.42197185382247">
        <ele>1960.9200000000001</ele>
        <time>2022-01-23T08:49:18Z</time>
      </trkpt>
      <trkpt lat="46.42654811963439" lon="8.422049302607775">
        <ele>1962.48</ele>
        <time>2022-01-23T08:49:31Z</time>
      </trkpt>
      <trkpt lat="46.426509395241737" lon="8.422117279842496">
        <ele>1965.22</ele>
        <time>2022-01-23T08:49:46Z</time>
      </trkpt>
      <trkpt lat="46.426466060802341" lon="8.422205122187734">
        <ele>1966.4000000000001</ele>
        <time>2022-01-23T08:49:58Z</time>
      </trkpt>
      <trkpt lat="46.426458600908518" lon="8.422270249575377">
        <ele>1967.4400000000001</ele>
        <time>2022-01-23T08:50:12Z</time>
      </trkpt>
      <trkpt lat="46.426465893164277" lon="8.422338645905256">
        <ele>1967.8099999999999</ele>
        <time>2022-01-23T08:50:34Z</time>
      </trkpt>
      <trkpt lat="46.426491960883141" lon="8.422481892630458">
        <ele>1968.9000000000001</ele>
        <time>2022-01-23T08:50:48Z</time>
      </trkpt>
      <trkpt lat="46.426522890105844" lon="8.42261684127152">
        <ele>1971.1500000000001</ele>
        <time>2022-01-23T08:51:02Z</time>
      </trkpt>
      <trkpt lat="46.426563877612352" lon="8.422710718587041">
        <ele>1973.5599999999999</ele>
        <time>2022-01-23T08:51:15Z</time>
      </trkpt>
      <trkpt lat="46.426656330004334" lon="8.422709126025438">
        <ele>1976.3099999999999</ele>
        <time>2022-01-23T08:51:31Z</time>
      </trkpt>
      <trkpt lat="46.42670595087111" lon="8.42272580601275">
        <ele>1978.3800000000001</ele>
        <time>2022-01-23T08:51:43Z</time>
      </trkpt>
      <trkpt lat="46.426725648343563" lon="8.422799399122596">
        <ele>1980.28</ele>
        <time>2022-01-23T08:51:55Z</time>
      </trkpt>
      <trkpt lat="46.42673671245575" lon="8.422921439632773">
        <ele>1983.29</ele>
        <time>2022-01-23T08:52:12Z</time>
      </trkpt>
      <trkpt lat="46.42674115486443" lon="8.423047671094537">
        <ele>1985.6700000000001</ele>
        <time>2022-01-23T08:52:29Z</time>
      </trkpt>
      <trkpt lat="46.426748530939221" lon="8.423156552016735">
        <ele>1988.1300000000001</ele>
        <time>2022-01-23T08:52:43Z</time>
      </trkpt>
      <trkpt lat="46.426753476262093" lon="8.423254620283842">
        <ele>1990.26</ele>
        <time>2022-01-23T08:52:58Z</time>
      </trkpt>
      <trkpt lat="46.426764288917184" lon="8.423334918916225">
        <ele>1992.78</ele>
        <time>2022-01-23T08:53:12Z</time>
      </trkpt>
      <trkpt lat="46.426798487082124" lon="8.423389485105872">
        <ele>1995.25</ele>
        <time>2022-01-23T08:53:27Z</time>
      </trkpt>
      <trkpt lat="46.426841737702489" lon="8.423346737399697">
        <ele>1997.9300000000001</ele>
        <time>2022-01-23T08:53:40Z</time>
      </trkpt>
      <trkpt lat="46.426861518993974" lon="8.423417648300529">
        <ele>1999.95</ele>
        <time>2022-01-23T08:53:53Z</time>
      </trkpt>
      <trkpt lat="46.426903093233705" lon="8.423510184511542">
        <ele>2002.4000000000001</ele>
        <time>2022-01-23T08:54:10Z</time>
      </trkpt>
      <trkpt lat="46.426934022456408" lon="8.423562319949269">
        <ele>2003.99</ele>
        <time>2022-01-23T08:54:22Z</time>
      </trkpt>
      <trkpt lat="46.426955731585622" lon="8.423533737659454">
        <ele>2006.3</ele>
        <time>2022-01-23T08:54:35Z</time>
      </trkpt>
      <trkpt lat="46.426968974992633" lon="8.423466514796019">
        <ele>2008.1199999999999</ele>
        <time>2022-01-23T08:54:47Z</time>
      </trkpt>
      <trkpt lat="46.426982888951898" lon="8.423411613330245">
        <ele>2009.8699999999999</ele>
        <time>2022-01-23T08:55:00Z</time>
      </trkpt>
      <trkpt lat="46.427014740183949" lon="8.423361573368311">
        <ele>2012.3900000000001</ele>
        <time>2022-01-23T08:55:13Z</time>
      </trkpt>
      <trkpt lat="46.427046423777938" lon="8.423412032425404">
        <ele>2015.26</ele>
        <time>2022-01-23T08:55:26Z</time>
      </trkpt>
      <trkpt lat="46.427071318030357" lon="8.423362746834755">
        <ele>2016.1300000000001</ele>
        <time>2022-01-23T08:55:38Z</time>
      </trkpt>
      <trkpt lat="46.42710417509079" lon="8.423393508419395">
        <ele>2018.02</ele>
        <time>2022-01-23T08:55:49Z</time>
      </trkpt>
      <trkpt lat="46.427137535065413" lon="8.423485122621059">
        <ele>2019.3199999999999</ele>
        <time>2022-01-23T08:56:02Z</time>
      </trkpt>
      <trkpt lat="46.427157483994961" lon="8.423530552536249">
        <ele>2020.53</ele>
        <time>2022-01-23T08:56:13Z</time>
      </trkpt>
      <trkpt lat="46.427226047962904" lon="8.423536000773311">
        <ele>2022.7</ele>
        <time>2022-01-23T08:56:27Z</time>
      </trkpt>
      <trkpt lat="46.427300060167909" lon="8.423522338271141">
        <ele>2024.3900000000001</ele>
        <time>2022-01-23T08:56:41Z</time>
      </trkpt>
      <trkpt lat="46.427360409870744" lon="8.423436842858791">
        <ele>2026.6300000000001</ele>
        <time>2022-01-23T08:56:57Z</time>
      </trkpt>
      <trkpt lat="46.427406342700124" lon="8.423380265012384">
        <ele>2028.76</ele>
        <time>2022-01-23T08:57:11Z</time>
      </trkpt>
      <trkpt lat="46.427476331591606" lon="8.42339375987649">
        <ele>2030.5599999999999</ele>
        <time>2022-01-23T08:57:24Z</time>
      </trkpt>
      <trkpt lat="46.427538692951202" lon="8.423434998840094">
        <ele>2032.5999999999999</ele>
        <time>2022-01-23T08:57:36Z</time>
      </trkpt>
      <trkpt lat="46.427596360445023" lon="8.423458971083164">
        <ele>2034.54</ele>
        <time>2022-01-23T08:57:48Z</time>
      </trkpt>
      <trkpt lat="46.427682861685753" lon="8.423490067943931">
        <ele>2036.0799999999999</ele>
        <time>2022-01-23T08:58:05Z</time>
      </trkpt>
      <trkpt lat="46.427714712917805" lon="8.423468861728907">
        <ele>2037.3699999999999</ele>
        <time>2022-01-23T08:58:19Z</time>
      </trkpt>
      <trkpt lat="46.427728878334165" lon="8.423336846753955">
        <ele>2038.26</ele>
        <time>2022-01-23T08:58:31Z</time>
      </trkpt>
      <trkpt lat="46.427681352943182" lon="8.423132412135601">
        <ele>2040.0699999999999</ele>
        <time>2022-01-23T08:58:48Z</time>
      </trkpt>
      <trkpt lat="46.42767146229744" lon="8.423111541196704">
        <ele>2040.24</ele>
        <time>2022-01-23T08:58:50Z</time>
      </trkpt>
      <trkpt lat="46.427628882229328" lon="8.422916578128934">
        <ele>2042.6700000000001</ele>
        <time>2022-01-23T08:59:07Z</time>
      </trkpt>
      <trkpt lat="46.427646148949862" lon="8.422708455473185">
        <ele>2044.05</ele>
        <time>2022-01-23T08:59:24Z</time>
      </trkpt>
      <trkpt lat="46.427679508924484" lon="8.422515001147986">
        <ele>2045.3099999999999</ele>
        <time>2022-01-23T08:59:40Z</time>
      </trkpt>
      <trkpt lat="46.427690908312798" lon="8.422421962022781">
        <ele>2045.8800000000001</ele>
        <time>2022-01-23T08:59:53Z</time>
      </trkpt>
      <trkpt lat="46.427705409005284" lon="8.422226412221789">
        <ele>2046.77</ele>
        <time>2022-01-23T09:00:09Z</time>
      </trkpt>
      <trkpt lat="46.42768319696188" lon="8.422157261520624">
        <ele>2047.5799999999999</ele>
        <time>2022-01-23T09:00:20Z</time>
      </trkpt>
      <trkpt lat="46.427688812837005" lon="8.4221619553864">
        <ele>2046.6800000000001</ele>
        <time>2022-01-23T09:00:31Z</time>
      </trkpt>
      <trkpt lat="46.427696105092764" lon="8.422168744727969">
        <ele>2045.5899999999999</ele>
        <time>2022-01-23T09:00:57Z</time>
      </trkpt>
      <trkpt lat="46.427703145891428" lon="8.422166481614113">
        <ele>2046.0599999999999</ele>
        <time>2022-01-23T09:01:33Z</time>
      </trkpt>
      <trkpt lat="46.427691411226988" lon="8.422172851860523">
        <ele>2046.1800000000001</ele>
        <time>2022-01-23T09:02:14Z</time>
      </trkpt>
      <trkpt lat="46.427697446197271" lon="8.422177126631141">
        <ele>2046.0599999999999</ele>
        <time>2022-01-23T09:02:50Z</time>
      </trkpt>
      <trkpt lat="46.427697446197271" lon="8.422174528241158">
        <ele>2046.1199999999999</ele>
        <time>2022-01-23T09:03:27Z</time>
      </trkpt>
      <trkpt lat="46.427693758159876" lon="8.422170421108604">
        <ele>2045.8399999999999</ele>
        <time>2022-01-23T09:04:03Z</time>
      </trkpt>
      <trkpt lat="46.427699709311128" lon="8.422166313976049">
        <ele>2045.9300000000001</ele>
        <time>2022-01-23T09:04:35Z</time>
      </trkpt>
      <trkpt lat="46.427695769816637" lon="8.422159524634481">
        <ele>2045.3499999999999</ele>
        <time>2022-01-23T09:05:12Z</time>
      </trkpt>
      <trkpt lat="46.427706247195601" lon="8.42217268422246">
        <ele>2045.1400000000001</ele>
        <time>2022-01-23T09:05:44Z</time>
      </trkpt>
      <trkpt lat="46.427707923576236" lon="8.422175953164697">
        <ele>2045.1400000000001</ele>
        <time>2022-01-23T09:06:19Z</time>
      </trkpt>
      <trkpt lat="46.427712449803948" lon="8.422173354774714">
        <ele>2045.03</ele>
        <time>2022-01-23T09:07:01Z</time>
      </trkpt>
      <trkpt lat="46.427709516137838" lon="8.42217268422246">
        <ele>2045.01</ele>
        <time>2022-01-23T09:07:37Z</time>
      </trkpt>
      <trkpt lat="46.427708091214299" lon="8.422171510756016">
        <ele>2044.25</ele>
        <time>2022-01-23T09:08:19Z</time>
      </trkpt>
      <trkpt lat="46.427709935232997" lon="8.422168074175715">
        <ele>2044.6700000000001</ele>
        <time>2022-01-23T09:08:50Z</time>
      </trkpt>
      <trkpt lat="46.427707420662045" lon="8.422164805233479">
        <ele>2046.3</ele>
        <time>2022-01-23T09:09:02Z</time>
      </trkpt>
      <trkpt lat="46.427710186690092" lon="8.422166397795081">
        <ele>2045.9000000000001</ele>
        <time>2022-01-23T09:09:14Z</time>
      </trkpt>
      <trkpt lat="46.427705409005284" lon="8.422162625938654">
        <ele>2046.95</ele>
        <time>2022-01-23T09:09:33Z</time>
      </trkpt>
      <trkpt lat="46.427709851413965" lon="8.422162290662527">
        <ele>2046.26</ele>
        <time>2022-01-23T09:09:50Z</time>
      </trkpt>
      <trkpt lat="46.42772032879293" lon="8.422152819111943">
        <ele>2045.8800000000001</ele>
        <time>2022-01-23T09:10:05Z</time>
      </trkpt>
      <trkpt lat="46.427722005173564" lon="8.422149047255516">
        <ele>2046.02</ele>
        <time>2022-01-23T09:10:18Z</time>
      </trkpt>
      <trkpt lat="46.427728543058038" lon="8.422154495492578">
        <ele>2046.2</ele>
        <time>2022-01-23T09:10:53Z</time>
      </trkpt>
      <trkpt lat="46.427731057628989" lon="8.422152735292912">
        <ele>2045.6900000000001</ele>
        <time>2022-01-23T09:11:10Z</time>
      </trkpt>
      <trkpt lat="46.427732398733497" lon="8.422151058912277">
        <ele>2046.03</ele>
        <time>2022-01-23T09:11:32Z</time>
      </trkpt>
      <trkpt lat="46.427764669060707" lon="8.422178886830807">
        <ele>2045.8499999999999</ele>
        <time>2022-01-23T09:11:45Z</time>
      </trkpt>
      <trkpt lat="46.427816804498434" lon="8.422287767753005">
        <ele>2046.8800000000001</ele>
        <time>2022-01-23T09:11:57Z</time>
      </trkpt>
      <trkpt lat="46.427812529727817" lon="8.422493543475866">
        <ele>2048.75</ele>
        <time>2022-01-23T09:12:13Z</time>
      </trkpt>
      <trkpt lat="46.427822336554527" lon="8.422628156840801">
        <ele>2049.6999999999998</ele>
        <time>2022-01-23T09:12:24Z</time>
      </trkpt>
      <trkpt lat="46.427894840016961" lon="8.422827143222094">
        <ele>2051.6900000000001</ele>
        <time>2022-01-23T09:12:41Z</time>
      </trkpt>
      <trkpt lat="46.427986118942499" lon="8.423006180673838">
        <ele>2053.0300000000002</ele>
        <time>2022-01-23T09:12:59Z</time>
      </trkpt>
      <trkpt lat="46.428071949630976" lon="8.423134675249457">
        <ele>2054.9299999999998</ele>
        <time>2022-01-23T09:13:14Z</time>
      </trkpt>
      <trkpt lat="46.428176052868366" lon="8.423243220895529">
        <ele>2056.1500000000001</ele>
        <time>2022-01-23T09:13:30Z</time>
      </trkpt>
      <trkpt lat="46.428191224113107" lon="8.423253362998366">
        <ele>2055.8600000000001</ele>
        <time>2022-01-23T09:13:32Z</time>
      </trkpt>
      <trkpt lat="46.428256183862686" lon="8.423280604183674">
        <ele>2057.1599999999999</ele>
        <time>2022-01-23T09:13:40Z</time>
      </trkpt>
      <trkpt lat="46.428354922682047" lon="8.423338271677494">
        <ele>2057.96</ele>
        <time>2022-01-23T09:13:52Z</time>
      </trkpt>
      <trkpt lat="46.428419379517436" lon="8.423410523682833">
        <ele>2058.9200000000001</ele>
        <time>2022-01-23T09:14:02Z</time>
      </trkpt>
      <trkpt lat="46.428477382287383" lon="8.423561314120889">
        <ele>2060.0599999999999</ele>
        <time>2022-01-23T09:14:16Z</time>
      </trkpt>
      <trkpt lat="46.428529769182205" lon="8.423657454550266">
        <ele>2061.71</ele>
        <time>2022-01-23T09:14:29Z</time>
      </trkpt>
      <trkpt lat="46.428596405312419" lon="8.423669943585992">
        <ele>2064.3800000000001</ele>
        <time>2022-01-23T09:14:41Z</time>
      </trkpt>
      <trkpt lat="46.428620545193553" lon="8.423682516440749">
        <ele>2064.9499999999998</ele>
        <time>2022-01-23T09:14:46Z</time>
      </trkpt>
      <trkpt lat="46.428651893511415" lon="8.423655107617378">
        <ele>2067.1500000000001</ele>
        <time>2022-01-23T09:14:56Z</time>
      </trkpt>
      <trkpt lat="46.428657760843635" lon="8.423575982451439">
        <ele>2068.4099999999999</ele>
        <time>2022-01-23T09:15:08Z</time>
      </trkpt>
      <trkpt lat="46.428691623732448" lon="8.423587968572974">
        <ele>2070.27</ele>
        <time>2022-01-23T09:15:19Z</time>
      </trkpt>
      <trkpt lat="46.428706962615252" lon="8.423538599163294">
        <ele>2072.6500000000001</ele>
        <time>2022-01-23T09:15:31Z</time>
      </trkpt>
      <trkpt lat="46.428735041990876" lon="8.423458300530911">
        <ele>2074.3800000000001</ele>
        <time>2022-01-23T09:15:43Z</time>
      </trkpt>
      <trkpt lat="46.428733365610242" lon="8.423379091545939">
        <ele>2075.29</ele>
        <time>2022-01-23T09:15:54Z</time>
      </trkpt>
      <trkpt lat="46.42871375195682" lon="8.423239113762975">
        <ele>2076.6100000000001</ele>
        <time>2022-01-23T09:16:07Z</time>
      </trkpt>
      <trkpt lat="46.428704531863332" lon="8.423206172883511">
        <ele>2075.02</ele>
        <time>2022-01-23T09:16:10Z</time>
      </trkpt>
      <trkpt lat="46.428688690066338" lon="8.423153618350625">
        <ele>2078.9400000000001</ele>
        <time>2022-01-23T09:16:15Z</time>
      </trkpt>
      <trkpt lat="46.428673099726439" lon="8.423120677471161">
        <ele>2077.3899999999999</ele>
        <time>2022-01-23T09:16:18Z</time>
      </trkpt>
      <trkpt lat="46.428605457767844" lon="8.422953961417079">
        <ele>2079.04</ele>
        <time>2022-01-23T09:16:34Z</time>
      </trkpt>
      <trkpt lat="46.428572349250317" lon="8.422769391909242">
        <ele>2080.3499999999999</ele>
        <time>2022-01-23T09:16:49Z</time>
      </trkpt>
      <trkpt lat="46.42856178805232" lon="8.422568812966347">
        <ele>2082.3800000000001</ele>
        <time>2022-01-23T09:17:06Z</time>
      </trkpt>
      <trkpt lat="46.428565392270684" lon="8.422534698620439">
        <ele>2082.8800000000001</ele>
        <time>2022-01-23T09:17:09Z</time>
      </trkpt>
      <trkpt lat="46.428591459989548" lon="8.422337975353003">
        <ele>2084.6900000000001</ele>
        <time>2022-01-23T09:17:25Z</time>
      </trkpt>
      <trkpt lat="46.428603529930115" lon="8.422114346176386">
        <ele>2086.25</ele>
        <time>2022-01-23T09:17:43Z</time>
      </trkpt>
      <trkpt lat="46.428637476637959" lon="8.421961292624474">
        <ele>2087.79</ele>
        <time>2022-01-23T09:17:57Z</time>
      </trkpt>
      <trkpt lat="46.42873085103929" lon="8.422001022845507">
        <ele>2089.23</ele>
        <time>2022-01-23T09:18:11Z</time>
      </trkpt>
      <trkpt lat="46.428746022284031" lon="8.422195566818118">
        <ele>2092.1300000000001</ele>
        <time>2022-01-23T09:18:29Z</time>
      </trkpt>
      <trkpt lat="46.428740993142128" lon="8.422363791614771">
        <ele>2092.7600000000002</ele>
        <time>2022-01-23T09:18:43Z</time>
      </trkpt>
      <trkpt lat="46.428748033940792" lon="8.422523131594062">
        <ele>2093.6599999999999</ele>
        <time>2022-01-23T09:18:57Z</time>
      </trkpt>
      <trkpt lat="46.42875675112009" lon="8.422595215961337">
        <ele>2094.5</ele>
        <time>2022-01-23T09:19:03Z</time>
      </trkpt>
      <trkpt lat="46.428854232653975" lon="8.422629162669182">
        <ele>2096.23</ele>
        <time>2022-01-23T09:19:17Z</time>
      </trkpt>
      <trkpt lat="46.42888423986733" lon="8.422448029741645">
        <ele>2097.6100000000001</ele>
        <time>2022-01-23T09:19:33Z</time>
      </trkpt>
      <trkpt lat="46.428941488265991" lon="8.422233872115612">
        <ele>2099.3200000000002</ele>
        <time>2022-01-23T09:19:51Z</time>
      </trkpt>
      <trkpt lat="46.428976524621248" lon="8.422032035887241">
        <ele>2101.0300000000002</ele>
        <time>2022-01-23T09:20:08Z</time>
      </trkpt>
      <trkpt lat="46.428970908746123" lon="8.42184679582715">
        <ele>2102.21</ele>
        <time>2022-01-23T09:20:23Z</time>
      </trkpt>
      <trkpt lat="46.428928496316075" lon="8.421645881608129">
        <ele>2103.3800000000001</ele>
        <time>2022-01-23T09:20:40Z</time>
      </trkpt>
      <trkpt lat="46.429004855453968" lon="8.42167379334569">
        <ele>2105.0300000000002</ele>
        <time>2022-01-23T09:20:51Z</time>
      </trkpt>
      <trkpt lat="46.429063947871327" lon="8.4218580275774">
        <ele>2106.27</ele>
        <time>2022-01-23T09:21:08Z</time>
      </trkpt>
      <trkpt lat="46.4290601760149" lon="8.422077633440495">
        <ele>2107.4200000000001</ele>
        <time>2022-01-23T09:21:25Z</time>
      </trkpt>
      <trkpt lat="46.429115161299706" lon="8.422271339222789">
        <ele>2109.1300000000001</ele>
        <time>2022-01-23T09:21:43Z</time>
      </trkpt>
      <trkpt lat="46.429198058322072" lon="8.4224072098732">
        <ele>2110.3099999999999</ele>
        <time>2022-01-23T09:21:58Z</time>
      </trkpt>
      <trkpt lat="46.429301574826241" lon="8.422572836279869">
        <ele>2110.8000000000002</ele>
        <time>2022-01-23T09:22:15Z</time>
      </trkpt>
      <trkpt lat="46.429314818233252" lon="8.422728236764669">
        <ele>2113.0700000000002</ele>
        <time>2022-01-23T09:22:28Z</time>
      </trkpt>
      <trkpt lat="46.429280200973153" lon="8.422938706353307">
        <ele>2114.27</ele>
        <time>2022-01-23T09:22:46Z</time>
      </trkpt>
      <trkpt lat="46.429307525977492" lon="8.423097711056471">
        <ele>2115.3899999999999</ele>
        <time>2022-01-23T09:22:59Z</time>
      </trkpt>
      <trkpt lat="46.42929520457983" lon="8.423282699659467">
        <ele>2116.73</ele>
        <time>2022-01-23T09:23:14Z</time>
      </trkpt>
      <trkpt lat="46.429272489622235" lon="8.423501802608371">
        <ele>2118.21</ele>
        <time>2022-01-23T09:23:32Z</time>
      </trkpt>
      <trkpt lat="46.429333342239261" lon="8.423713445663452">
        <ele>2119.5500000000002</ele>
        <time>2022-01-23T09:23:50Z</time>
      </trkpt>
      <trkpt lat="46.429395200684667" lon="8.423888795077801">
        <ele>2120.6100000000001</ele>
        <time>2022-01-23T09:24:05Z</time>
      </trkpt>
      <trkpt lat="46.429406516253948" lon="8.424110915511847">
        <ele>2122.3299999999999</ele>
        <time>2022-01-23T09:24:22Z</time>
      </trkpt>
      <trkpt lat="46.429408611729741" lon="8.424163302406669">
        <ele>2122.5700000000002</ele>
        <time>2022-01-23T09:24:26Z</time>
      </trkpt>
      <trkpt lat="46.429358571767807" lon="8.42439983971417">
        <ele>2123.5999999999999</ele>
        <time>2022-01-23T09:24:44Z</time>
      </trkpt>
      <trkpt lat="46.429281961172819" lon="8.424575356766582">
        <ele>2125.4499999999998</ele>
        <time>2022-01-23T09:25:00Z</time>
      </trkpt>
      <trkpt lat="46.4292380400002" lon="8.424776187166572">
        <ele>2125.6599999999999</ele>
        <time>2022-01-23T09:25:17Z</time>
      </trkpt>
      <trkpt lat="46.42927810549736" lon="8.42494759708643">
        <ele>2128.25</ele>
        <time>2022-01-23T09:25:32Z</time>
      </trkpt>
      <trkpt lat="46.429273663088679" lon="8.424945333972573">
        <ele>2128.9000000000001</ele>
        <time>2022-01-23T09:25:46Z</time>
      </trkpt>
      <trkpt lat="46.429263353347778" lon="8.424923373386264">
        <ele>2128.8600000000001</ele>
        <time>2022-01-23T09:26:02Z</time>
      </trkpt>
      <trkpt lat="46.429257234558463" lon="8.424920104444027">
        <ele>2128.6799999999998</ele>
        <time>2022-01-23T09:26:26Z</time>
      </trkpt>
      <trkpt lat="46.429254217073321" lon="8.424919685348868">
        <ele>2128.23</ele>
        <time>2022-01-23T09:26:49Z</time>
      </trkpt>
      <trkpt lat="46.429251115769148" lon="8.424915745854378">
        <ele>2128</ele>
        <time>2022-01-23T09:27:13Z</time>
      </trkpt>
      <trkpt lat="46.429251870140433" lon="8.424911303445697">
        <ele>2128.4499999999998</ele>
        <time>2022-01-23T09:27:32Z</time>
      </trkpt>
      <trkpt lat="46.429254217073321" lon="8.424909794703126">
        <ele>2128.9200000000001</ele>
        <time>2022-01-23T09:27:59Z</time>
      </trkpt>
      <trkpt lat="46.42925463616848" lon="8.424908872693777">
        <ele>2128.9099999999999</ele>
        <time>2022-01-23T09:28:16Z</time>
      </trkpt>
      <trkpt lat="46.429231083020568" lon="8.424855228513479">
        <ele>2128.3299999999999</ele>
        <time>2022-01-23T09:28:29Z</time>
      </trkpt>
      <trkpt lat="46.429266957566142" lon="8.424947177991271">
        <ele>2127.5599999999999</ele>
        <time>2022-01-23T09:28:39Z</time>
      </trkpt>
      <trkpt lat="46.429273160174489" lon="8.424958577379584">
        <ele>2127.5</ele>
        <time>2022-01-23T09:28:40Z</time>
      </trkpt>
      <trkpt lat="46.429377933964133" lon="8.425164939835668">
        <ele>2128.9000000000001</ele>
        <time>2022-01-23T09:28:57Z</time>
      </trkpt>
      <trkpt lat="46.429490922018886" lon="8.425379851832986">
        <ele>2130.6700000000001</ele>
        <time>2022-01-23T09:29:15Z</time>
      </trkpt>
      <trkpt lat="46.429598294198513" lon="8.425619741901755">
        <ele>2131.6700000000001</ele>
        <time>2022-01-23T09:29:33Z</time>
      </trkpt>
      <trkpt lat="46.429693596437573" lon="8.425841778516769">
        <ele>2132.02</ele>
        <time>2022-01-23T09:29:49Z</time>
      </trkpt>
      <trkpt lat="46.429809350520372" lon="8.426040261983872">
        <ele>2132.3200000000002</ele>
        <time>2022-01-23T09:30:05Z</time>
      </trkpt>
      <trkpt lat="46.429933486506343" lon="8.426203038543463">
        <ele>2132.6999999999998</ele>
        <time>2022-01-23T09:30:20Z</time>
      </trkpt>
      <trkpt lat="46.430037757381797" lon="8.426409736275673">
        <ele>2133.0300000000002</ele>
        <time>2022-01-23T09:30:36Z</time>
      </trkpt>
      <trkpt lat="46.430104896426201" lon="8.426610734313726">
        <ele>2133.23</ele>
        <time>2022-01-23T09:30:50Z</time>
      </trkpt>
      <trkpt lat="46.430183937773108" lon="8.426845846697688">
        <ele>2133.6300000000001</ele>
        <time>2022-01-23T09:31:06Z</time>
      </trkpt>
      <trkpt lat="46.430278485640883" lon="8.427099399268627">
        <ele>2133.8800000000001</ele>
        <time>2022-01-23T09:31:23Z</time>
      </trkpt>
      <trkpt lat="46.430408153682947" lon="8.427289500832558">
        <ele>2134.5500000000002</ele>
        <time>2022-01-23T09:31:39Z</time>
      </trkpt>
      <trkpt lat="46.430546874180436" lon="8.427455043420196">
        <ele>2135.6100000000001</ele>
        <time>2022-01-23T09:31:56Z</time>
      </trkpt>
      <trkpt lat="46.430720128118992" lon="8.427639277651906">
        <ele>2137.8200000000002</ele>
        <time>2022-01-23T09:32:17Z</time>
      </trkpt>
      <trkpt lat="46.430875528603792" lon="8.42774648219347">
        <ele>2140.0700000000002</ele>
        <time>2022-01-23T09:32:34Z</time>
      </trkpt>
      <trkpt lat="46.431030174717307" lon="8.427839772775769">
        <ele>2141.1700000000001</ele>
        <time>2022-01-23T09:32:51Z</time>
      </trkpt>
      <trkpt lat="46.431178282946348" lon="8.427904481068254">
        <ele>2142.6100000000001</ele>
        <time>2022-01-23T09:33:08Z</time>
      </trkpt>
      <trkpt lat="46.431208290159702" lon="8.427934404462576">
        <ele>2143.0799999999999</ele>
        <time>2022-01-23T09:33:12Z</time>
      </trkpt>
      <trkpt lat="46.431315913796425" lon="8.428140431642532">
        <ele>2143.46</ele>
        <time>2022-01-23T09:33:30Z</time>
      </trkpt>
      <trkpt lat="46.431417418643832" lon="8.428358528763056">
        <ele>2145.1500000000001</ele>
        <time>2022-01-23T09:33:48Z</time>
      </trkpt>
      <trkpt lat="46.431516408920288" lon="8.428513174876571">
        <ele>2146.1900000000001</ele>
        <time>2022-01-23T09:34:03Z</time>
      </trkpt>
      <trkpt lat="46.431621098890901" lon="8.428708054125309">
        <ele>2148.3600000000001</ele>
        <time>2022-01-23T09:34:22Z</time>
      </trkpt>
      <trkpt lat="46.431693350896239" lon="8.428902179002762">
        <ele>2149.4200000000001</ele>
        <time>2022-01-23T09:34:38Z</time>
      </trkpt>
      <trkpt lat="46.431735344231129" lon="8.429113486781716">
        <ele>2149.5599999999999</ele>
        <time>2022-01-23T09:34:52Z</time>
      </trkpt>
      <trkpt lat="46.431761411949992" lon="8.429216416552663">
        <ele>2149.8600000000001</ele>
        <time>2022-01-23T09:34:59Z</time>
      </trkpt>
      <trkpt lat="46.431846907362342" lon="8.429452031850815">
        <ele>2149.6399999999999</ele>
        <time>2022-01-23T09:35:16Z</time>
      </trkpt>
      <trkpt lat="46.431900719180703" lon="8.429562840610743">
        <ele>2150.25</ele>
        <time>2022-01-23T09:35:25Z</time>
      </trkpt>
      <trkpt lat="46.431916980072856" lon="8.429594859480858">
        <ele>2150.27</ele>
        <time>2022-01-23T09:35:28Z</time>
      </trkpt>
      <trkpt lat="46.432073721662164" lon="8.429836677387357">
        <ele>2150.8699999999999</ele>
        <time>2022-01-23T09:35:48Z</time>
      </trkpt>
      <trkpt lat="46.432197522372007" lon="8.430028203874826">
        <ele>2151.77</ele>
        <time>2022-01-23T09:36:04Z</time>
      </trkpt>
      <trkpt lat="46.432309756055474" lon="8.430235823616386">
        <ele>2152.6799999999998</ele>
        <time>2022-01-23T09:36:21Z</time>
      </trkpt>
      <trkpt lat="46.432408578693867" lon="8.430447969585657">
        <ele>2153.25</ele>
        <time>2022-01-23T09:36:38Z</time>
      </trkpt>
      <trkpt lat="46.432470940053463" lon="8.430597921833396">
        <ele>2153.9299999999998</ele>
        <time>2022-01-23T09:36:51Z</time>
      </trkpt>
      <trkpt lat="46.43245710991323" lon="8.430738570168614">
        <ele>2156.4400000000001</ele>
        <time>2022-01-23T09:37:06Z</time>
      </trkpt>
      <trkpt lat="46.432456858456135" lon="8.430818617343903">
        <ele>2158.6799999999998</ele>
        <time>2022-01-23T09:37:18Z</time>
      </trkpt>
      <trkpt lat="46.432437999173999" lon="8.4309206251055">
        <ele>2161.6900000000001</ele>
        <time>2022-01-23T09:37:33Z</time>
      </trkpt>
      <trkpt lat="46.432442525401711" lon="8.430937053635716">
        <ele>2161.27</ele>
        <time>2022-01-23T09:37:35Z</time>
      </trkpt>
      <trkpt lat="46.432444034144282" lon="8.430946860462427">
        <ele>2161.3499999999999</ele>
        <time>2022-01-23T09:37:37Z</time>
      </trkpt>
      <trkpt lat="46.432462390512228" lon="8.431023638695478">
        <ele>2161.3099999999999</ele>
        <time>2022-01-23T09:37:44Z</time>
      </trkpt>
      <trkpt lat="46.432471023872495" lon="8.43111215159297">
        <ele>2162.3400000000001</ele>
        <time>2022-01-23T09:37:56Z</time>
      </trkpt>
      <trkpt lat="46.432471694424748" lon="8.431110894307494">
        <ele>2162.6199999999999</ele>
        <time>2022-01-23T09:37:57Z</time>
      </trkpt>
      <trkpt lat="46.432466916739941" lon="8.431113073602319">
        <ele>2161.4099999999999</ele>
        <time>2022-01-23T09:38:11Z</time>
      </trkpt>
      <trkpt lat="46.432461133226752" lon="8.431105697527528">
        <ele>2162.1999999999998</ele>
        <time>2022-01-23T09:38:26Z</time>
      </trkpt>
      <trkpt lat="46.432448225095868" lon="8.43112631700933">
        <ele>2162.6100000000001</ele>
        <time>2022-01-23T09:38:40Z</time>
      </trkpt>
      <trkpt lat="46.432442860677838" lon="8.431127574294806">
        <ele>2162.6500000000001</ele>
        <time>2022-01-23T09:39:01Z</time>
      </trkpt>
      <trkpt lat="46.432441771030426" lon="8.431130591779947">
        <ele>2161.27</ele>
        <time>2022-01-23T09:39:09Z</time>
      </trkpt>
      <trkpt lat="46.43244344741106" lon="8.431134782731533">
        <ele>2161.2199999999998</ele>
        <time>2022-01-23T09:39:49Z</time>
      </trkpt>
      <trkpt lat="46.432432383298874" lon="8.43110678717494">
        <ele>2161.8800000000001</ele>
        <time>2022-01-23T09:40:38Z</time>
      </trkpt>
      <trkpt lat="46.432429449632764" lon="8.431101590394974">
        <ele>2161.6999999999998</ele>
        <time>2022-01-23T09:41:20Z</time>
      </trkpt>
      <trkpt lat="46.432426515966654" lon="8.431107541546226">
        <ele>2162.3299999999999</ele>
        <time>2022-01-23T09:42:03Z</time>
      </trkpt>
      <trkpt lat="46.432426515966654" lon="8.431125897914171">
        <ele>2162.1999999999998</ele>
        <time>2022-01-23T09:42:55Z</time>
      </trkpt>
      <trkpt lat="46.432426767423749" lon="8.431128328666091">
        <ele>2162.73</ele>
        <time>2022-01-23T09:43:47Z</time>
      </trkpt>
      <trkpt lat="46.432425091043115" lon="8.431123634800315">
        <ele>2162.5300000000002</ele>
        <time>2022-01-23T09:44:40Z</time>
      </trkpt>
      <trkpt lat="46.432429952546954" lon="8.431122964248061">
        <ele>2162.4699999999998</ele>
        <time>2022-01-23T09:45:15Z</time>
      </trkpt>
      <trkpt lat="46.432436909526587" lon="8.431126065552235">
        <ele>2162.4899999999998</ele>
        <time>2022-01-23T09:45:45Z</time>
      </trkpt>
      <trkpt lat="46.432441351935267" lon="8.431121539324522">
        <ele>2162.3299999999999</ele>
        <time>2022-01-23T09:46:38Z</time>
      </trkpt>
      <trkpt lat="46.432445794343948" lon="8.431118605658412">
        <ele>2162.5999999999999</ele>
        <time>2022-01-23T09:47:04Z</time>
      </trkpt>
      <trkpt lat="46.432454511523247" lon="8.431130759418011">
        <ele>2162.6700000000001</ele>
        <time>2022-01-23T09:47:50Z</time>
      </trkpt>
      <trkpt lat="46.432450320571661" lon="8.431143248453736">
        <ele>2162.54</ele>
        <time>2022-01-23T09:48:37Z</time>
      </trkpt>
      <trkpt lat="46.432445961982012" lon="8.431153558194637">
        <ele>2162.7800000000002</ele>
        <time>2022-01-23T09:49:27Z</time>
      </trkpt>
      <trkpt lat="46.432443950325251" lon="8.431135453283787">
        <ele>2162.6500000000001</ele>
        <time>2022-01-23T09:50:23Z</time>
      </trkpt>
      <trkpt lat="46.432446297258139" lon="8.431122126057744">
        <ele>2162.7399999999998</ele>
        <time>2022-01-23T09:51:22Z</time>
      </trkpt>
      <trkpt lat="46.432448392733932" lon="8.431118689477444">
        <ele>2162.7800000000002</ele>
        <time>2022-01-23T09:51:59Z</time>
      </trkpt>
      <trkpt lat="46.432452835142612" lon="8.431113073602319">
        <ele>2162.8200000000002</ele>
        <time>2022-01-23T09:52:38Z</time>
      </trkpt>
      <trkpt lat="46.432450655847788" lon="8.431099159643054">
        <ele>2163.2600000000002</ele>
        <time>2022-01-23T09:53:19Z</time>
      </trkpt>
      <trkpt lat="46.432447303086519" lon="8.431108044460416">
        <ele>2163.6700000000001</ele>
        <time>2022-01-23T09:53:57Z</time>
      </trkpt>
      <trkpt lat="46.432449147105217" lon="8.431113995611668">
        <ele>2163.3499999999999</ele>
        <time>2022-01-23T09:54:43Z</time>
      </trkpt>
      <trkpt lat="46.432448728010058" lon="8.431119443848729">
        <ele>2163.6300000000001</ele>
        <time>2022-01-23T09:55:31Z</time>
      </trkpt>
      <trkpt lat="46.432456439360976" lon="8.431121120229363">
        <ele>2163.6399999999999</ele>
        <time>2022-01-23T09:56:18Z</time>
      </trkpt>
      <trkpt lat="46.43244780600071" lon="8.431121874600649">
        <ele>2163.8800000000001</ele>
        <time>2022-01-23T09:57:04Z</time>
      </trkpt>
      <trkpt lat="46.432453757151961" lon="8.431114414706826">
        <ele>2163.6799999999998</ele>
        <time>2022-01-23T09:57:53Z</time>
      </trkpt>
      <trkpt lat="46.432451158761978" lon="8.431118186563253">
        <ele>2164.1399999999999</ele>
        <time>2022-01-23T09:58:40Z</time>
      </trkpt>
      <trkpt lat="46.432449063286185" lon="8.431124975904822">
        <ele>2164.1199999999999</ele>
        <time>2022-01-23T09:59:24Z</time>
      </trkpt>
      <trkpt lat="46.432449650019407" lon="8.431130172684789">
        <ele>2164.7600000000002</ele>
        <time>2022-01-23T10:00:18Z</time>
      </trkpt>
      <trkpt lat="46.432450236752629" lon="8.431122796609998">
        <ele>2164.77</ele>
        <time>2022-01-23T10:01:06Z</time>
      </trkpt>
      <trkpt lat="46.432449817657471" lon="8.431119779124856">
        <ele>2164.7600000000002</ele>
        <time>2022-01-23T10:01:52Z</time>
      </trkpt>
      <trkpt lat="46.432449063286185" lon="8.431120784953237">
        <ele>2165.1599999999999</ele>
        <time>2022-01-23T10:02:40Z</time>
      </trkpt>
      <trkpt lat="46.432452416047454" lon="8.431124975904822">
        <ele>2165.4499999999998</ele>
        <time>2022-01-23T10:03:34Z</time>
      </trkpt>
      <trkpt lat="46.432457864284515" lon="8.431127741932869">
        <ele>2165.6100000000001</ele>
        <time>2022-01-23T10:04:29Z</time>
      </trkpt>
      <trkpt lat="46.43245660699904" lon="8.431124556809664">
        <ele>2166.2399999999998</ele>
        <time>2022-01-23T10:05:22Z</time>
      </trkpt>
      <trkpt lat="46.432455098256469" lon="8.431128999218345">
        <ele>2166.3000000000002</ele>
        <time>2022-01-23T10:06:15Z</time>
      </trkpt>
      <trkpt lat="46.432458786293864" lon="8.431125143542886">
        <ele>2166.2600000000002</ele>
        <time>2022-01-23T10:07:07Z</time>
      </trkpt>
      <trkpt lat="46.432461803779006" lon="8.431129418313503">
        <ele>2166.4099999999999</ele>
        <time>2022-01-23T10:07:49Z</time>
      </trkpt>
      <trkpt lat="46.432449985295534" lon="8.431124556809664">
        <ele>2166.8400000000001</ele>
        <time>2022-01-23T10:08:39Z</time>
      </trkpt>
      <trkpt lat="46.43244294449687" lon="8.4311209525913">
        <ele>2166.8800000000001</ele>
        <time>2022-01-23T10:09:27Z</time>
      </trkpt>
      <trkpt lat="46.432450655847788" lon="8.431138722226024">
        <ele>2167.7199999999998</ele>
        <time>2022-01-23T10:10:19Z</time>
      </trkpt>
      <trkpt lat="46.432454427704215" lon="8.431134698912501">
        <ele>2167.8000000000002</ele>
        <time>2022-01-23T10:11:03Z</time>
      </trkpt>
      <trkpt lat="46.432456020265818" lon="8.431135201826692">
        <ele>2167.6100000000001</ele>
        <time>2022-01-23T10:11:43Z</time>
      </trkpt>
      <trkpt lat="46.432455601170659" lon="8.431123550981283">
        <ele>2167.6799999999998</ele>
        <time>2022-01-23T10:12:30Z</time>
      </trkpt>
      <trkpt lat="46.432462809607387" lon="8.431129166856408">
        <ele>2168.0799999999999</ele>
        <time>2022-01-23T10:13:15Z</time>
      </trkpt>
      <trkpt lat="46.432472951710224" lon="8.431129669770598">
        <ele>2168.1999999999998</ele>
        <time>2022-01-23T10:14:00Z</time>
      </trkpt>
      <trkpt lat="46.432469263672829" lon="8.431123048067093">
        <ele>2168.1399999999999</ele>
        <time>2022-01-23T10:14:44Z</time>
      </trkpt>
      <trkpt lat="46.432458534836769" lon="8.431115755811334">
        <ele>2168.4299999999998</ele>
        <time>2022-01-23T10:15:34Z</time>
      </trkpt>
      <trkpt lat="46.432455601170659" lon="8.431119862943888">
        <ele>2168.5500000000002</ele>
        <time>2022-01-23T10:16:17Z</time>
      </trkpt>
      <trkpt lat="46.432457864284515" lon="8.431114247068763">
        <ele>2168.6700000000001</ele>
        <time>2022-01-23T10:17:08Z</time>
      </trkpt>
      <trkpt lat="46.432457864284515" lon="8.431113408878446">
        <ele>2168.8899999999999</ele>
        <time>2022-01-23T10:17:59Z</time>
      </trkpt>
      <trkpt lat="46.432453421875834" lon="8.431122628971934">
        <ele>2169.29</ele>
        <time>2022-01-23T10:18:51Z</time>
      </trkpt>
      <trkpt lat="46.432456774637103" lon="8.431127239018679">
        <ele>2169.25</ele>
        <time>2022-01-23T10:19:41Z</time>
      </trkpt>
      <trkpt lat="46.432459708303213" lon="8.431119360029697">
        <ele>2169.0700000000002</ele>
        <time>2022-01-23T10:20:37Z</time>
      </trkpt>
      <trkpt lat="46.4324551820755" lon="8.431127909570932">
        <ele>2168.6300000000001</ele>
        <time>2022-01-23T10:21:22Z</time>
      </trkpt>
      <trkpt lat="46.43245660699904" lon="8.431130424141884">
        <ele>2168.5799999999999</ele>
        <time>2022-01-23T10:22:16Z</time>
      </trkpt>
      <trkpt lat="46.432454260066152" lon="8.431120198220015">
        <ele>2168.8200000000002</ele>
        <time>2022-01-23T10:23:01Z</time>
      </trkpt>
      <trkpt lat="46.432457026094198" lon="8.431109972298145">
        <ele>2168.9200000000001</ele>
        <time>2022-01-23T10:23:49Z</time>
      </trkpt>
      <trkpt lat="46.432457277551293" lon="8.431116845458746">
        <ele>2168.7399999999998</ele>
        <time>2022-01-23T10:24:35Z</time>
      </trkpt>
      <trkpt lat="46.432458283379674" lon="8.431128915399313">
        <ele>2168.4699999999998</ele>
        <time>2022-01-23T10:25:25Z</time>
      </trkpt>
      <trkpt lat="46.432456439360976" lon="8.43112145550549">
        <ele>2168.6799999999998</ele>
        <time>2022-01-23T10:26:13Z</time>
      </trkpt>
      <trkpt lat="46.432457193732262" lon="8.431129837408662">
        <ele>2168.7399999999998</ele>
        <time>2022-01-23T10:27:06Z</time>
      </trkpt>
      <trkpt lat="46.432459205389023" lon="8.431130759418011">
        <ele>2168.79</ele>
        <time>2022-01-23T10:27:58Z</time>
      </trkpt>
      <trkpt lat="46.432457529008389" lon="8.431125059723854">
        <ele>2169.21</ele>
        <time>2022-01-23T10:28:50Z</time>
      </trkpt>
      <trkpt lat="46.432458451017737" lon="8.431131262332201">
        <ele>2168.8800000000001</ele>
        <time>2022-01-23T10:29:37Z</time>
      </trkpt>
      <trkpt lat="46.432455684989691" lon="8.431135872378945">
        <ele>2169.21</ele>
        <time>2022-01-23T10:30:25Z</time>
      </trkpt>
      <trkpt lat="46.432454343885183" lon="8.431128412485123">
        <ele>2169.1500000000001</ele>
        <time>2022-01-23T10:31:12Z</time>
      </trkpt>
      <trkpt lat="46.432458786293864" lon="8.431138722226024">
        <ele>2169.25</ele>
        <time>2022-01-23T10:31:59Z</time>
      </trkpt>
      <trkpt lat="46.432458199560642" lon="8.431125646457076">
        <ele>2169.3000000000002</ele>
        <time>2022-01-23T10:32:49Z</time>
      </trkpt>
      <trkpt lat="46.432465156540275" lon="8.431131513789296">
        <ele>2169.52</ele>
        <time>2022-01-23T10:33:40Z</time>
      </trkpt>
      <trkpt lat="46.432459205389023" lon="8.431130424141884">
        <ele>2169.3699999999999</ele>
        <time>2022-01-23T10:34:36Z</time>
      </trkpt>
      <trkpt lat="46.432459708303213" lon="8.431128412485123">
        <ele>2169.0700000000002</ele>
        <time>2022-01-23T10:35:28Z</time>
      </trkpt>
      <trkpt lat="46.432467419654131" lon="8.431122964248061">
        <ele>2169.0999999999999</ele>
        <time>2022-01-23T10:36:17Z</time>
      </trkpt>
      <trkpt lat="46.432465994730592" lon="8.431128244847059">
        <ele>2168.8299999999999</ele>
        <time>2022-01-23T10:36:58Z</time>
      </trkpt>
      <trkpt lat="46.432462390512228" lon="8.431130424141884">
        <ele>2168.7399999999998</ele>
        <time>2022-01-23T10:37:46Z</time>
      </trkpt>
      <trkpt lat="46.43245954066515" lon="8.43112681992352">
        <ele>2168.8899999999999</ele>
        <time>2022-01-23T10:38:35Z</time>
      </trkpt>
      <trkpt lat="46.432454008609056" lon="8.431126652285457">
        <ele>2169.0500000000002</ele>
        <time>2022-01-23T10:39:26Z</time>
      </trkpt>
      <trkpt lat="46.43246054649353" lon="8.431130591779947">
        <ele>2169.1599999999999</ele>
        <time>2022-01-23T10:40:20Z</time>
      </trkpt>
      <trkpt lat="46.432461552321911" lon="8.431137632578611">
        <ele>2169.77</ele>
        <time>2022-01-23T10:41:15Z</time>
      </trkpt>
      <trkpt lat="46.432449566200376" lon="8.431135872378945">
        <ele>2169.5799999999999</ele>
        <time>2022-01-23T10:42:09Z</time>
      </trkpt>
      <trkpt lat="46.432455265894532" lon="8.431139895692468">
        <ele>2169.52</ele>
        <time>2022-01-23T10:43:03Z</time>
      </trkpt>
      <trkpt lat="46.432457780465484" lon="8.431140230968595">
        <ele>2169.6399999999999</ele>
        <time>2022-01-23T10:43:50Z</time>
      </trkpt>
      <trkpt lat="46.432453421875834" lon="8.431139057502151">
        <ele>2169.7199999999998</ele>
        <time>2022-01-23T10:44:43Z</time>
      </trkpt>
      <trkpt lat="46.432450823485851" lon="8.43114928342402">
        <ele>2170.3899999999999</ele>
        <time>2022-01-23T10:45:36Z</time>
      </trkpt>
      <trkpt lat="46.432447638362646" lon="8.431151965633035">
        <ele>2170.5</ele>
        <time>2022-01-23T10:46:23Z</time>
      </trkpt>
      <trkpt lat="46.432453589513898" lon="8.431144673377276">
        <ele>2170.8299999999999</ele>
        <time>2022-01-23T10:47:20Z</time>
      </trkpt>
      <trkpt lat="46.432448057457805" lon="8.431149534881115">
        <ele>2170.6799999999998</ele>
        <time>2022-01-23T10:48:10Z</time>
      </trkpt>
      <trkpt lat="46.43244780600071" lon="8.431146098300815">
        <ele>2170.5599999999999</ele>
        <time>2022-01-23T10:48:58Z</time>
      </trkpt>
      <trkpt lat="46.432442693039775" lon="8.431144338101149">
        <ele>2170.46</ele>
        <time>2022-01-23T10:49:49Z</time>
      </trkpt>
      <trkpt lat="46.432449733838439" lon="8.431149451062083">
        <ele>2170.2800000000002</ele>
        <time>2022-01-23T10:50:40Z</time>
      </trkpt>
      <trkpt lat="46.432448476552963" lon="8.431149534881115">
        <ele>2170.3800000000001</ele>
        <time>2022-01-23T10:51:31Z</time>
      </trkpt>
      <trkpt lat="46.432447470724583" lon="8.431147439405322">
        <ele>2170.5100000000002</ele>
        <time>2022-01-23T10:52:23Z</time>
      </trkpt>
      <trkpt lat="46.432448728010058" lon="8.431150959804654">
        <ele>2169.8699999999999</ele>
        <time>2022-01-23T10:53:20Z</time>
      </trkpt>
      <trkpt lat="46.432449398562312" lon="8.431154815480113">
        <ele>2169.71</ele>
        <time>2022-01-23T10:54:10Z</time>
      </trkpt>
      <trkpt lat="46.432447722181678" lon="8.431148361414671">
        <ele>2169.9699999999998</ele>
        <time>2022-01-23T10:55:05Z</time>
      </trkpt>
      <trkpt lat="46.432440932840109" lon="8.431151295080781">
        <ele>2169.8000000000002</ele>
        <time>2022-01-23T10:55:59Z</time>
      </trkpt>
      <trkpt lat="46.432441854849458" lon="8.431150875985622">
        <ele>2169.8899999999999</ele>
        <time>2022-01-23T10:56:53Z</time>
      </trkpt>
      <trkpt lat="46.432442357763648" lon="8.431155234575272">
        <ele>2169.6300000000001</ele>
        <time>2022-01-23T10:57:47Z</time>
      </trkpt>
      <trkpt lat="46.432447386905551" lon="8.431163616478443">
        <ele>2169.5799999999999</ele>
        <time>2022-01-23T10:58:36Z</time>
      </trkpt>
      <trkpt lat="46.43244780600071" lon="8.43114634975791">
        <ele>2169.77</ele>
        <time>2022-01-23T10:59:27Z</time>
      </trkpt>
      <trkpt lat="46.432446716353297" lon="8.431147607043386">
        <ele>2169.6999999999998</ele>
        <time>2022-01-23T11:00:17Z</time>
      </trkpt>
      <trkpt lat="46.432449147105217" lon="8.431150624528527">
        <ele>2170.1500000000001</ele>
        <time>2022-01-23T11:01:03Z</time>
      </trkpt>
      <trkpt lat="46.432449230924249" lon="8.431151127442718">
        <ele>2169.6799999999998</ele>
        <time>2022-01-23T11:01:56Z</time>
      </trkpt>
      <trkpt lat="46.432458283379674" lon="8.431155402213335">
        <ele>2169.96</ele>
        <time>2022-01-23T11:02:42Z</time>
      </trkpt>
      <trkpt lat="46.432453589513898" lon="8.431154480203986">
        <ele>2169.5799999999999</ele>
        <time>2022-01-23T11:02:59Z</time>
      </trkpt>
      <trkpt lat="46.4324517454952" lon="8.431153306737542">
        <ele>2169.6500000000001</ele>
        <time>2022-01-23T11:03:27Z</time>
      </trkpt>
      <trkpt lat="46.432462893426418" lon="8.431160096079111">
        <ele>2169.6500000000001</ele>
        <time>2022-01-23T11:04:12Z</time>
      </trkpt>
      <trkpt lat="46.432463647797704" lon="8.43116152100265">
        <ele>2166.5500000000002</ele>
        <time>2022-01-23T11:04:17Z</time>
      </trkpt>
      <trkpt lat="46.432463815435767" lon="8.431161688640714">
        <ele>2167.1900000000001</ele>
        <time>2022-01-23T11:04:18Z</time>
      </trkpt>
      <trkpt lat="46.4324517454952" lon="8.431160263717175">
        <ele>2169.5300000000002</ele>
        <time>2022-01-23T11:04:37Z</time>
      </trkpt>
      <trkpt lat="46.432440681383014" lon="8.431155234575272">
        <ele>2169.29</ele>
        <time>2022-01-23T11:04:58Z</time>
      </trkpt>
      <trkpt lat="46.432450069114566" lon="8.431172920390964">
        <ele>2173.1100000000001</ele>
        <time>2022-01-23T11:05:17Z</time>
      </trkpt>
      <trkpt lat="46.432450152933598" lon="8.431173674762249">
        <ele>2171.9899999999998</ele>
        <time>2022-01-23T11:05:18Z</time>
      </trkpt>
      <trkpt lat="46.43244881182909" lon="8.431175099685788">
        <ele>2169.6900000000001</ele>
        <time>2022-01-23T11:05:20Z</time>
      </trkpt>
      <trkpt lat="46.432455852627754" lon="8.431176608428359">
        <ele>2169.2199999999998</ele>
        <time>2022-01-23T11:05:59Z</time>
      </trkpt>
      <trkpt lat="46.432468174025416" lon="8.431177027523518">
        <ele>2168.8000000000002</ele>
        <time>2022-01-23T11:06:47Z</time>
      </trkpt>
      <trkpt lat="46.432486614212394" lon="8.431172082200646">
        <ele>2169.0100000000002</ele>
        <time>2022-01-23T11:07:13Z</time>
      </trkpt>
      <trkpt lat="46.432474125176668" lon="8.431172836571932">
        <ele>2168.6900000000001</ele>
        <time>2022-01-23T11:07:58Z</time>
      </trkpt>
      <trkpt lat="46.432478483766317" lon="8.431176943704486">
        <ele>2168.8400000000001</ele>
        <time>2022-01-23T11:08:48Z</time>
      </trkpt>
      <trkpt lat="46.432475633919239" lon="8.431179625913501">
        <ele>2168.3400000000001</ele>
        <time>2022-01-23T11:09:32Z</time>
      </trkpt>
      <trkpt lat="46.43246884457767" lon="8.431176189333201">
        <ele>2168.6500000000001</ele>
        <time>2022-01-23T11:10:25Z</time>
      </trkpt>
      <trkpt lat="46.432480411604047" lon="8.431184990331531">
        <ele>2168.4200000000001</ele>
        <time>2022-01-23T11:11:19Z</time>
      </trkpt>
      <trkpt lat="46.432479154318571" lon="8.431182308122516">
        <ele>2169.02</ele>
        <time>2022-01-23T11:12:09Z</time>
      </trkpt>
      <trkpt lat="46.432481082156301" lon="8.431187756359577">
        <ele>2168.8400000000001</ele>
        <time>2022-01-23T11:12:57Z</time>
      </trkpt>
      <trkpt lat="46.432476723566651" lon="8.431181469932199">
        <ele>2168.5500000000002</ele>
        <time>2022-01-23T11:13:54Z</time>
      </trkpt>
      <trkpt lat="46.432471442967653" lon="8.431180296465755">
        <ele>2168.77</ele>
        <time>2022-01-23T11:14:43Z</time>
      </trkpt>
      <trkpt lat="46.432467419654131" lon="8.431181637570262">
        <ele>2169.0900000000001</ele>
        <time>2022-01-23T11:15:36Z</time>
      </trkpt>
      <trkpt lat="46.432471862062812" lon="8.431182978674769">
        <ele>2168.75</ele>
        <time>2022-01-23T11:16:29Z</time>
      </trkpt>
      <trkpt lat="46.432472700253129" lon="8.431185074150562">
        <ele>2168.6700000000001</ele>
        <time>2022-01-23T11:17:16Z</time>
      </trkpt>
      <trkpt lat="46.432473538443446" lon="8.431182978674769">
        <ele>2168.6399999999999</ele>
        <time>2022-01-23T11:18:00Z</time>
      </trkpt>
      <trkpt lat="46.432461803779006" lon="8.431177698075771">
        <ele>2168.3099999999999</ele>
        <time>2022-01-23T11:18:29Z</time>
      </trkpt>
      <trkpt lat="46.432465575635433" lon="8.431180212646723">
        <ele>2168.0300000000002</ele>
        <time>2022-01-23T11:18:59Z</time>
      </trkpt>
      <trkpt lat="46.432469850406051" lon="8.431177111342549">
        <ele>2167.6199999999999</ele>
        <time>2022-01-23T11:19:45Z</time>
      </trkpt>
      <trkpt lat="46.432467922568321" lon="8.431186247617006">
        <ele>2167.9099999999999</ele>
        <time>2022-01-23T11:20:23Z</time>
      </trkpt>
      <trkpt lat="46.432462558150291" lon="8.431185409426689">
        <ele>2167.5900000000001</ele>
        <time>2022-01-23T11:21:02Z</time>
      </trkpt>
      <trkpt lat="46.432452416047454" lon="8.431175854057074">
        <ele>2167.6100000000001</ele>
        <time>2022-01-23T11:21:43Z</time>
      </trkpt>
      <trkpt lat="46.432446464896202" lon="8.431178787723184">
        <ele>2167.46</ele>
        <time>2022-01-23T11:22:23Z</time>
      </trkpt>
      <trkpt lat="46.432437160983682" lon="8.431168226525188">
        <ele>2167.52</ele>
        <time>2022-01-23T11:23:00Z</time>
      </trkpt>
      <trkpt lat="46.432425593957305" lon="8.431163867935538">
        <ele>2167.3000000000002</ele>
        <time>2022-01-23T11:23:38Z</time>
      </trkpt>
      <trkpt lat="46.432415032759309" lon="8.431151546537876">
        <ele>2167.3699999999999</ele>
        <time>2022-01-23T11:24:29Z</time>
      </trkpt>
      <trkpt lat="46.432414781302214" lon="8.431163281202316">
        <ele>2167.3499999999999</ele>
        <time>2022-01-23T11:25:09Z</time>
      </trkpt>
      <trkpt lat="46.432419307529926" lon="8.431155486032367">
        <ele>2167.5599999999999</ele>
        <time>2022-01-23T11:25:54Z</time>
      </trkpt>
      <trkpt lat="46.432424085214734" lon="8.431164203211665">
        <ele>2167.4699999999998</ele>
        <time>2022-01-23T11:26:55Z</time>
      </trkpt>
      <trkpt lat="46.432428024709225" lon="8.431162359192967">
        <ele>2167.3899999999999</ele>
        <time>2022-01-23T11:28:08Z</time>
      </trkpt>
      <trkpt lat="46.432429952546954" lon="8.431166047230363">
        <ele>2167.71</ele>
        <time>2022-01-23T11:29:06Z</time>
      </trkpt>
      <trkpt lat="46.432427940890193" lon="8.431154899299145">
        <ele>2167.96</ele>
        <time>2022-01-23T11:30:03Z</time>
      </trkpt>
      <trkpt lat="46.432428611442447" lon="8.431158168241382">
        <ele>2168.23</ele>
        <time>2022-01-23T11:30:56Z</time>
      </trkpt>
      <trkpt lat="46.432424671947956" lon="8.431170573458076">
        <ele>2168.3899999999999</ele>
        <time>2022-01-23T11:31:31Z</time>
      </trkpt>
      <trkpt lat="46.432426515966654" lon="8.431173674762249">
        <ele>2164.98</ele>
        <time>2022-01-23T11:31:57Z</time>
      </trkpt>
      <trkpt lat="46.432426935061812" lon="8.431173926219344">
        <ele>2166.8000000000002</ele>
        <time>2022-01-23T11:31:58Z</time>
      </trkpt>
      <trkpt lat="46.432427521795034" lon="8.431174512952566">
        <ele>2170.6199999999999</ele>
        <time>2022-01-23T11:31:59Z</time>
      </trkpt>
      <trkpt lat="46.432427689433098" lon="8.43117518350482">
        <ele>2169.0799999999999</ele>
        <time>2022-01-23T11:32:00Z</time>
      </trkpt>
      <trkpt lat="46.432428108528256" lon="8.431175770238042">
        <ele>2168.4099999999999</ele>
        <time>2022-01-23T11:32:02Z</time>
      </trkpt>
      <trkpt lat="46.432421319186687" lon="8.431166131049395">
        <ele>2168.1599999999999</ele>
        <time>2022-01-23T11:32:41Z</time>
      </trkpt>
      <trkpt lat="46.432420983910561" lon="8.431171914562583">
        <ele>2167.75</ele>
        <time>2022-01-23T11:33:25Z</time>
      </trkpt>
      <trkpt lat="46.432417212054133" lon="8.431165544316173">
        <ele>2167.4299999999998</ele>
        <time>2022-01-23T11:34:22Z</time>
      </trkpt>
      <trkpt lat="46.432416290044785" lon="8.431160850450397">
        <ele>2167.6700000000001</ele>
        <time>2022-01-23T11:35:16Z</time>
      </trkpt>
      <trkpt lat="46.432415368035436" lon="8.431158335879445">
        <ele>2167.6799999999998</ele>
        <time>2022-01-23T11:36:12Z</time>
      </trkpt>
      <trkpt lat="46.432409919798374" lon="8.431159257888794">
        <ele>2168</ele>
        <time>2022-01-23T11:37:05Z</time>
      </trkpt>
      <trkpt lat="46.432416290044785" lon="8.431157330051065">
        <ele>2167.48</ele>
        <time>2022-01-23T11:38:05Z</time>
      </trkpt>
      <trkpt lat="46.432413691654801" lon="8.431165628135204">
        <ele>2167.5100000000002</ele>
        <time>2022-01-23T11:39:13Z</time>
      </trkpt>
      <trkpt lat="46.432422325015068" lon="8.431161856278777">
        <ele>2167.4499999999998</ele>
        <time>2022-01-23T11:40:18Z</time>
      </trkpt>
      <trkpt lat="46.432425258681178" lon="8.431162359192967">
        <ele>2167.4899999999998</ele>
        <time>2022-01-23T11:41:09Z</time>
      </trkpt>
      <trkpt lat="46.432424001395702" lon="8.431159760802984">
        <ele>2167.6100000000001</ele>
        <time>2022-01-23T11:42:03Z</time>
      </trkpt>
      <trkpt lat="46.432423163205385" lon="8.43116638250649">
        <ele>2167.7600000000002</ele>
        <time>2022-01-23T11:42:54Z</time>
      </trkpt>
      <trkpt lat="46.432419810444117" lon="8.431171244010329">
        <ele>2168.04</ele>
        <time>2022-01-23T11:43:58Z</time>
      </trkpt>
      <trkpt lat="46.432424588128924" lon="8.431165628135204">
        <ele>2168.0700000000002</ele>
        <time>2022-01-23T11:44:54Z</time>
      </trkpt>
      <trkpt lat="46.432428359985352" lon="8.431182727217674">
        <ele>2168.4200000000001</ele>
        <time>2022-01-23T11:45:53Z</time>
      </trkpt>
      <trkpt lat="46.432424588128924" lon="8.431179374456406">
        <ele>2168.6700000000001</ele>
        <time>2022-01-23T11:46:44Z</time>
      </trkpt>
      <trkpt lat="46.432421067729592" lon="8.431170741096139">
        <ele>2168.1599999999999</ele>
        <time>2022-01-23T11:47:39Z</time>
      </trkpt>
      <trkpt lat="46.432426599785686" lon="8.431172585114837">
        <ele>2168.3800000000001</ele>
        <time>2022-01-23T11:48:27Z</time>
      </trkpt>
      <trkpt lat="46.432431628927588" lon="8.43117224983871">
        <ele>2168.21</ele>
        <time>2022-01-23T11:49:16Z</time>
      </trkpt>
      <trkpt lat="46.432436155155301" lon="8.431174764409661">
        <ele>2168.23</ele>
        <time>2022-01-23T11:50:09Z</time>
      </trkpt>
      <trkpt lat="46.43243120983243" lon="8.431176356971264">
        <ele>2168.25</ele>
        <time>2022-01-23T11:51:11Z</time>
      </trkpt>
      <trkpt lat="46.432424336671829" lon="8.431176776066423">
        <ele>2168.5900000000001</ele>
        <time>2022-01-23T11:52:21Z</time>
      </trkpt>
      <trkpt lat="46.432433808222413" lon="8.431166969239712">
        <ele>2168.6500000000001</ele>
        <time>2022-01-23T11:53:32Z</time>
      </trkpt>
      <trkpt lat="46.432435065507889" lon="8.431174177676439">
        <ele>2168.6300000000001</ele>
        <time>2022-01-23T11:54:28Z</time>
      </trkpt>
      <trkpt lat="46.432440849021077" lon="8.431165041401982">
        <ele>2168.8499999999999</ele>
        <time>2022-01-23T11:55:06Z</time>
      </trkpt>
      <trkpt lat="46.432440094649792" lon="8.431163365021348">
        <ele>2168.8200000000002</ele>
        <time>2022-01-23T11:55:57Z</time>
      </trkpt>
      <trkpt lat="46.43242777325213" lon="8.43117325566709">
        <ele>2168.8200000000002</ele>
        <time>2022-01-23T11:56:54Z</time>
      </trkpt>
      <trkpt lat="46.432425258681178" lon="8.431166969239712">
        <ele>2168.8099999999999</ele>
        <time>2022-01-23T11:57:42Z</time>
      </trkpt>
      <trkpt lat="46.432415870949626" lon="8.431158000603318">
        <ele>2169.0900000000001</ele>
        <time>2022-01-23T11:58:45Z</time>
      </trkpt>
      <trkpt lat="46.432412434369326" lon="8.431159509345889">
        <ele>2169.1900000000001</ele>
        <time>2022-01-23T11:59:40Z</time>
      </trkpt>
      <trkpt lat="46.432412518188357" lon="8.431163700297475">
        <ele>2169.27</ele>
        <time>2022-01-23T12:00:33Z</time>
      </trkpt>
      <trkpt lat="46.432426180690527" lon="8.431162443011999">
        <ele>2169.1300000000001</ele>
        <time>2022-01-23T12:01:39Z</time>
      </trkpt>
      <trkpt lat="46.43243070691824" lon="8.431161185726523">
        <ele>2169.1700000000001</ele>
        <time>2022-01-23T12:02:46Z</time>
      </trkpt>
      <trkpt lat="46.432420061901212" lon="8.431152049452066">
        <ele>2169.0999999999999</ele>
        <time>2022-01-23T12:03:42Z</time>
      </trkpt>
      <trkpt lat="46.432415870949626" lon="8.431159174069762">
        <ele>2168.8400000000001</ele>
        <time>2022-01-23T12:04:18Z</time>
      </trkpt>
      <trkpt lat="46.432409919798374" lon="8.431160766631365">
        <ele>2170.48</ele>
        <time>2022-01-23T12:04:38Z</time>
      </trkpt>
      <trkpt lat="46.432409500703216" lon="8.431162023916841">
        <ele>2169.0100000000002</ele>
        <time>2022-01-23T12:04:41Z</time>
      </trkpt>
      <trkpt lat="46.432412769645452" lon="8.431185241788626">
        <ele>2168.8699999999999</ele>
        <time>2022-01-23T12:05:07Z</time>
      </trkpt>
      <trkpt lat="46.43241218291223" lon="8.431175602599978">
        <ele>2168.8899999999999</ele>
        <time>2022-01-23T12:05:54Z</time>
      </trkpt>
      <trkpt lat="46.432412685826421" lon="8.431172668933868">
        <ele>2165.8299999999999</ele>
        <time>2022-01-23T12:06:20Z</time>
      </trkpt>
      <trkpt lat="46.432413188740611" lon="8.431171663105488">
        <ele>2168.8000000000002</ele>
        <time>2022-01-23T12:06:23Z</time>
      </trkpt>
      <trkpt lat="46.432426515966654" lon="8.431157246232033">
        <ele>2169.3000000000002</ele>
        <time>2022-01-23T12:06:59Z</time>
      </trkpt>
      <trkpt lat="46.432435233145952" lon="8.431162694469094">
        <ele>2169.1100000000001</ele>
        <time>2022-01-23T12:07:16Z</time>
      </trkpt>
      <trkpt lat="46.43243070691824" lon="8.431178536266089">
        <ele>2169.9499999999998</ele>
        <time>2022-01-23T12:07:27Z</time>
      </trkpt>
      <trkpt lat="46.43242483958602" lon="8.431175099685788">
        <ele>2169.8499999999999</ele>
        <time>2022-01-23T12:07:45Z</time>
      </trkpt>
      <trkpt lat="46.43242534250021" lon="8.431185074150562">
        <ele>2169.0599999999999</ele>
        <time>2022-01-23T12:07:56Z</time>
      </trkpt>
      <trkpt lat="46.432429533451796" lon="8.431188678368926">
        <ele>2169.5799999999999</ele>
        <time>2022-01-23T12:08:08Z</time>
      </trkpt>
      <trkpt lat="46.432432383298874" lon="8.431178033351898">
        <ele>2169.5500000000002</ele>
        <time>2022-01-23T12:08:25Z</time>
      </trkpt>
      <trkpt lat="46.432429114356637" lon="8.431168226525188">
        <ele>2169.2399999999998</ele>
        <time>2022-01-23T12:08:56Z</time>
      </trkpt>
      <trkpt lat="46.43243171274662" lon="8.431176440790296">
        <ele>2169.6100000000001</ele>
        <time>2022-01-23T12:09:11Z</time>
      </trkpt>
      <trkpt lat="46.43243221566081" lon="8.431177698075771">
        <ele>2169.71</ele>
        <time>2022-01-23T12:09:33Z</time>
      </trkpt>
      <trkpt lat="46.432437496259809" lon="8.431237544864416">
        <ele>2170.1599999999999</ele>
        <time>2022-01-23T12:09:45Z</time>
      </trkpt>
      <trkpt lat="46.432459792122245" lon="8.431415660306811">
        <ele>2171.6700000000001</ele>
        <time>2022-01-23T12:10:00Z</time>
      </trkpt>
      <trkpt lat="46.432495834305882" lon="8.431601235643029">
        <ele>2174.3099999999999</ele>
        <time>2022-01-23T12:10:16Z</time>
      </trkpt>
      <trkpt lat="46.43250941298902" lon="8.431763844564557">
        <ele>2176.3200000000002</ele>
        <time>2022-01-23T12:10:30Z</time>
      </trkpt>
      <trkpt lat="46.432512681931257" lon="8.431938020512462">
        <ele>2178.96</ele>
        <time>2022-01-23T12:10:45Z</time>
      </trkpt>
      <trkpt lat="46.432515364140272" lon="8.432084284722805">
        <ele>2180.6100000000001</ele>
        <time>2022-01-23T12:10:58Z</time>
      </trkpt>
      <trkpt lat="46.432511508464813" lon="8.432245468720794">
        <ele>2182.6599999999999</ele>
        <time>2022-01-23T12:11:13Z</time>
      </trkpt>
      <trkpt lat="46.43248644657433" lon="8.432434648275375">
        <ele>2184.4699999999998</ele>
        <time>2022-01-23T12:11:30Z</time>
      </trkpt>
      <trkpt lat="46.432422157377005" lon="8.432555263862014">
        <ele>2186.0799999999999</ele>
        <time>2022-01-23T12:11:44Z</time>
      </trkpt>
      <trkpt lat="46.432332387194037" lon="8.432664899155498">
        <ele>2188.21</ele>
        <time>2022-01-23T12:12:00Z</time>
      </trkpt>
      <trkpt lat="46.432227361947298" lon="8.432715609669685">
        <ele>2190.5799999999999</ele>
        <time>2022-01-23T12:12:15Z</time>
      </trkpt>
      <trkpt lat="46.432114792987704" lon="8.432760871946812">
        <ele>2192.4299999999998</ele>
        <time>2022-01-23T12:12:30Z</time>
      </trkpt>
      <trkpt lat="46.431994596496224" lon="8.432773863896728">
        <ele>2194.1799999999998</ele>
        <time>2022-01-23T12:12:45Z</time>
      </trkpt>
      <trkpt lat="46.431863335892558" lon="8.432786604389548">
        <ele>2196.73</ele>
        <time>2022-01-23T12:13:02Z</time>
      </trkpt>
      <trkpt lat="46.431753281503916" lon="8.432792304083705">
        <ele>2199.25</ele>
        <time>2022-01-23T12:13:16Z</time>
      </trkpt>
      <trkpt lat="46.431652614846826" lon="8.432863047346473">
        <ele>2200.8200000000002</ele>
        <time>2022-01-23T12:13:30Z</time>
      </trkpt>
      <trkpt lat="46.431601736694574" lon="8.4330222196877">
        <ele>2202.0500000000002</ele>
        <time>2022-01-23T12:13:45Z</time>
      </trkpt>
      <trkpt lat="46.431602407246828" lon="8.433071253821254">
        <ele>2202.5900000000001</ele>
        <time>2022-01-23T12:13:49Z</time>
      </trkpt>
      <trkpt lat="46.431608609855175" lon="8.433218440040946">
        <ele>2204.4499999999998</ele>
        <time>2022-01-23T12:14:02Z</time>
      </trkpt>
      <trkpt lat="46.431611375883222" lon="8.433372834697366">
        <ele>2205.8699999999999</ele>
        <time>2022-01-23T12:14:16Z</time>
      </trkpt>
      <trkpt lat="46.431525042280555" lon="8.433468388393521">
        <ele>2207.5999999999999</ele>
        <time>2022-01-23T12:14:31Z</time>
      </trkpt>
      <trkpt lat="46.431402331218123" lon="8.433508621528745">
        <ele>2209.73</ele>
        <time>2022-01-23T12:14:45Z</time>
      </trkpt>
      <trkpt lat="46.431286912411451" lon="8.433460090309382">
        <ele>2210.9200000000001</ele>
        <time>2022-01-23T12:14:59Z</time>
      </trkpt>
      <trkpt lat="46.431185575202107" lon="8.433348862454295">
        <ele>2212.0999999999999</ele>
        <time>2022-01-23T12:15:14Z</time>
      </trkpt>
      <trkpt lat="46.431074179708958" lon="8.433239310979843">
        <ele>2214</ele>
        <time>2022-01-23T12:15:30Z</time>
      </trkpt>
      <trkpt lat="46.430976362898946" lon="8.433131519705057">
        <ele>2215.8299999999999</ele>
        <time>2022-01-23T12:15:45Z</time>
      </trkpt>
      <trkpt lat="46.430942080914974" lon="8.432961199432612">
        <ele>2217.5900000000001</ele>
        <time>2022-01-23T12:16:00Z</time>
      </trkpt>
      <trkpt lat="46.430882988497615" lon="8.432798590511084">
        <ele>2218.6599999999999</ele>
        <time>2022-01-23T12:16:15Z</time>
      </trkpt>
      <trkpt lat="46.430793888866901" lon="8.432687781751156">
        <ele>2220.2800000000002</ele>
        <time>2022-01-23T12:16:29Z</time>
      </trkpt>
      <trkpt lat="46.430724151432514" lon="8.432632545009255">
        <ele>2221.4099999999999</ele>
        <time>2022-01-23T12:16:39Z</time>
      </trkpt>
      <trkpt lat="46.430616863071918" lon="8.432587534189224">
        <ele>2223.0500000000002</ele>
        <time>2022-01-23T12:16:53Z</time>
      </trkpt>
      <trkpt lat="46.43059104681015" lon="8.432595580816269">
        <ele>2223.3400000000001</ele>
        <time>2022-01-23T12:16:56Z</time>
      </trkpt>
      <trkpt lat="46.430505970492959" lon="8.432684261351824">
        <ele>2224.8400000000001</ele>
        <time>2022-01-23T12:17:09Z</time>
      </trkpt>
      <trkpt lat="46.430422989651561" lon="8.43279842287302">
        <ele>2226.4099999999999</ele>
        <time>2022-01-23T12:17:23Z</time>
      </trkpt>
      <trkpt lat="46.430297764018178" lon="8.432898167520762">
        <ele>2228.4899999999998</ele>
        <time>2022-01-23T12:17:39Z</time>
      </trkpt>
      <trkpt lat="46.430187290534377" lon="8.432920798659325">
        <ele>2229.9400000000001</ele>
        <time>2022-01-23T12:17:53Z</time>
      </trkpt>
      <trkpt lat="46.430116966366768" lon="8.432812839746475">
        <ele>2231.8200000000002</ele>
        <time>2022-01-23T12:18:06Z</time>
      </trkpt>
      <trkpt lat="46.430056365206838" lon="8.432660456746817">
        <ele>2233.6599999999999</ele>
        <time>2022-01-23T12:18:21Z</time>
      </trkpt>
      <trkpt lat="46.429976485669613" lon="8.432554928585887">
        <ele>2235.0799999999999</ele>
        <time>2022-01-23T12:18:35Z</time>
      </trkpt>
      <trkpt lat="46.429878501221538" lon="8.432464487850666">
        <ele>2236.2800000000002</ele>
        <time>2022-01-23T12:18:49Z</time>
      </trkpt>
      <trkpt lat="46.429779678583145" lon="8.432378573343158">
        <ele>2237.0599999999999</ele>
        <time>2022-01-23T12:19:03Z</time>
      </trkpt>
      <trkpt lat="46.429667780175805" lon="8.432265752926469">
        <ele>2238.3600000000001</ele>
        <time>2022-01-23T12:19:18Z</time>
      </trkpt>
      <trkpt lat="46.429554456844926" lon="8.432162404060364">
        <ele>2238.2800000000002</ele>
        <time>2022-01-23T12:19:33Z</time>
      </trkpt>
      <trkpt lat="46.429454041644931" lon="8.432076657190919">
        <ele>2237.0799999999999</ele>
        <time>2022-01-23T12:19:47Z</time>
      </trkpt>
      <trkpt lat="46.429397547617555" lon="8.432040363550186">
        <ele>2236.8899999999999</ele>
        <time>2022-01-23T12:20:00Z</time>
      </trkpt>
      <trkpt lat="46.429385226219893" lon="8.432001722976565">
        <ele>2237.6999999999998</ele>
        <time>2022-01-23T12:20:12Z</time>
      </trkpt>
      <trkpt lat="46.429373994469643" lon="8.431969787925482">
        <ele>2238.23</ele>
        <time>2022-01-23T12:20:27Z</time>
      </trkpt>
      <trkpt lat="46.429355470463634" lon="8.431941289454699">
        <ele>2239.5300000000002</ele>
        <time>2022-01-23T12:20:38Z</time>
      </trkpt>
      <trkpt lat="46.429307106882334" lon="8.431921508163214">
        <ele>2238.3499999999999</ele>
        <time>2022-01-23T12:20:53Z</time>
      </trkpt>
      <trkpt lat="46.429273076355457" lon="8.431913377717137">
        <ele>2238.1799999999998</ele>
        <time>2022-01-23T12:20:57Z</time>
      </trkpt>
      <trkpt lat="46.429199818521738" lon="8.43191446736455">
        <ele>2238.0799999999999</ele>
        <time>2022-01-23T12:21:08Z</time>
      </trkpt>
      <trkpt lat="46.429155562072992" lon="8.431944223120809">
        <ele>2236.0599999999999</ele>
        <time>2022-01-23T12:21:20Z</time>
      </trkpt>
      <trkpt lat="46.429099822416902" lon="8.431931231170893">
        <ele>2234.0999999999999</ele>
        <time>2022-01-23T12:21:29Z</time>
      </trkpt>
      <trkpt lat="46.42905036918819" lon="8.431916981935501">
        <ele>2233.4899999999998</ele>
        <time>2022-01-23T12:21:35Z</time>
      </trkpt>
      <trkpt lat="46.42895607277751" lon="8.431848669424653">
        <ele>2233.6300000000001</ele>
        <time>2022-01-23T12:21:48Z</time>
      </trkpt>
      <trkpt lat="46.428874935954809" lon="8.431786308065057">
        <ele>2233.6300000000001</ele>
        <time>2022-01-23T12:22:00Z</time>
      </trkpt>
      <trkpt lat="46.428863704204559" lon="8.431730149313808">
        <ele>2235.8000000000002</ele>
        <time>2022-01-23T12:22:11Z</time>
      </trkpt>
      <trkpt lat="46.428827159106731" lon="8.431763090193272">
        <ele>2235.71</ele>
        <time>2022-01-23T12:22:23Z</time>
      </trkpt>
      <trkpt lat="46.428807461634278" lon="8.431803658604622">
        <ele>2234.9000000000001</ele>
        <time>2022-01-23T12:22:28Z</time>
      </trkpt>
      <trkpt lat="46.428740154951811" lon="8.431860571727157">
        <ele>2232.6599999999999</ele>
        <time>2022-01-23T12:22:39Z</time>
      </trkpt>
      <trkpt lat="46.428737975656986" lon="8.431973811239004">
        <ele>2229.5900000000001</ele>
        <time>2022-01-23T12:22:50Z</time>
      </trkpt>
      <trkpt lat="46.428741831332445" lon="8.43202343210578">
        <ele>2228.6500000000001</ele>
        <time>2022-01-23T12:22:54Z</time>
      </trkpt>
      <trkpt lat="46.428759768605232" lon="8.432153100147843">
        <ele>2228.25</ele>
        <time>2022-01-23T12:23:05Z</time>
      </trkpt>
      <trkpt lat="46.428730934858322" lon="8.432292239740491">
        <ele>2227.3200000000002</ele>
        <time>2022-01-23T12:23:18Z</time>
      </trkpt>
      <trkpt lat="46.428728504106402" lon="8.432284193113446">
        <ele>2227.04</ele>
        <time>2022-01-23T12:23:36Z</time>
      </trkpt>
      <trkpt lat="46.428727246820927" lon="8.432283354923129">
        <ele>2227.4400000000001</ele>
        <time>2022-01-23T12:23:53Z</time>
      </trkpt>
      <trkpt lat="46.428735544905066" lon="8.432278912514448">
        <ele>2227.0900000000001</ele>
        <time>2022-01-23T12:24:00Z</time>
      </trkpt>
      <trkpt lat="46.42872205004096" lon="8.432281091809273">
        <ele>2227.2800000000002</ele>
        <time>2022-01-23T12:24:23Z</time>
      </trkpt>
      <trkpt lat="46.428719451650977" lon="8.432280002161861">
        <ele>2227.1100000000001</ele>
        <time>2022-01-23T12:24:41Z</time>
      </trkpt>
      <trkpt lat="46.428715847432613" lon="8.43228192999959">
        <ele>2227.3899999999999</ele>
        <time>2022-01-23T12:25:05Z</time>
      </trkpt>
      <trkpt lat="46.428718026727438" lon="8.432281091809273">
        <ele>2227.27</ele>
        <time>2022-01-23T12:25:20Z</time>
      </trkpt>
      <trkpt lat="46.428714757785201" lon="8.432279415428639">
        <ele>2227.0900000000001</ele>
        <time>2022-01-23T12:25:39Z</time>
      </trkpt>
      <trkpt lat="46.428709393367171" lon="8.43228436075151">
        <ele>2228.02</ele>
        <time>2022-01-23T12:26:04Z</time>
      </trkpt>
      <trkpt lat="46.428715512156487" lon="8.432270530611277">
        <ele>2228.3800000000001</ele>
        <time>2022-01-23T12:26:18Z</time>
      </trkpt>
      <trkpt lat="46.428734203800559" lon="8.432253850623965">
        <ele>2228.46</ele>
        <time>2022-01-23T12:26:30Z</time>
      </trkpt>
      <trkpt lat="46.428762618452311" lon="8.432454010471702">
        <ele>2228</ele>
        <time>2022-01-23T12:26:45Z</time>
      </trkpt>
      <trkpt lat="46.428801929578185" lon="8.432648722082377">
        <ele>2228.4099999999999</ele>
        <time>2022-01-23T12:27:00Z</time>
      </trkpt>
      <trkpt lat="46.428849287331104" lon="8.432799093425274">
        <ele>2229.0599999999999</ele>
        <time>2022-01-23T12:27:13Z</time>
      </trkpt>
      <trkpt lat="46.428878288716078" lon="8.432913087308407">
        <ele>2229.3699999999999</ele>
        <time>2022-01-23T12:27:26Z</time>
      </trkpt>
      <trkpt lat="46.428888263180852" lon="8.432987099513412">
        <ele>2230.1999999999998</ele>
        <time>2022-01-23T12:27:43Z</time>
      </trkpt>
      <trkpt lat="46.428899830207229" lon="8.433060692623258">
        <ele>2230.5100000000002</ele>
        <time>2022-01-23T12:27:53Z</time>
      </trkpt>
      <trkpt lat="46.428916342556477" lon="8.433083323761821">
        <ele>2230.4200000000001</ele>
        <time>2022-01-23T12:27:56Z</time>
      </trkpt>
      <trkpt lat="46.428938135504723" lon="8.4331414103508">
        <ele>2230.4299999999998</ele>
        <time>2022-01-23T12:28:01Z</time>
      </trkpt>
      <trkpt lat="46.428941488265991" lon="8.433327991515398">
        <ele>2230.5500000000002</ele>
        <time>2022-01-23T12:28:16Z</time>
      </trkpt>
      <trkpt lat="46.428933274000883" lon="8.433406027033925">
        <ele>2229.1100000000001</ele>
        <time>2022-01-23T12:28:24Z</time>
      </trkpt>
      <trkpt lat="46.4289531391114" lon="8.433453384786844">
        <ele>2228.8200000000002</ele>
        <time>2022-01-23T12:28:34Z</time>
      </trkpt>
      <trkpt lat="46.428917432203889" lon="8.43337744474411">
        <ele>2229.1700000000001</ele>
        <time>2022-01-23T12:28:47Z</time>
      </trkpt>
      <trkpt lat="46.428922796621919" lon="8.433307120576501">
        <ele>2230.8299999999999</ele>
        <time>2022-01-23T12:28:57Z</time>
      </trkpt>
      <trkpt lat="46.428924640640616" lon="8.433196311816573">
        <ele>2230.6500000000001</ele>
        <time>2022-01-23T12:29:09Z</time>
      </trkpt>
      <trkpt lat="46.428922796621919" lon="8.433175189420581">
        <ele>2230.5100000000002</ele>
        <time>2022-01-23T12:29:19Z</time>
      </trkpt>
      <trkpt lat="46.428929585963488" lon="8.433177620172501">
        <ele>2229.2800000000002</ele>
        <time>2022-01-23T12:29:33Z</time>
      </trkpt>
      <trkpt lat="46.42894727177918" lon="8.433187259361148">
        <ele>2229.9200000000001</ele>
        <time>2022-01-23T12:30:17Z</time>
      </trkpt>
      <trkpt lat="46.428947690874338" lon="8.433190193027258">
        <ele>2229.5500000000002</ele>
        <time>2022-01-23T12:30:56Z</time>
      </trkpt>
      <trkpt lat="46.428946014493704" lon="8.433197736740112">
        <ele>2229.6500000000001</ele>
        <time>2022-01-23T12:31:46Z</time>
      </trkpt>
      <trkpt lat="46.428953977301717" lon="8.433200335130096">
        <ele>2229.5500000000002</ele>
        <time>2022-01-23T12:32:34Z</time>
      </trkpt>
      <trkpt lat="46.428959257900715" lon="8.433199161663652">
        <ele>2229.77</ele>
        <time>2022-01-23T12:33:22Z</time>
      </trkpt>
      <trkpt lat="46.428960934281349" lon="8.433199161663652">
        <ele>2229.8400000000001</ele>
        <time>2022-01-23T12:34:01Z</time>
      </trkpt>
      <trkpt lat="46.428970657289028" lon="8.433187091723084">
        <ele>2229.3699999999999</ele>
        <time>2022-01-23T12:34:49Z</time>
      </trkpt>
      <trkpt lat="46.428963532671332" lon="8.433191198855639">
        <ele>2229.6799999999998</ele>
        <time>2022-01-23T12:35:40Z</time>
      </trkpt>
      <trkpt lat="46.428961604833603" lon="8.433195473626256">
        <ele>2229.8099999999999</ele>
        <time>2022-01-23T12:36:37Z</time>
      </trkpt>
      <trkpt lat="46.428950875997543" lon="8.433205112814903">
        <ele>2229.5500000000002</ele>
        <time>2022-01-23T12:37:35Z</time>
      </trkpt>
      <trkpt lat="46.428958671167493" lon="8.433214416727424">
        <ele>2229.27</ele>
        <time>2022-01-23T12:38:18Z</time>
      </trkpt>
      <trkpt lat="46.428947439417243" lon="8.433232605457306">
        <ele>2229.0999999999999</ele>
        <time>2022-01-23T12:39:00Z</time>
      </trkpt>
      <trkpt lat="46.428949031978846" lon="8.433230174705386">
        <ele>2228.9499999999998</ele>
        <time>2022-01-23T12:40:03Z</time>
      </trkpt>
      <trkpt lat="46.428960599005222" lon="8.433218104764819">
        <ele>2228.77</ele>
        <time>2022-01-23T12:41:15Z</time>
      </trkpt>
      <trkpt lat="46.428958922624588" lon="8.43322305008769">
        <ele>2229.0100000000002</ele>
        <time>2022-01-23T12:42:06Z</time>
      </trkpt>
      <trkpt lat="46.428947690874338" lon="8.43322305008769">
        <ele>2228.9699999999998</ele>
        <time>2022-01-23T12:42:59Z</time>
      </trkpt>
      <trkpt lat="46.428953306749463" lon="8.433229420334101">
        <ele>2228.9000000000001</ele>
        <time>2022-01-23T12:43:48Z</time>
      </trkpt>
      <trkpt lat="46.428953893482685" lon="8.433229001238942">
        <ele>2229.0300000000002</ele>
        <time>2022-01-23T12:44:35Z</time>
      </trkpt>
      <trkpt lat="46.428948529064655" lon="8.433221206068993">
        <ele>2229.1999999999998</ele>
        <time>2022-01-23T12:45:18Z</time>
      </trkpt>
      <trkpt lat="46.428960179910064" lon="8.433217685669661">
        <ele>2229.1399999999999</ele>
        <time>2022-01-23T12:46:12Z</time>
      </trkpt>
      <trkpt lat="46.428953474387527" lon="8.433213829994202">
        <ele>2229.73</ele>
        <time>2022-01-23T12:46:56Z</time>
      </trkpt>
      <trkpt lat="46.428952803835273" lon="8.433215506374836">
        <ele>2229.1199999999999</ele>
        <time>2022-01-23T12:47:43Z</time>
      </trkpt>
      <trkpt lat="46.428960682824254" lon="8.433210980147123">
        <ele>2228.8000000000002</ele>
        <time>2022-01-23T12:48:23Z</time>
      </trkpt>
      <trkpt lat="46.428959844633937" lon="8.433210141956806">
        <ele>2228.8499999999999</ele>
        <time>2022-01-23T12:49:07Z</time>
      </trkpt>
      <trkpt lat="46.428963616490364" lon="8.433213913813233">
        <ele>2228.9499999999998</ele>
        <time>2022-01-23T12:49:48Z</time>
      </trkpt>
      <trkpt lat="46.428961018100381" lon="8.433214500546455">
        <ele>2228.6100000000001</ele>
        <time>2022-01-23T12:50:29Z</time>
      </trkpt>
      <trkpt lat="46.428961856290698" lon="8.433218104764819">
        <ele>2228.8600000000001</ele>
        <time>2022-01-23T12:51:15Z</time>
      </trkpt>
      <trkpt lat="46.42895607277751" lon="8.433218859136105">
        <ele>2228.5700000000002</ele>
        <time>2022-01-23T12:52:02Z</time>
      </trkpt>
      <trkpt lat="46.428969148546457" lon="8.433214416727424">
        <ele>2228.3099999999999</ele>
        <time>2022-01-23T12:52:57Z</time>
      </trkpt>
      <trkpt lat="46.428960766643286" lon="8.43321131542325">
        <ele>2228.3600000000001</ele>
        <time>2022-01-23T12:53:59Z</time>
      </trkpt>
      <trkpt lat="46.428959174081683" lon="8.433218523859978">
        <ele>2228.4299999999998</ele>
        <time>2022-01-23T12:55:05Z</time>
      </trkpt>
      <trkpt lat="46.428959593176842" lon="8.433215674012899">
        <ele>2228.5900000000001</ele>
        <time>2022-01-23T12:55:59Z</time>
      </trkpt>
      <trkpt lat="46.428965628147125" lon="8.433219194412231">
        <ele>2228.3800000000001</ele>
        <time>2022-01-23T12:57:06Z</time>
      </trkpt>
      <trkpt lat="46.42895607277751" lon="8.433212656527758">
        <ele>2228.2199999999998</ele>
        <time>2022-01-23T12:58:05Z</time>
      </trkpt>
      <trkpt lat="46.428961604833603" lon="8.433217601850629">
        <ele>2228.4899999999998</ele>
        <time>2022-01-23T12:58:51Z</time>
      </trkpt>
      <trkpt lat="46.428964957594872" lon="8.433221960440278">
        <ele>2228.27</ele>
        <time>2022-01-23T12:59:53Z</time>
      </trkpt>
      <trkpt lat="46.428958754986525" lon="8.43322204425931">
        <ele>2228.0100000000002</ele>
        <time>2022-01-23T13:00:58Z</time>
      </trkpt>
      <trkpt lat="46.428963616490364" lon="8.433218607679009">
        <ele>2227.73</ele>
        <time>2022-01-23T13:02:07Z</time>
      </trkpt>
      <trkpt lat="46.428957162424922" lon="8.433215171098709">
        <ele>2227.9200000000001</ele>
        <time>2022-01-23T13:03:08Z</time>
      </trkpt>
      <trkpt lat="46.428956240415573" lon="8.433215590193868">
        <ele>2227.8699999999999</ele>
        <time>2022-01-23T13:04:11Z</time>
      </trkpt>
      <trkpt lat="46.428948696702719" lon="8.433216596022248">
        <ele>2228.0500000000002</ele>
        <time>2022-01-23T13:05:12Z</time>
      </trkpt>
      <trkpt lat="46.428967053070664" lon="8.433220451697707">
        <ele>2227.96</ele>
        <time>2022-01-23T13:06:09Z</time>
      </trkpt>
      <trkpt lat="46.428956491872668" lon="8.433231264352799">
        <ele>2227.8200000000002</ele>
        <time>2022-01-23T13:07:14Z</time>
      </trkpt>
      <trkpt lat="46.428962275385857" lon="8.433230426162481">
        <ele>2227.77</ele>
        <time>2022-01-23T13:08:16Z</time>
      </trkpt>
      <trkpt lat="46.428958503529429" lon="8.433220367878676">
        <ele>2227.8299999999999</ele>
        <time>2022-01-23T13:09:26Z</time>
      </trkpt>
      <trkpt lat="46.428959593176842" lon="8.433221038430929">
        <ele>2228.02</ele>
        <time>2022-01-23T13:10:27Z</time>
      </trkpt>
      <trkpt lat="46.428955318406224" lon="8.433229755610228">
        <ele>2227.8099999999999</ele>
        <time>2022-01-23T13:11:35Z</time>
      </trkpt>
      <trkpt lat="46.428956994786859" lon="8.433229001238942">
        <ele>2227.9200000000001</ele>
        <time>2022-01-23T13:12:42Z</time>
      </trkpt>
      <trkpt lat="46.428958084434271" lon="8.433228833600879">
        <ele>2228.2199999999998</ele>
        <time>2022-01-23T13:13:39Z</time>
      </trkpt>
      <trkpt lat="46.428971411660314" lon="8.433230929076672">
        <ele>2227.96</ele>
        <time>2022-01-23T13:14:41Z</time>
      </trkpt>
      <trkpt lat="46.428959341719747" lon="8.433243250474334">
        <ele>2227.7199999999998</ele>
        <time>2022-01-23T13:15:24Z</time>
      </trkpt>
      <trkpt lat="46.428958252072334" lon="8.433248698711395">
        <ele>2227.6999999999998</ele>
        <time>2022-01-23T13:15:39Z</time>
      </trkpt>
      <trkpt lat="46.428953725844622" lon="8.433242328464985">
        <ele>2228.73</ele>
        <time>2022-01-23T13:15:48Z</time>
      </trkpt>
      <trkpt lat="46.428960766643286" lon="8.433218607679009">
        <ele>2228.6399999999999</ele>
        <time>2022-01-23T13:16:00Z</time>
      </trkpt>
      <trkpt lat="46.428958671167493" lon="8.433212656527758">
        <ele>2228.6500000000001</ele>
        <time>2022-01-23T13:16:16Z</time>
      </trkpt>
      <trkpt lat="46.428951965644956" lon="8.433211483061314">
        <ele>2228.5599999999999</ele>
        <time>2022-01-23T13:16:36Z</time>
      </trkpt>
      <trkpt lat="46.428958754986525" lon="8.433214752003551">
        <ele>2228.5799999999999</ele>
        <time>2022-01-23T13:16:53Z</time>
      </trkpt>
      <trkpt lat="46.428954312577844" lon="8.433215674012899">
        <ele>2228.6199999999999</ele>
        <time>2022-01-23T13:17:17Z</time>
      </trkpt>
      <trkpt lat="46.428949786350131" lon="8.433212907984853">
        <ele>2228.3000000000002</ele>
        <time>2022-01-23T13:17:35Z</time>
      </trkpt>
      <trkpt lat="46.428943164646626" lon="8.433208297938108">
        <ele>2228.6199999999999</ele>
        <time>2022-01-23T13:17:54Z</time>
      </trkpt>
      <trkpt lat="46.428939560428262" lon="8.433218859136105">
        <ele>2228.4400000000001</ele>
        <time>2022-01-23T13:18:24Z</time>
      </trkpt>
      <trkpt lat="46.428941236808896" lon="8.433216847479343">
        <ele>2228.4200000000001</ele>
        <time>2022-01-23T13:18:42Z</time>
      </trkpt>
      <trkpt lat="46.428936375305057" lon="8.433218523859978">
        <ele>2228.4899999999998</ele>
        <time>2022-01-23T13:19:08Z</time>
      </trkpt>
      <trkpt lat="46.4289341121912" lon="8.433197904378176">
        <ele>2228.2199999999998</ele>
        <time>2022-01-23T13:19:26Z</time>
      </trkpt>
      <trkpt lat="46.428886502981186" lon="8.433081647381187">
        <ele>2227.8099999999999</ele>
        <time>2022-01-23T13:19:38Z</time>
      </trkpt>
      <trkpt lat="46.42892288044095" lon="8.432916859164834">
        <ele>2227.6199999999999</ele>
        <time>2022-01-23T13:19:51Z</time>
      </trkpt>
      <trkpt lat="46.428934447467327" lon="8.432758608832955">
        <ele>2227.1999999999998</ele>
        <time>2022-01-23T13:20:04Z</time>
      </trkpt>
      <trkpt lat="46.42894291318953" lon="8.432629778981209">
        <ele>2227.54</ele>
        <time>2022-01-23T13:20:17Z</time>
      </trkpt>
      <trkpt lat="46.428949283435941" lon="8.432529112324119">
        <ele>2226.8899999999999</ele>
        <time>2022-01-23T13:20:28Z</time>
      </trkpt>
      <trkpt lat="46.42897023819387" lon="8.432435067370534">
        <ele>2227.2199999999998</ele>
        <time>2022-01-23T13:20:40Z</time>
      </trkpt>
      <trkpt lat="46.428983062505722" lon="8.432384273037314">
        <ele>2229.3000000000002</ele>
        <time>2022-01-23T13:20:53Z</time>
      </trkpt>
      <trkpt lat="46.428980547934771" lon="8.432328449562192">
        <ele>2232.2399999999998</ele>
        <time>2022-01-23T13:21:05Z</time>
      </trkpt>
      <trkpt lat="46.429042657837272" lon="8.432278074324131">
        <ele>2233.2399999999998</ele>
        <time>2022-01-23T13:21:16Z</time>
      </trkpt>
      <trkpt lat="46.429087165743113" lon="8.432259717956185">
        <ele>2233.0799999999999</ele>
        <time>2022-01-23T13:21:25Z</time>
      </trkpt>
      <trkpt lat="46.429090015590191" lon="8.432147987186909">
        <ele>2233.1500000000001</ele>
        <time>2022-01-23T13:21:37Z</time>
      </trkpt>
      <trkpt lat="46.429093200713396" lon="8.432117896154523">
        <ele>2232.8600000000001</ele>
        <time>2022-01-23T13:21:50Z</time>
      </trkpt>
      <trkpt lat="46.429159585386515" lon="8.432033993303776">
        <ele>2233.4200000000001</ele>
        <time>2022-01-23T13:22:03Z</time>
      </trkpt>
      <trkpt lat="46.429165871813893" lon="8.432028880342841">
        <ele>2233.3699999999999</ele>
        <time>2022-01-23T13:22:04Z</time>
      </trkpt>
      <trkpt lat="46.429256647825241" lon="8.432011948898435">
        <ele>2233.7600000000002</ele>
        <time>2022-01-23T13:22:17Z</time>
      </trkpt>
      <trkpt lat="46.429321020841599" lon="8.432036424055696">
        <ele>2235.3099999999999</ele>
        <time>2022-01-23T13:22:26Z</time>
      </trkpt>
      <trkpt lat="46.429396457970142" lon="8.432022258639336">
        <ele>2237.3499999999999</ele>
        <time>2022-01-23T13:22:39Z</time>
      </trkpt>
      <trkpt lat="46.429454293102026" lon="8.432077579200268">
        <ele>2237.0799999999999</ele>
        <time>2022-01-23T13:22:49Z</time>
      </trkpt>
      <trkpt lat="46.429503243416548" lon="8.432111777365208">
        <ele>2237.5500000000002</ele>
        <time>2022-01-23T13:22:56Z</time>
      </trkpt>
      <trkpt lat="46.429585302248597" lon="8.432173887267709">
        <ele>2238.0500000000002</ele>
        <time>2022-01-23T13:23:08Z</time>
      </trkpt>
      <trkpt lat="46.429666774347425" lon="8.432246642187238">
        <ele>2237.6599999999999</ele>
        <time>2022-01-23T13:23:21Z</time>
      </trkpt>
      <trkpt lat="46.429709857329726" lon="8.43230145983398">
        <ele>2238.5700000000002</ele>
        <time>2022-01-23T13:23:31Z</time>
      </trkpt>
      <trkpt lat="46.429722849279642" lon="8.432306656613946">
        <ele>2237.0599999999999</ele>
        <time>2022-01-23T13:23:35Z</time>
      </trkpt>
      <trkpt lat="46.429783366620541" lon="8.432369939982891">
        <ele>2237.3000000000002</ele>
        <time>2022-01-23T13:23:43Z</time>
      </trkpt>
      <trkpt lat="46.429830640554428" lon="8.432411514222622">
        <ele>2236.4499999999998</ele>
        <time>2022-01-23T13:23:58Z</time>
      </trkpt>
      <trkpt lat="46.429919321089983" lon="8.432495919987559">
        <ele>2235.1399999999999</ele>
        <time>2022-01-23T13:24:10Z</time>
      </trkpt>
      <trkpt lat="46.430038763210177" lon="8.432602034881711">
        <ele>2232.7800000000002</ele>
        <time>2022-01-23T13:24:24Z</time>
      </trkpt>
      <trkpt lat="46.430068518966436" lon="8.432633131742477">
        <ele>2232.77</ele>
        <time>2022-01-23T13:24:30Z</time>
      </trkpt>
      <trkpt lat="46.430102717131376" lon="8.432656601071358">
        <ele>2231.8099999999999</ele>
        <time>2022-01-23T13:24:33Z</time>
      </trkpt>
      <trkpt lat="46.430266667157412" lon="8.432732792571187">
        <ele>2228.5100000000002</ele>
        <time>2022-01-23T13:24:49Z</time>
      </trkpt>
      <trkpt lat="46.430286364629865" lon="8.432748299092054">
        <ele>2227.8699999999999</ele>
        <time>2022-01-23T13:24:51Z</time>
      </trkpt>
      <trkpt lat="46.430331459268928" lon="8.432772355154157">
        <ele>2227.98</ele>
        <time>2022-01-23T13:24:57Z</time>
      </trkpt>
      <trkpt lat="46.430355599150062" lon="8.432730110362172">
        <ele>2227.5799999999999</ele>
        <time>2022-01-23T13:25:01Z</time>
      </trkpt>
      <trkpt lat="46.430477304384112" lon="8.432596502825618">
        <ele>2224.3899999999999</ele>
        <time>2022-01-23T13:25:18Z</time>
      </trkpt>
      <trkpt lat="46.430493565276265" lon="8.43258585780859">
        <ele>2224.02</ele>
        <time>2022-01-23T13:25:24Z</time>
      </trkpt>
      <trkpt lat="46.430652569979429" lon="8.43250815756619">
        <ele>2221.8000000000002</ele>
        <time>2022-01-23T13:25:41Z</time>
      </trkpt>
      <trkpt lat="46.430833619087934" lon="8.432475216686726">
        <ele>2221.1199999999999</ele>
        <time>2022-01-23T13:25:59Z</time>
      </trkpt>
      <trkpt lat="46.430964963510633" lon="8.4324851911515">
        <ele>2219.98</ele>
        <time>2022-01-23T13:26:12Z</time>
      </trkpt>
      <trkpt lat="46.431051883846521" lon="8.432594910264015">
        <ele>2217.3200000000002</ele>
        <time>2022-01-23T13:26:26Z</time>
      </trkpt>
      <trkpt lat="46.431068647652864" lon="8.432579655200243">
        <ele>2216.6999999999998</ele>
        <time>2022-01-23T13:26:28Z</time>
      </trkpt>
      <trkpt lat="46.431133020669222" lon="8.432498853653669">
        <ele>2214.1100000000001</ele>
        <time>2022-01-23T13:26:38Z</time>
      </trkpt>
      <trkpt lat="46.431225892156363" lon="8.432396091520786">
        <ele>2211.4699999999998</ele>
        <time>2022-01-23T13:26:50Z</time>
      </trkpt>
      <trkpt lat="46.431298898532987" lon="8.432347141206265">
        <ele>2209.0500000000002</ele>
        <time>2022-01-23T13:26:58Z</time>
      </trkpt>
      <trkpt lat="46.431396631523967" lon="8.432311350479722">
        <ele>2206.0799999999999</ele>
        <time>2022-01-23T13:27:11Z</time>
      </trkpt>
      <trkpt lat="46.431487072259188" lon="8.432277319952846">
        <ele>2202.9400000000001</ele>
        <time>2022-01-23T13:27:22Z</time>
      </trkpt>
      <trkpt lat="46.431561084464192" lon="8.432250833138824">
        <ele>2199.6700000000001</ele>
        <time>2022-01-23T13:27:30Z</time>
      </trkpt>
      <trkpt lat="46.431652111932635" lon="8.432252928614616">
        <ele>2196.79</ele>
        <time>2022-01-23T13:27:39Z</time>
      </trkpt>
      <trkpt lat="46.431759232655168" lon="8.432226860895753">
        <ele>2193.6500000000001</ele>
        <time>2022-01-23T13:27:50Z</time>
      </trkpt>
      <trkpt lat="46.431861156597733" lon="8.432190315797925">
        <ele>2190.5999999999999</ele>
        <time>2022-01-23T13:28:01Z</time>
      </trkpt>
      <trkpt lat="46.431929972022772" lon="8.432149076834321">
        <ele>2188.46</ele>
        <time>2022-01-23T13:28:12Z</time>
      </trkpt>
      <trkpt lat="46.432008678093553" lon="8.432077830657363">
        <ele>2185.4000000000001</ele>
        <time>2022-01-23T13:28:21Z</time>
      </trkpt>
      <trkpt lat="46.432102723047137" lon="8.431972218677402">
        <ele>2182.2600000000002</ele>
        <time>2022-01-23T13:28:34Z</time>
      </trkpt>
      <trkpt lat="46.432137507945299" lon="8.43192863278091">
        <ele>2180.73</ele>
        <time>2022-01-23T13:28:44Z</time>
      </trkpt>
      <trkpt lat="46.432181848213077" lon="8.431832073256373">
        <ele>2178.3400000000001</ele>
        <time>2022-01-23T13:28:53Z</time>
      </trkpt>
      <trkpt lat="46.432214956730604" lon="8.431710954755545">
        <ele>2175.3200000000002</ele>
        <time>2022-01-23T13:29:03Z</time>
      </trkpt>
      <trkpt lat="46.432230798527598" lon="8.431630823761225">
        <ele>2174.0100000000002</ele>
        <time>2022-01-23T13:29:09Z</time>
      </trkpt>
      <trkpt lat="46.432260805740952" lon="8.431522361934185">
        <ele>2171.5599999999999</ele>
        <time>2022-01-23T13:29:18Z</time>
      </trkpt>
      <trkpt lat="46.43231444992125" lon="8.431402500718832">
        <ele>2168.5100000000002</ele>
        <time>2022-01-23T13:29:28Z</time>
      </trkpt>
      <trkpt lat="46.432397682219744" lon="8.43125288374722">
        <ele>2167.52</ele>
        <time>2022-01-23T13:29:42Z</time>
      </trkpt>
      <trkpt lat="46.432426432147622" lon="8.431201251223683">
        <ele>2167.04</ele>
        <time>2022-01-23T13:29:54Z</time>
      </trkpt>
      <trkpt lat="46.432434227317572" lon="8.43120887875557">
        <ele>2166.4699999999998</ele>
        <time>2022-01-23T13:30:05Z</time>
      </trkpt>
      <trkpt lat="46.432426599785686" lon="8.431213153526187">
        <ele>2166.6999999999998</ele>
        <time>2022-01-23T13:30:33Z</time>
      </trkpt>
      <trkpt lat="46.432423498481512" lon="8.431225055828691">
        <ele>2166.7399999999998</ele>
        <time>2022-01-23T13:31:06Z</time>
      </trkpt>
      <trkpt lat="46.432421486824751" lon="8.431223966181278">
        <ele>2166.6999999999998</ele>
        <time>2022-01-23T13:31:41Z</time>
      </trkpt>
      <trkpt lat="46.432404974475503" lon="8.431232180446386">
        <ele>2166.3899999999999</ele>
        <time>2022-01-23T13:32:12Z</time>
      </trkpt>
      <trkpt lat="46.432392569258809" lon="8.431223966181278">
        <ele>2166.3099999999999</ele>
        <time>2022-01-23T13:32:56Z</time>
      </trkpt>
      <trkpt lat="46.432388043031096" lon="8.431230084970594">
        <ele>2166.0500000000002</ele>
        <time>2022-01-23T13:33:45Z</time>
      </trkpt>
      <trkpt lat="46.432384690269828" lon="8.431232515722513">
        <ele>2166.1500000000001</ele>
        <time>2022-01-23T13:34:45Z</time>
      </trkpt>
      <trkpt lat="46.43238477408886" lon="8.431235700845718">
        <ele>2165.7800000000002</ele>
        <time>2022-01-23T13:35:33Z</time>
      </trkpt>
      <trkpt lat="46.432395754382014" lon="8.431238969787955">
        <ele>2167.0500000000002</ele>
        <time>2022-01-23T13:36:08Z</time>
      </trkpt>
      <trkpt lat="46.432405896484852" lon="8.431237628683448">
        <ele>2167.1300000000001</ele>
        <time>2022-01-23T13:36:21Z</time>
      </trkpt>
      <trkpt lat="46.432409668341279" lon="8.431230252608657">
        <ele>2166.9499999999998</ele>
        <time>2022-01-23T13:36:38Z</time>
      </trkpt>
      <trkpt lat="46.432417882606387" lon="8.431229582056403">
        <ele>2166.9699999999998</ele>
        <time>2022-01-23T13:36:52Z</time>
      </trkpt>
      <trkpt lat="46.432421067729592" lon="8.431226061657071">
        <ele>2166.8899999999999</ele>
        <time>2022-01-23T13:37:15Z</time>
      </trkpt>
      <trkpt lat="46.432421738281846" lon="8.431218601763248">
        <ele>2167.0599999999999</ele>
        <time>2022-01-23T13:37:37Z</time>
      </trkpt>
      <trkpt lat="46.432421738281846" lon="8.431220278143883">
        <ele>2164.7600000000002</ele>
        <time>2022-01-23T13:38:00Z</time>
      </trkpt>
      <trkpt lat="46.43242048099637" lon="8.43122061342001">
        <ele>2169.2600000000002</ele>
        <time>2022-01-23T13:38:03Z</time>
      </trkpt>
      <trkpt lat="46.432419894263148" lon="8.43122061342001">
        <ele>2169.0799999999999</ele>
        <time>2022-01-23T13:38:04Z</time>
      </trkpt>
      <trkpt lat="46.432419810444117" lon="8.431220026686788">
        <ele>2167.2600000000002</ele>
        <time>2022-01-23T13:38:07Z</time>
      </trkpt>
      <trkpt lat="46.432416960597038" lon="8.431225726380944">
        <ele>2166.5900000000001</ele>
        <time>2022-01-23T13:38:33Z</time>
      </trkpt>
      <trkpt lat="46.432418301701546" lon="8.431225223466754">
        <ele>2160.3000000000002</ele>
        <time>2022-01-23T13:38:43Z</time>
      </trkpt>
      <trkpt lat="46.432418636977673" lon="8.431225558742881">
        <ele>2163.3200000000002</ele>
        <time>2022-01-23T13:38:45Z</time>
      </trkpt>
      <trkpt lat="46.432418972253799" lon="8.431226229295135">
        <ele>2166.5999999999999</ele>
        <time>2022-01-23T13:38:47Z</time>
      </trkpt>
      <trkpt lat="46.432419894263148" lon="8.431225139647722">
        <ele>2171.9000000000001</ele>
        <time>2022-01-23T13:38:52Z</time>
      </trkpt>
      <trkpt lat="46.432419810444117" lon="8.431224301457405">
        <ele>2167.52</ele>
        <time>2022-01-23T13:38:54Z</time>
      </trkpt>
      <trkpt lat="46.432420061901212" lon="8.431223295629025">
        <ele>2166.7600000000002</ele>
        <time>2022-01-23T13:38:56Z</time>
      </trkpt>
      <trkpt lat="46.432425007224083" lon="8.431222876533866">
        <ele>2167.27</ele>
        <time>2022-01-23T13:39:26Z</time>
      </trkpt>
      <trkpt lat="46.432425510138273" lon="8.431230084970594">
        <ele>2167.6700000000001</ele>
        <time>2022-01-23T13:39:53Z</time>
      </trkpt>
      <trkpt lat="46.432426515966654" lon="8.431227402761579">
        <ele>2167.8800000000001</ele>
        <time>2022-01-23T13:40:22Z</time>
      </trkpt>
      <trkpt lat="46.432429784908891" lon="8.431228073313832">
        <ele>2166.0100000000002</ele>
        <time>2022-01-23T13:40:36Z</time>
      </trkpt>
      <trkpt lat="46.432429533451796" lon="8.431230504065752">
        <ele>2171.0100000000002</ele>
        <time>2022-01-23T13:40:43Z</time>
      </trkpt>
      <trkpt lat="46.432429114356637" lon="8.431230168789625">
        <ele>2169.8000000000002</ele>
        <time>2022-01-23T13:40:44Z</time>
      </trkpt>
      <trkpt lat="46.432430539280176" lon="8.431231342256069">
        <ele>2168.0999999999999</ele>
        <time>2022-01-23T13:40:47Z</time>
      </trkpt>
      <trkpt lat="46.43243120983243" lon="8.431228576228023">
        <ele>2167.9000000000001</ele>
        <time>2022-01-23T13:41:13Z</time>
      </trkpt>
      <trkpt lat="46.432457193732262" lon="8.431188426911831">
        <ele>2167.3000000000002</ele>
        <time>2022-01-23T13:41:21Z</time>
      </trkpt>
      <trkpt lat="46.43247127532959" lon="8.431168226525188">
        <ele>2167.0300000000002</ele>
        <time>2022-01-23T13:41:23Z</time>
      </trkpt>
      <trkpt lat="46.432572947815061" lon="8.431006455793977">
        <ele>2165.6700000000001</ele>
        <time>2022-01-23T13:41:36Z</time>
      </trkpt>
      <trkpt lat="46.432710578665137" lon="8.430852144956589">
        <ele>2162.79</ele>
        <time>2022-01-23T13:41:50Z</time>
      </trkpt>
      <trkpt lat="46.432807389646769" lon="8.430700097233057">
        <ele>2161</ele>
        <time>2022-01-23T13:42:01Z</time>
      </trkpt>
      <trkpt lat="46.432696580886841" lon="8.430653996765614">
        <ele>2158.9899999999998</ele>
        <time>2022-01-23T13:42:11Z</time>
      </trkpt>
      <trkpt lat="46.432555513456464" lon="8.430692302063108">
        <ele>2158.7399999999998</ele>
        <time>2022-01-23T13:42:24Z</time>
      </trkpt>
      <trkpt lat="46.432433053851128" lon="8.430570680648089">
        <ele>2158.5300000000002</ele>
        <time>2022-01-23T13:42:38Z</time>
      </trkpt>
      <trkpt lat="46.432328363880515" lon="8.430368844419718">
        <ele>2157.73</ele>
        <time>2022-01-23T13:42:54Z</time>
      </trkpt>
      <trkpt lat="46.432283436879516" lon="8.430254766717553">
        <ele>2157.23</ele>
        <time>2022-01-23T13:43:07Z</time>
      </trkpt>
      <trkpt lat="46.432258794084191" lon="8.430190309882164">
        <ele>2157.0900000000001</ele>
        <time>2022-01-23T13:43:21Z</time>
      </trkpt>
      <trkpt lat="46.432187967002392" lon="8.430080506950617">
        <ele>2156.6300000000001</ele>
        <time>2022-01-23T13:43:32Z</time>
      </trkpt>
      <trkpt lat="46.43214974552393" lon="8.430033065378666">
        <ele>2156.7800000000002</ele>
        <time>2022-01-23T13:43:41Z</time>
      </trkpt>
      <trkpt lat="46.432135412469506" lon="8.430012529715896">
        <ele>2156.6999999999998</ele>
        <time>2022-01-23T13:43:43Z</time>
      </trkpt>
      <trkpt lat="46.432022005319595" lon="8.429808262735605">
        <ele>2156.3699999999999</ele>
        <time>2022-01-23T13:44:00Z</time>
      </trkpt>
      <trkpt lat="46.431898875162005" lon="8.429634505882859">
        <ele>2156.1599999999999</ele>
        <time>2022-01-23T13:44:17Z</time>
      </trkpt>
      <trkpt lat="46.431821677833796" lon="8.42948161996901">
        <ele>2155.96</ele>
        <time>2022-01-23T13:44:30Z</time>
      </trkpt>
      <trkpt lat="46.431746492162347" lon="8.429257990792394">
        <ele>2155.5500000000002</ele>
        <time>2022-01-23T13:44:46Z</time>
      </trkpt>
      <trkpt lat="46.431683460250497" lon="8.428986417129636">
        <ele>2154.9699999999998</ele>
        <time>2022-01-23T13:45:04Z</time>
      </trkpt>
      <trkpt lat="46.431607101112604" lon="8.428756669163704">
        <ele>2154.2399999999998</ele>
        <time>2022-01-23T13:45:20Z</time>
      </trkpt>
      <trkpt lat="46.431477935984731" lon="8.4285151027143">
        <ele>2151.04</ele>
        <time>2022-01-23T13:45:38Z</time>
      </trkpt>
      <trkpt lat="46.431344076991081" lon="8.428256940096617">
        <ele>2149.1599999999999</ele>
        <time>2022-01-23T13:45:57Z</time>
      </trkpt>
      <trkpt lat="46.431230250746012" lon="8.428009925410152">
        <ele>2147.8800000000001</ele>
        <time>2022-01-23T13:46:14Z</time>
      </trkpt>
      <trkpt lat="46.431056912988424" lon="8.427893416956067">
        <ele>2145.9699999999998</ele>
        <time>2022-01-23T13:46:30Z</time>
      </trkpt>
      <trkpt lat="46.430860441178083" lon="8.427789900451899">
        <ele>2144.0999999999999</ele>
        <time>2022-01-23T13:46:47Z</time>
      </trkpt>
      <trkpt lat="46.430692216381431" lon="8.427668614313006">
        <ele>2142.4699999999998</ele>
        <time>2022-01-23T13:47:03Z</time>
      </trkpt>
      <trkpt lat="46.430617952719331" lon="8.427593093365431">
        <ele>2141.46</ele>
        <time>2022-01-23T13:47:10Z</time>
      </trkpt>
      <trkpt lat="46.430504964664578" lon="8.427464766427875">
        <ele>2139.6700000000001</ele>
        <time>2022-01-23T13:47:22Z</time>
      </trkpt>
      <trkpt lat="46.430380828678608" lon="8.427303498610854">
        <ele>2138.6700000000001</ele>
        <time>2022-01-23T13:47:36Z</time>
      </trkpt>
      <trkpt lat="46.430267505347729" lon="8.427095711231232">
        <ele>2138.4099999999999</ele>
        <time>2022-01-23T13:47:51Z</time>
      </trkpt>
      <trkpt lat="46.430184273049235" lon="8.426869567483664">
        <ele>2138.3499999999999</ele>
        <time>2022-01-23T13:48:06Z</time>
      </trkpt>
      <trkpt lat="46.430108919739723" lon="8.426654068753123">
        <ele>2138.5</ele>
        <time>2022-01-23T13:48:21Z</time>
      </trkpt>
      <trkpt lat="46.430042367428541" lon="8.426458099856973">
        <ele>2138.3400000000001</ele>
        <time>2022-01-23T13:48:34Z</time>
      </trkpt>
      <trkpt lat="46.430026357993484" lon="8.426413759589195">
        <ele>2137.9899999999998</ele>
        <time>2022-01-23T13:48:37Z</time>
      </trkpt>
      <trkpt lat="46.429995680227876" lon="8.426337651908398">
        <ele>2137.8899999999999</ele>
        <time>2022-01-23T13:48:42Z</time>
      </trkpt>
      <trkpt lat="46.42995729111135" lon="8.426287276670337">
        <ele>2137.8200000000002</ele>
        <time>2022-01-23T13:48:46Z</time>
      </trkpt>
      <trkpt lat="46.429942036047578" lon="8.426261963322759">
        <ele>2137.8299999999999</ele>
        <time>2022-01-23T13:48:48Z</time>
      </trkpt>
      <trkpt lat="46.429899204522371" lon="8.426218712702394">
        <ele>2137.5799999999999</ele>
        <time>2022-01-23T13:48:52Z</time>
      </trkpt>
      <trkpt lat="46.429873639717698" lon="8.426185352727771">
        <ele>2137.6199999999999</ele>
        <time>2022-01-23T13:48:55Z</time>
      </trkpt>
      <trkpt lat="46.429815469309688" lon="8.426145706325769">
        <ele>2137.48</ele>
        <time>2022-01-23T13:48:59Z</time>
      </trkpt>
      <trkpt lat="46.429758472368121" lon="8.426067167893052">
        <ele>2136.9699999999998</ele>
        <time>2022-01-23T13:49:06Z</time>
      </trkpt>
      <trkpt lat="46.429742965847254" lon="8.426041854545474">
        <ele>2136.6900000000001</ele>
        <time>2022-01-23T13:49:08Z</time>
      </trkpt>
      <trkpt lat="46.429692339152098" lon="8.425973374396563">
        <ele>2136.4200000000001</ele>
        <time>2022-01-23T13:49:14Z</time>
      </trkpt>
      <trkpt lat="46.429604329168797" lon="8.425755444914103">
        <ele>2135.6399999999999</ele>
        <time>2022-01-23T13:49:29Z</time>
      </trkpt>
      <trkpt lat="46.42952436581254" lon="8.425533743575215">
        <ele>2135.6700000000001</ele>
        <time>2022-01-23T13:49:44Z</time>
      </trkpt>
      <trkpt lat="46.429503746330738" lon="8.425473142415285">
        <ele>2135.6500000000001</ele>
        <time>2022-01-23T13:49:48Z</time>
      </trkpt>
      <trkpt lat="46.42942763864994" lon="8.425304833799601">
        <ele>2134.1900000000001</ele>
        <time>2022-01-23T13:50:00Z</time>
      </trkpt>
      <trkpt lat="46.429337114095688" lon="8.425125293433666">
        <ele>2132.6599999999999</ele>
        <time>2022-01-23T13:50:14Z</time>
      </trkpt>
      <trkpt lat="46.429284643381834" lon="8.425047090277076">
        <ele>2131.9200000000001</ele>
        <time>2022-01-23T13:50:22Z</time>
      </trkpt>
      <trkpt lat="46.42926293425262" lon="8.424973329529166">
        <ele>2131.1300000000001</ele>
        <time>2022-01-23T13:50:27Z</time>
      </trkpt>
      <trkpt lat="46.429223706945777" lon="8.424789095297456">
        <ele>2129.8200000000002</ele>
        <time>2022-01-23T13:50:39Z</time>
      </trkpt>
      <trkpt lat="46.429275339469314" lon="8.424578038975596">
        <ele>2128.3299999999999</ele>
        <time>2022-01-23T13:50:51Z</time>
      </trkpt>
      <trkpt lat="46.429284559562802" lon="8.424550462514162">
        <ele>2128.1799999999998</ele>
        <time>2022-01-23T13:50:53Z</time>
      </trkpt>
      <trkpt lat="46.429349267855287" lon="8.42447167262435">
        <ele>2127.71</ele>
        <time>2022-01-23T13:51:00Z</time>
      </trkpt>
      <trkpt lat="46.429345076903701" lon="8.424350637942553">
        <ele>2127.0900000000001</ele>
        <time>2022-01-23T13:51:08Z</time>
      </trkpt>
      <trkpt lat="46.429354464635253" lon="8.424299173057079">
        <ele>2127.3299999999999</ele>
        <time>2022-01-23T13:51:11Z</time>
      </trkpt>
      <trkpt lat="46.429359242320061" lon="8.42426598072052">
        <ele>2127.2800000000002</ele>
        <time>2022-01-23T13:51:13Z</time>
      </trkpt>
      <trkpt lat="46.429375922307372" lon="8.424195321276784">
        <ele>2126.9299999999998</ele>
        <time>2022-01-23T13:51:17Z</time>
      </trkpt>
      <trkpt lat="46.429378185421228" lon="8.424072861671448">
        <ele>2126.3899999999999</ele>
        <time>2022-01-23T13:51:25Z</time>
      </trkpt>
      <trkpt lat="46.429320685565472" lon="8.423805562779307">
        <ele>2124.2600000000002</ele>
        <time>2022-01-23T13:51:41Z</time>
      </trkpt>
      <trkpt lat="46.429229574277997" lon="8.423507586121559">
        <ele>2122.5599999999999</ele>
        <time>2022-01-23T13:51:59Z</time>
      </trkpt>
      <trkpt lat="46.429268633946776" lon="8.423224193975329">
        <ele>2120.4699999999998</ele>
        <time>2022-01-23T13:52:15Z</time>
      </trkpt>
      <trkpt lat="46.42923166975379" lon="8.422923199832439">
        <ele>2118.1500000000001</ele>
        <time>2022-01-23T13:52:32Z</time>
      </trkpt>
      <trkpt lat="46.429252875968814" lon="8.422740306705236">
        <ele>2116.8899999999999</ele>
        <time>2022-01-23T13:52:43Z</time>
      </trkpt>
      <trkpt lat="46.429201662540436" lon="8.422709042206407">
        <ele>2114.9099999999999</ele>
        <time>2022-01-23T13:52:48Z</time>
      </trkpt>
      <trkpt lat="46.429100828245282" lon="8.422649363055825">
        <ele>2111.8600000000001</ele>
        <time>2022-01-23T13:52:58Z</time>
      </trkpt>
      <trkpt lat="46.429026732221246" lon="8.422624887898564">
        <ele>2109.1700000000001</ele>
        <time>2022-01-23T13:53:06Z</time>
      </trkpt>
      <trkpt lat="46.429007621482015" lon="8.422632683068514">
        <ele>2108.3299999999999</ele>
        <time>2022-01-23T13:53:08Z</time>
      </trkpt>
      <trkpt lat="46.428936375305057" lon="8.422632683068514">
        <ele>2105.1700000000001</ele>
        <time>2022-01-23T13:53:17Z</time>
      </trkpt>
      <trkpt lat="46.428913660347462" lon="8.422634107992053">
        <ele>2104.1799999999998</ele>
        <time>2022-01-23T13:53:20Z</time>
      </trkpt>
      <trkpt lat="46.428853059187531" lon="8.422639891505241">
        <ele>2101.27</ele>
        <time>2022-01-23T13:53:32Z</time>
      </trkpt>
      <trkpt lat="46.428838726133108" lon="8.422650201246142">
        <ele>2100.3899999999999</ele>
        <time>2022-01-23T13:53:35Z</time>
      </trkpt>
      <trkpt lat="46.428809892386198" lon="8.422661684453487">
        <ele>2099.3299999999999</ele>
        <time>2022-01-23T13:53:38Z</time>
      </trkpt>
      <trkpt lat="46.42872934229672" lon="8.422651207074523">
        <ele>2098.8400000000001</ele>
        <time>2022-01-23T13:53:49Z</time>
      </trkpt>
      <trkpt lat="46.428699921816587" lon="8.422401007264853">
        <ele>2097.23</ele>
        <time>2022-01-23T13:54:05Z</time>
      </trkpt>
      <trkpt lat="46.428695982322097" lon="8.422200344502926">
        <ele>2095.9899999999998</ele>
        <time>2022-01-23T13:54:17Z</time>
      </trkpt>
      <trkpt lat="46.428660359233618" lon="8.421958275139332">
        <ele>2092.6700000000001</ele>
        <time>2022-01-23T13:54:32Z</time>
      </trkpt>
      <trkpt lat="46.428560363128781" lon="8.422057013958693">
        <ele>2091.1199999999999</ele>
        <time>2022-01-23T13:54:46Z</time>
      </trkpt>
      <trkpt lat="46.428557680919766" lon="8.422343507409096">
        <ele>2088.9200000000001</ele>
        <time>2022-01-23T13:55:03Z</time>
      </trkpt>
      <trkpt lat="46.428543012589216" lon="8.422658750787377">
        <ele>2086.3800000000001</ele>
        <time>2022-01-23T13:55:21Z</time>
      </trkpt>
      <trkpt lat="46.428571762517095" lon="8.422935185953975">
        <ele>2084.9099999999999</ele>
        <time>2022-01-23T13:55:37Z</time>
      </trkpt>
      <trkpt lat="46.4286492113024" lon="8.423166861757636">
        <ele>2083.1700000000001</ele>
        <time>2022-01-23T13:55:52Z</time>
      </trkpt>
      <trkpt lat="46.428732862696052" lon="8.423469448462129">
        <ele>2080.75</ele>
        <time>2022-01-23T13:56:10Z</time>
      </trkpt>
      <trkpt lat="46.428734790533781" lon="8.423520578071475">
        <ele>2080.5999999999999</ele>
        <time>2022-01-23T13:56:13Z</time>
      </trkpt>
      <trkpt lat="46.428681230172515" lon="8.423637757077813">
        <ele>2077.1799999999998</ele>
        <time>2022-01-23T13:56:25Z</time>
      </trkpt>
      <trkpt lat="46.428665304556489" lon="8.423611270263791">
        <ele>2075.8600000000001</ele>
        <time>2022-01-23T13:56:28Z</time>
      </trkpt>
      <trkpt lat="46.428638063371181" lon="8.423674805089831">
        <ele>2073.77</ele>
        <time>2022-01-23T13:56:38Z</time>
      </trkpt>
      <trkpt lat="46.428571678698063" lon="8.423708081245422">
        <ele>2070.75</ele>
        <time>2022-01-23T13:56:47Z</time>
      </trkpt>
      <trkpt lat="46.42850705422461" lon="8.423715708777309">
        <ele>2068.8800000000001</ele>
        <time>2022-01-23T13:56:56Z</time>
      </trkpt>
      <trkpt lat="46.428421307355165" lon="8.423656700178981">
        <ele>2066.6199999999999</ele>
        <time>2022-01-23T13:57:08Z</time>
      </trkpt>
      <trkpt lat="46.428369674831629" lon="8.423616047948599">
        <ele>2065.75</ele>
        <time>2022-01-23T13:57:14Z</time>
      </trkpt>
      <trkpt lat="46.428281832486391" lon="8.423541868105531">
        <ele>2063.2600000000002</ele>
        <time>2022-01-23T13:57:25Z</time>
      </trkpt>
      <trkpt lat="46.428205305710435" lon="8.423425694927573">
        <ele>2060.9699999999998</ele>
        <time>2022-01-23T13:57:37Z</time>
      </trkpt>
      <trkpt lat="46.428051497787237" lon="8.423413876444101">
        <ele>2057.6999999999998</ele>
        <time>2022-01-23T13:57:53Z</time>
      </trkpt>
      <trkpt lat="46.427974635735154" lon="8.423453103750944">
        <ele>2054.6599999999999</ele>
        <time>2022-01-23T13:58:03Z</time>
      </trkpt>
      <trkpt lat="46.427925936877728" lon="8.423487385734916">
        <ele>2051.5999999999999</ele>
        <time>2022-01-23T13:58:11Z</time>
      </trkpt>
      <trkpt lat="46.427876064553857" lon="8.423506580293179">
        <ele>2048.5700000000002</ele>
        <time>2022-01-23T13:58:19Z</time>
      </trkpt>
      <trkpt lat="46.427802974358201" lon="8.423514375463128">
        <ele>2045.4300000000001</ele>
        <time>2022-01-23T13:58:30Z</time>
      </trkpt>
      <trkpt lat="46.427750671282411" lon="8.423503562808037">
        <ele>2043.72</ele>
        <time>2022-01-23T13:58:36Z</time>
      </trkpt>
      <trkpt lat="46.427722927182913" lon="8.423536419868469">
        <ele>2042.7</ele>
        <time>2022-01-23T13:58:40Z</time>
      </trkpt>
      <trkpt lat="46.427640281617641" lon="8.423527199774981">
        <ele>2040.9300000000001</ele>
        <time>2022-01-23T13:58:51Z</time>
      </trkpt>
      <trkpt lat="46.427609771490097" lon="8.423507753759623">
        <ele>2040.1900000000001</ele>
        <time>2022-01-23T13:59:01Z</time>
      </trkpt>
      <trkpt lat="46.427561743184924" lon="8.423490570858121">
        <ele>2038.8699999999999</ele>
        <time>2022-01-23T13:59:09Z</time>
      </trkpt>
      <trkpt lat="46.427525617182255" lon="8.423467436805368">
        <ele>2037.6500000000001</ele>
        <time>2022-01-23T13:59:13Z</time>
      </trkpt>
      <trkpt lat="46.427409946918488" lon="8.423417145386338">
        <ele>2034.3299999999999</ele>
        <time>2022-01-23T13:59:25Z</time>
      </trkpt>
      <trkpt lat="46.427355213090777" lon="8.423407590016723">
        <ele>2032.8699999999999</ele>
        <time>2022-01-23T13:59:31Z</time>
      </trkpt>
      <trkpt lat="46.427292767912149" lon="8.423516973853111">
        <ele>2030.29</ele>
        <time>2022-01-23T13:59:43Z</time>
      </trkpt>
      <trkpt lat="46.427227724343538" lon="8.423557793721557">
        <ele>2027.9100000000001</ele>
        <time>2022-01-23T13:59:51Z</time>
      </trkpt>
      <trkpt lat="46.427178522571921" lon="8.423548573628068">
        <ele>2026.3800000000001</ele>
        <time>2022-01-23T13:59:56Z</time>
      </trkpt>
      <trkpt lat="46.427124962210655" lon="8.423522002995014">
        <ele>2024.51</ele>
        <time>2022-01-23T14:00:02Z</time>
      </trkpt>
      <trkpt lat="46.427089758217335" lon="8.423465508967638">
        <ele>2023.0899999999999</ele>
        <time>2022-01-23T14:00:07Z</time>
      </trkpt>
      <trkpt lat="46.427052458748221" lon="8.42340650036931">
        <ele>2020.99</ele>
        <time>2022-01-23T14:00:18Z</time>
      </trkpt>
      <trkpt lat="46.4270103815943" lon="8.42341479845345">
        <ele>2018.49</ele>
        <time>2022-01-23T14:00:28Z</time>
      </trkpt>
      <trkpt lat="46.426997473463416" lon="8.423390239477158">
        <ele>2016.6600000000001</ele>
        <time>2022-01-23T14:00:33Z</time>
      </trkpt>
      <trkpt lat="46.426968639716506" lon="8.423427790403366">
        <ele>2014.6600000000001</ele>
        <time>2022-01-23T14:00:43Z</time>
      </trkpt>
      <trkpt lat="46.426959419623017" lon="8.423500629141927">
        <ele>2012.6400000000001</ele>
        <time>2022-01-23T14:00:55Z</time>
      </trkpt>
      <trkpt lat="46.426940308883786" lon="8.423562319949269">
        <ele>2011.6199999999999</ele>
        <time>2022-01-23T14:01:05Z</time>
      </trkpt>
      <trkpt lat="46.426936453208327" lon="8.423600876703858">
        <ele>2010.52</ele>
        <time>2022-01-23T14:01:09Z</time>
      </trkpt>
      <trkpt lat="46.426894878968596" lon="8.423549411818385">
        <ele>2008.3399999999999</ele>
        <time>2022-01-23T14:01:19Z</time>
      </trkpt>
      <trkpt lat="46.42686135135591" lon="8.42350565828383">
        <ele>2006.4100000000001</ele>
        <time>2022-01-23T14:01:28Z</time>
      </trkpt>
      <trkpt lat="46.426846012473106" lon="8.423492414876819">
        <ele>2006.29</ele>
        <time>2022-01-23T14:01:29Z</time>
      </trkpt>
      <trkpt lat="46.426827237010002" lon="8.423451008275151">
        <ele>2005.22</ele>
        <time>2022-01-23T14:01:35Z</time>
      </trkpt>
      <trkpt lat="46.426793877035379" lon="8.423404740169644">
        <ele>2002.28</ele>
        <time>2022-01-23T14:01:47Z</time>
      </trkpt>
      <trkpt lat="46.426744675263762" lon="8.423381354659796">
        <ele>1999.21</ele>
        <time>2022-01-23T14:01:59Z</time>
      </trkpt>
      <trkpt lat="46.426735371351242" lon="8.423301056027412">
        <ele>1996.3800000000001</ele>
        <time>2022-01-23T14:02:09Z</time>
      </trkpt>
      <trkpt lat="46.426727492362261" lon="8.423175159841776">
        <ele>1993.28</ele>
        <time>2022-01-23T14:02:21Z</time>
      </trkpt>
      <trkpt lat="46.426708968356252" lon="8.423022022470832">
        <ele>1990.0599999999999</ele>
        <time>2022-01-23T14:02:34Z</time>
      </trkpt>
      <trkpt lat="46.426715841516852" lon="8.422897383570671">
        <ele>1987.1300000000001</ele>
        <time>2022-01-23T14:02:46Z</time>
      </trkpt>
      <trkpt lat="46.426715087145567" lon="8.422839632257819">
        <ele>1986.1600000000001</ele>
        <time>2022-01-23T14:02:50Z</time>
      </trkpt>
      <trkpt lat="46.426713913679123" lon="8.422822365537286">
        <ele>1985.8399999999999</ele>
        <time>2022-01-23T14:02:51Z</time>
      </trkpt>
      <trkpt lat="46.426714919507504" lon="8.422773750498891">
        <ele>1985.1500000000001</ele>
        <time>2022-01-23T14:02:54Z</time>
      </trkpt>
      <trkpt lat="46.426676362752914" lon="8.422643998637795">
        <ele>1982.9300000000001</ele>
        <time>2022-01-23T14:03:08Z</time>
      </trkpt>
      <trkpt lat="46.426642583683133" lon="8.422705857083201">
        <ele>1981.49</ele>
        <time>2022-01-23T14:03:15Z</time>
      </trkpt>
      <trkpt lat="46.426599081605673" lon="8.422742653638125">
        <ele>1979.78</ele>
        <time>2022-01-23T14:03:22Z</time>
      </trkpt>
      <trkpt lat="46.426555663347244" lon="8.422702588140965">
        <ele>1978.6900000000001</ele>
        <time>2022-01-23T14:03:33Z</time>
      </trkpt>
      <trkpt lat="46.42656278796494" lon="8.42269110493362">
        <ele>1978.05</ele>
        <time>2022-01-23T14:03:45Z</time>
      </trkpt>
      <trkpt lat="46.426568990573287" lon="8.422709293663502">
        <ele>1978.6199999999999</ele>
        <time>2022-01-23T14:04:13Z</time>
      </trkpt>
      <trkpt lat="46.42658919095993" lon="8.422723123803735">
        <ele>1978.95</ele>
        <time>2022-01-23T14:04:31Z</time>
      </trkpt>
      <trkpt lat="46.426602685824037" lon="8.422726225107908">
        <ele>1978.9400000000001</ele>
        <time>2022-01-23T14:04:46Z</time>
      </trkpt>
      <trkpt lat="46.426600087434053" lon="8.422745587304235">
        <ele>1978.8499999999999</ele>
        <time>2022-01-23T14:05:04Z</time>
      </trkpt>
      <trkpt lat="46.426593633368611" lon="8.422762602567673">
        <ele>1978.8099999999999</ele>
        <time>2022-01-23T14:05:26Z</time>
      </trkpt>
      <trkpt lat="46.426594806835055" lon="8.422766039147973">
        <ele>1979.1199999999999</ele>
        <time>2022-01-23T14:05:42Z</time>
      </trkpt>
      <trkpt lat="46.426590532064438" lon="8.422763608396053">
        <ele>1979.03</ele>
        <time>2022-01-23T14:06:07Z</time>
      </trkpt>
      <trkpt lat="46.426579551771283" lon="8.422753550112248">
        <ele>1979.54</ele>
        <time>2022-01-23T14:06:28Z</time>
      </trkpt>
      <trkpt lat="46.426589693874121" lon="8.422752292826772">
        <ele>1979.3199999999999</ele>
        <time>2022-01-23T14:06:48Z</time>
      </trkpt>
      <trkpt lat="46.426577037200332" lon="8.422745168209076">
        <ele>1979.3800000000001</ele>
        <time>2022-01-23T14:07:10Z</time>
      </trkpt>
      <trkpt lat="46.426575528457761" lon="8.422749945893884">
        <ele>1980.1900000000001</ele>
        <time>2022-01-23T14:07:31Z</time>
      </trkpt>
      <trkpt lat="46.426577540114522" lon="8.422752376645804">
        <ele>1980.5</ele>
        <time>2022-01-23T14:07:50Z</time>
      </trkpt>
      <trkpt lat="46.426579300314188" lon="8.422753298655152">
        <ele>1980</ele>
        <time>2022-01-23T14:08:15Z</time>
      </trkpt>
      <trkpt lat="46.426580054685473" lon="8.42275463975966">
        <ele>1980.28</ele>
        <time>2022-01-23T14:08:38Z</time>
      </trkpt>
      <trkpt lat="46.426578126847744" lon="8.422764111310244">
        <ele>1980.1500000000001</ele>
        <time>2022-01-23T14:08:58Z</time>
      </trkpt>
      <trkpt lat="46.42656228505075" lon="8.422762351110578">
        <ele>1979.01</ele>
        <time>2022-01-23T14:09:11Z</time>
      </trkpt>
      <trkpt lat="46.426547532901168" lon="8.422753382474184">
        <ele>1979.5599999999999</ele>
        <time>2022-01-23T14:09:30Z</time>
      </trkpt>
      <trkpt lat="46.426524231210351" lon="8.422725386917591">
        <ele>1979.0799999999999</ele>
        <time>2022-01-23T14:09:34Z</time>
      </trkpt>
      <trkpt lat="46.426515178754926" lon="8.422714155167341">
        <ele>1978.79</ele>
        <time>2022-01-23T14:09:35Z</time>
      </trkpt>
      <trkpt lat="46.426503947004676" lon="8.422685572877526">
        <ele>1978.0699999999999</ele>
        <time>2022-01-23T14:09:37Z</time>
      </trkpt>
      <trkpt lat="46.426500510424376" lon="8.422668557614088">
        <ele>1977.75</ele>
        <time>2022-01-23T14:09:38Z</time>
      </trkpt>
      <trkpt lat="46.426447201520205" lon="8.422438809648156">
        <ele>1975.1199999999999</ele>
        <time>2022-01-23T14:09:51Z</time>
      </trkpt>
      <trkpt lat="46.426449716091156" lon="8.422204283997417">
        <ele>1972.5899999999999</ele>
        <time>2022-01-23T14:10:04Z</time>
      </trkpt>
      <trkpt lat="46.426462037488818" lon="8.422171678394079">
        <ele>1972.3599999999999</ele>
        <time>2022-01-23T14:10:06Z</time>
      </trkpt>
      <trkpt lat="46.426471928134561" lon="8.422160865738988">
        <ele>1972.2</ele>
        <time>2022-01-23T14:10:07Z</time>
      </trkpt>
      <trkpt lat="46.426500426605344" lon="8.422122308984399">
        <ele>1971.9300000000001</ele>
        <time>2022-01-23T14:10:11Z</time>
      </trkpt>
      <trkpt lat="46.426507132127881" lon="8.422108814120293">
        <ele>1971.3</ele>
        <time>2022-01-23T14:10:12Z</time>
      </trkpt>
      <trkpt lat="46.426515430212021" lon="8.422096157446504">
        <ele>1970.7</ele>
        <time>2022-01-23T14:10:13Z</time>
      </trkpt>
      <trkpt lat="46.426527416333556" lon="8.422052320092917">
        <ele>1968.8</ele>
        <time>2022-01-23T14:10:17Z</time>
      </trkpt>
      <trkpt lat="46.426526661962271" lon="8.422036729753017">
        <ele>1968.5599999999999</ele>
        <time>2022-01-23T14:10:18Z</time>
      </trkpt>
      <trkpt lat="46.426508305594325" lon="8.42192055657506">
        <ele>1965.3099999999999</ele>
        <time>2022-01-23T14:10:25Z</time>
      </trkpt>
      <trkpt lat="46.426468156278133" lon="8.421814441680908">
        <ele>1962.73</ele>
        <time>2022-01-23T14:10:36Z</time>
      </trkpt>
      <trkpt lat="46.426420798525214" lon="8.421828942373395">
        <ele>1960.74</ele>
        <time>2022-01-23T14:10:42Z</time>
      </trkpt>
      <trkpt lat="46.426407806575298" lon="8.421832881867886">
        <ele>1960.26</ele>
        <time>2022-01-23T14:10:43Z</time>
      </trkpt>
      <trkpt lat="46.426398251205683" lon="8.421840593218803">
        <ele>1960.0899999999999</ele>
        <time>2022-01-23T14:10:44Z</time>
      </trkpt>
      <trkpt lat="46.426391713321209" lon="8.421852411702275">
        <ele>1960.1199999999999</ele>
        <time>2022-01-23T14:10:45Z</time>
      </trkpt>
      <trkpt lat="46.426386097446084" lon="8.421866577118635">
        <ele>1959.9300000000001</ele>
        <time>2022-01-23T14:10:46Z</time>
      </trkpt>
      <trkpt lat="46.426380481570959" lon="8.421881245449185">
        <ele>1959.78</ele>
        <time>2022-01-23T14:10:47Z</time>
      </trkpt>
      <trkpt lat="46.426374446600676" lon="8.42189566232264">
        <ele>1959.5699999999999</ele>
        <time>2022-01-23T14:10:48Z</time>
      </trkpt>
      <trkpt lat="46.426339074969292" lon="8.421988030895591">
        <ele>1958.9100000000001</ele>
        <time>2022-01-23T14:10:54Z</time>
      </trkpt>
      <trkpt lat="46.426330441609025" lon="8.421999178826809">
        <ele>1958.9100000000001</ele>
        <time>2022-01-23T14:10:55Z</time>
      </trkpt>
      <trkpt lat="46.42632239498198" lon="8.422013260424137">
        <ele>1958.8099999999999</ele>
        <time>2022-01-23T14:10:56Z</time>
      </trkpt>
      <trkpt lat="46.426313510164618" lon="8.422025330364704">
        <ele>1958.6600000000001</ele>
        <time>2022-01-23T14:10:57Z</time>
      </trkpt>
      <trkpt lat="46.426303954795003" lon="8.422038406133652">
        <ele>1958.6500000000001</ele>
        <time>2022-01-23T14:10:58Z</time>
      </trkpt>
      <trkpt lat="46.426296578720212" lon="8.422053577378392">
        <ele>1958.48</ele>
        <time>2022-01-23T14:10:59Z</time>
      </trkpt>
      <trkpt lat="46.426288364455104" lon="8.422064809128642">
        <ele>1958.5</ele>
        <time>2022-01-23T14:11:00Z</time>
      </trkpt>
      <trkpt lat="46.426279982551932" lon="8.422077130526304">
        <ele>1958.53</ele>
        <time>2022-01-23T14:11:01Z</time>
      </trkpt>
      <trkpt lat="46.426271852105856" lon="8.422089368104935">
        <ele>1958.3199999999999</ele>
        <time>2022-01-23T14:11:02Z</time>
      </trkpt>
      <trkpt lat="46.426263973116875" lon="8.422100935131311">
        <ele>1957.9300000000001</ele>
        <time>2022-01-23T14:11:03Z</time>
      </trkpt>
      <trkpt lat="46.426257099956274" lon="8.422114765271545">
        <ele>1957.75</ele>
        <time>2022-01-23T14:11:04Z</time>
      </trkpt>
      <trkpt lat="46.426250310614705" lon="8.42212968505919">
        <ele>1957.73</ele>
        <time>2022-01-23T14:11:05Z</time>
      </trkpt>
      <trkpt lat="46.42618166282773" lon="8.422282906249166">
        <ele>1956.6500000000001</ele>
        <time>2022-01-23T14:11:15Z</time>
      </trkpt>
      <trkpt lat="46.426177220419049" lon="8.422301765531302">
        <ele>1956.5799999999999</ele>
        <time>2022-01-23T14:11:16Z</time>
      </trkpt>
      <trkpt lat="46.426171017810702" lon="8.422317355871201">
        <ele>1956.4300000000001</ele>
        <time>2022-01-23T14:11:17Z</time>
      </trkpt>
      <trkpt lat="46.426165066659451" lon="8.42233344912529">
        <ele>1956.3199999999999</ele>
        <time>2022-01-23T14:11:18Z</time>
      </trkpt>
      <trkpt lat="46.42616163007915" lon="8.422351973131299">
        <ele>1956.21</ele>
        <time>2022-01-23T14:11:19Z</time>
      </trkpt>
      <trkpt lat="46.426158109679818" lon="8.422369156032801">
        <ele>1956.1800000000001</ele>
        <time>2022-01-23T14:11:20Z</time>
      </trkpt>
      <trkpt lat="46.426153499633074" lon="8.422386171296239">
        <ele>1956.1300000000001</ele>
        <time>2022-01-23T14:11:21Z</time>
      </trkpt>
      <trkpt lat="46.426125336438417" lon="8.422461105510593">
        <ele>1955.46</ele>
        <time>2022-01-23T14:11:26Z</time>
      </trkpt>
      <trkpt lat="46.426119720563293" lon="8.422474600374699">
        <ele>1955.45</ele>
        <time>2022-01-23T14:11:27Z</time>
      </trkpt>
      <trkpt lat="46.426115948706865" lon="8.422492370009422">
        <ele>1955.3299999999999</ele>
        <time>2022-01-23T14:11:28Z</time>
      </trkpt>
      <trkpt lat="46.426111925393343" lon="8.422510391101241">
        <ele>1955.1199999999999</ele>
        <time>2022-01-23T14:11:29Z</time>
      </trkpt>
      <trkpt lat="46.426106812432408" lon="8.422526568174362">
        <ele>1955.05</ele>
        <time>2022-01-23T14:11:30Z</time>
      </trkpt>
      <trkpt lat="46.426052581518888" lon="8.422746593132615">
        <ele>1953.71</ele>
        <time>2022-01-23T14:11:43Z</time>
      </trkpt>
      <trkpt lat="46.425955519080162" lon="8.423016155138612">
        <ele>1950.6900000000001</ele>
        <time>2022-01-23T14:12:00Z</time>
      </trkpt>
      <trkpt lat="46.425798023119569" lon="8.423051191493869">
        <ele>1949.0999999999999</ele>
        <time>2022-01-23T14:12:13Z</time>
      </trkpt>
      <trkpt lat="46.425760304555297" lon="8.423038451001048">
        <ele>1948.8800000000001</ele>
        <time>2022-01-23T14:12:25Z</time>
      </trkpt>
      <trkpt lat="46.425717724487185" lon="8.423018585890532">
        <ele>1947.9300000000001</ele>
        <time>2022-01-23T14:12:39Z</time>
      </trkpt>
      <trkpt lat="46.425709677860141" lon="8.423013221472502">
        <ele>1947.98</ele>
        <time>2022-01-23T14:12:40Z</time>
      </trkpt>
      <trkpt lat="46.425607837736607" lon="8.422934515401721">
        <ele>1944.79</ele>
        <time>2022-01-23T14:12:53Z</time>
      </trkpt>
      <trkpt lat="46.425510523840785" lon="8.422911213710904">
        <ele>1941.4400000000001</ele>
        <time>2022-01-23T14:13:05Z</time>
      </trkpt>
      <trkpt lat="46.425494765862823" lon="8.422916242852807">
        <ele>1940.6099999999999</ele>
        <time>2022-01-23T14:13:07Z</time>
      </trkpt>
      <trkpt lat="46.42543843947351" lon="8.422932084649801">
        <ele>1938.7</ele>
        <time>2022-01-23T14:13:13Z</time>
      </trkpt>
      <trkpt lat="46.425427962094545" lon="8.42293300665915">
        <ele>1938.3199999999999</ele>
        <time>2022-01-23T14:13:14Z</time>
      </trkpt>
      <trkpt lat="46.42535537481308" lon="8.422934683039784">
        <ele>1936.1700000000001</ele>
        <time>2022-01-23T14:13:22Z</time>
      </trkpt>
      <trkpt lat="46.425303407013416" lon="8.422938035801053">
        <ele>1934.8699999999999</ele>
        <time>2022-01-23T14:13:27Z</time>
      </trkpt>
      <trkpt lat="46.425292678177357" lon="8.422940047457814">
        <ele>1934.6600000000001</ele>
        <time>2022-01-23T14:13:28Z</time>
      </trkpt>
      <trkpt lat="46.425281278789043" lon="8.422940634191036">
        <ele>1934.53</ele>
        <time>2022-01-23T14:13:29Z</time>
      </trkpt>
      <trkpt lat="46.425272226333618" lon="8.422939712181687">
        <ele>1934.25</ele>
        <time>2022-01-23T14:13:30Z</time>
      </trkpt>
      <trkpt lat="46.425268035382032" lon="8.422920349985361">
        <ele>1933.6800000000001</ele>
        <time>2022-01-23T14:13:32Z</time>
      </trkpt>
      <trkpt lat="46.425268035382032" lon="8.422817587852478">
        <ele>1930.6300000000001</ele>
        <time>2022-01-23T14:13:41Z</time>
      </trkpt>
      <trkpt lat="46.425264347344637" lon="8.42280451208353">
        <ele>1930.04</ele>
        <time>2022-01-23T14:13:42Z</time>
      </trkpt>
      <trkpt lat="46.425251606851816" lon="8.422692110762">
        <ele>1927.1600000000001</ele>
        <time>2022-01-23T14:13:50Z</time>
      </trkpt>
      <trkpt lat="46.425255546346307" lon="8.422677610069513">
        <ele>1926.8699999999999</ele>
        <time>2022-01-23T14:13:51Z</time>
      </trkpt>
      <trkpt lat="46.425259569659829" lon="8.422662606462836">
        <ele>1926.4400000000001</ele>
        <time>2022-01-23T14:13:52Z</time>
      </trkpt>
      <trkpt lat="46.425292091444135" lon="8.422503685578704">
        <ele>1923.6700000000001</ele>
        <time>2022-01-23T14:14:03Z</time>
      </trkpt>
      <trkpt lat="46.425288990139961" lon="8.42248784378171">
        <ele>1923.3199999999999</ele>
        <time>2022-01-23T14:14:04Z</time>
      </trkpt>
      <trkpt lat="46.425247834995389" lon="8.422358930110931">
        <ele>1920.1800000000001</ele>
        <time>2022-01-23T14:14:13Z</time>
      </trkpt>
      <trkpt lat="46.425255462527275" lon="8.422270836308599">
        <ele>1917.02</ele>
        <time>2022-01-23T14:14:21Z</time>
      </trkpt>
      <trkpt lat="46.425210786983371" lon="8.422230519354343">
        <ele>1915.5599999999999</ele>
        <time>2022-01-23T14:14:27Z</time>
      </trkpt>
      <trkpt lat="46.425200561061502" lon="8.422223730012775">
        <ele>1915.3199999999999</ele>
        <time>2022-01-23T14:14:28Z</time>
      </trkpt>
      <trkpt lat="46.425177846103907" lon="8.422190034762025">
        <ele>1913.6600000000001</ele>
        <time>2022-01-23T14:14:32Z</time>
      </trkpt>
      <trkpt lat="46.425167368724942" lon="8.422054583206773">
        <ele>1910.5</ele>
        <time>2022-01-23T14:14:43Z</time>
      </trkpt>
      <trkpt lat="46.425197878852487" lon="8.42190052382648">
        <ele>1907.4100000000001</ele>
        <time>2022-01-23T14:14:57Z</time>
      </trkpt>
      <trkpt lat="46.425152197480202" lon="8.421918461099267">
        <ele>1905.3699999999999</ele>
        <time>2022-01-23T14:15:05Z</time>
      </trkpt>
      <trkpt lat="46.425106097012758" lon="8.421873282641172">
        <ele>1902.72</ele>
        <time>2022-01-23T14:15:15Z</time>
      </trkpt>
      <trkpt lat="46.425050692632794" lon="8.421923406422138">
        <ele>1901.9200000000001</ele>
        <time>2022-01-23T14:15:23Z</time>
      </trkpt>
      <trkpt lat="46.425041807815433" lon="8.421863056719303">
        <ele>1899.9200000000001</ele>
        <time>2022-01-23T14:15:31Z</time>
      </trkpt>
      <trkpt lat="46.425093021243811" lon="8.421726683154702">
        <ele>1897.4100000000001</ele>
        <time>2022-01-23T14:15:43Z</time>
      </trkpt>
      <trkpt lat="46.425047088414431" lon="8.421682845801115">
        <ele>1894.5599999999999</ele>
        <time>2022-01-23T14:15:53Z</time>
      </trkpt>
      <trkpt lat="46.424998054280877" lon="8.421677062287927">
        <ele>1893.6400000000001</ele>
        <time>2022-01-23T14:15:58Z</time>
      </trkpt>
      <trkpt lat="46.424899566918612" lon="8.421656023710966">
        <ele>1890.47</ele>
        <time>2022-01-23T14:16:10Z</time>
      </trkpt>
      <trkpt lat="46.424880707636476" lon="8.421627944335342">
        <ele>1890.3099999999999</ele>
        <time>2022-01-23T14:16:20Z</time>
      </trkpt>
      <trkpt lat="46.424869978800416" lon="8.421599194407463">
        <ele>1889.5999999999999</ele>
        <time>2022-01-23T14:16:37Z</time>
      </trkpt>
      <trkpt lat="46.424829829484224" lon="8.421574383974075">
        <ele>1888.6900000000001</ele>
        <time>2022-01-23T14:16:43Z</time>
      </trkpt>
      <trkpt lat="46.424819687381387" lon="8.421578239649534">
        <ele>1888.47</ele>
        <time>2022-01-23T14:16:44Z</time>
      </trkpt>
      <trkpt lat="46.424808371812105" lon="8.42158293351531">
        <ele>1888.1700000000001</ele>
        <time>2022-01-23T14:16:45Z</time>
      </trkpt>
      <trkpt lat="46.424694629386067" lon="8.42159173451364">
        <ele>1887.1099999999999</ele>
        <time>2022-01-23T14:16:56Z</time>
      </trkpt>
      <trkpt lat="46.424686247482896" lon="8.421598691493273">
        <ele>1887</ele>
        <time>2022-01-23T14:16:57Z</time>
      </trkpt>
      <trkpt lat="46.424651211127639" lon="8.421634985134006">
        <ele>1886.5899999999999</ele>
        <time>2022-01-23T14:17:01Z</time>
      </trkpt>
      <trkpt lat="46.42464148811996" lon="8.42163615860045">
        <ele>1886.23</ele>
        <time>2022-01-23T14:17:02Z</time>
      </trkpt>
      <trkpt lat="46.424607960507274" lon="8.42161662876606">
        <ele>1884.99</ele>
        <time>2022-01-23T14:17:11Z</time>
      </trkpt>
      <trkpt lat="46.424612738192081" lon="8.42160732485354">
        <ele>1885.02</ele>
        <time>2022-01-23T14:17:30Z</time>
      </trkpt>
      <trkpt lat="46.424586838111281" lon="8.42164202593267">
        <ele>1884.23</ele>
        <time>2022-01-23T14:17:42Z</time>
      </trkpt>
      <trkpt lat="46.424580467864871" lon="8.421655017882586">
        <ele>1884.0599999999999</ele>
        <time>2022-01-23T14:17:43Z</time>
      </trkpt>
      <trkpt lat="46.424574768170714" lon="8.42166893184185">
        <ele>1883.9000000000001</ele>
        <time>2022-01-23T14:17:44Z</time>
      </trkpt>
      <trkpt lat="46.42456722445786" lon="8.421679241582751">
        <ele>1883.75</ele>
        <time>2022-01-23T14:17:45Z</time>
      </trkpt>
      <trkpt lat="46.42450176179409" lon="8.421736406162381">
        <ele>1880.6400000000001</ele>
        <time>2022-01-23T14:17:55Z</time>
      </trkpt>
      <trkpt lat="46.424440992996097" lon="8.421778148040175">
        <ele>1878.1800000000001</ele>
        <time>2022-01-23T14:18:05Z</time>
      </trkpt>
      <trkpt lat="46.424391539767385" lon="8.421782171353698">
        <ele>1875.6900000000001</ele>
        <time>2022-01-23T14:18:14Z</time>
      </trkpt>
      <trkpt lat="46.424362035468221" lon="8.421776555478573">
        <ele>1874.8900000000001</ele>
        <time>2022-01-23T14:18:18Z</time>
      </trkpt>
      <trkpt lat="46.424333034083247" lon="8.42178669758141">
        <ele>1874.0599999999999</ele>
        <time>2022-01-23T14:18:21Z</time>
      </trkpt>
      <trkpt lat="46.424227505922318" lon="8.421760462224484">
        <ele>1871.1700000000001</ele>
        <time>2022-01-23T14:18:33Z</time>
      </trkpt>
      <trkpt lat="46.424217615276575" lon="8.421739926561713">
        <ele>1870.9100000000001</ele>
        <time>2022-01-23T14:18:35Z</time>
      </trkpt>
      <trkpt lat="46.424208395183086" lon="8.421658203005791">
        <ele>1869.6199999999999</ele>
        <time>2022-01-23T14:18:41Z</time>
      </trkpt>
      <trkpt lat="46.424189284443855" lon="8.421518476679921">
        <ele>1866.9300000000001</ele>
        <time>2022-01-23T14:18:53Z</time>
      </trkpt>
      <trkpt lat="46.424122815951705" lon="8.421519147232175">
        <ele>1864.27</ele>
        <time>2022-01-23T14:19:03Z</time>
      </trkpt>
      <trkpt lat="46.424133544787765" lon="8.421445805579424">
        <ele>1862.02</ele>
        <time>2022-01-23T14:19:12Z</time>
      </trkpt>
      <trkpt lat="46.424118541181087" lon="8.421380762010813">
        <ele>1859.23</ele>
        <time>2022-01-23T14:19:21Z</time>
      </trkpt>
      <trkpt lat="46.424107728525996" lon="8.421377828344703">
        <ele>1859.02</ele>
        <time>2022-01-23T14:19:22Z</time>
      </trkpt>
      <trkpt lat="46.4240678306669" lon="8.421313455328345">
        <ele>1856.6300000000001</ele>
        <time>2022-01-23T14:19:32Z</time>
      </trkpt>
      <trkpt lat="46.424113092944026" lon="8.421261655166745">
        <ele>1853.96</ele>
        <time>2022-01-23T14:19:42Z</time>
      </trkpt>
      <trkpt lat="46.424051905050874" lon="8.421228462830186">
        <ele>1851.3699999999999</ele>
        <time>2022-01-23T14:19:54Z</time>
      </trkpt>
      <trkpt lat="46.42407076433301" lon="8.421165514737368">
        <ele>1848.6700000000001</ele>
        <time>2022-01-23T14:20:04Z</time>
      </trkpt>
      <trkpt lat="46.424049725756049" lon="8.421098291873932">
        <ele>1846.45</ele>
        <time>2022-01-23T14:20:12Z</time>
      </trkpt>
      <trkpt lat="46.423993818461895" lon="8.421075912192464">
        <ele>1843.97</ele>
        <time>2022-01-23T14:20:22Z</time>
      </trkpt>
      <trkpt lat="46.423913268372416" lon="8.421041714027524">
        <ele>1841.05</ele>
        <time>2022-01-23T14:20:35Z</time>
      </trkpt>
      <trkpt lat="46.423863396048546" lon="8.42109183780849">
        <ele>1840.1700000000001</ele>
        <time>2022-01-23T14:20:44Z</time>
      </trkpt>
      <trkpt lat="46.423822408542037" lon="8.421101476997137">
        <ele>1838.29</ele>
        <time>2022-01-23T14:20:51Z</time>
      </trkpt>
      <trkpt lat="46.423761723563075" lon="8.421070883050561">
        <ele>1838.26</ele>
        <time>2022-01-23T14:21:02Z</time>
      </trkpt>
      <trkpt lat="46.423671785742044" lon="8.421063423156738">
        <ele>1837.95</ele>
        <time>2022-01-23T14:21:15Z</time>
      </trkpt>
      <trkpt lat="46.42360313795507" lon="8.421081025153399">
        <ele>1835.6600000000001</ele>
        <time>2022-01-23T14:21:26Z</time>
      </trkpt>
      <trkpt lat="46.423538764938712" lon="8.421077420935035">
        <ele>1832.6400000000001</ele>
        <time>2022-01-23T14:21:36Z</time>
      </trkpt>
      <trkpt lat="46.423504734411836" lon="8.421052945777774">
        <ele>1831.3699999999999</ele>
        <time>2022-01-23T14:21:41Z</time>
      </trkpt>
      <trkpt lat="46.423493335023522" lon="8.421050095930696">
        <ele>1830.95</ele>
        <time>2022-01-23T14:21:42Z</time>
      </trkpt>
      <trkpt lat="46.423406163230538" lon="8.421054370701313">
        <ele>1831.6700000000001</ele>
        <time>2022-01-23T14:21:54Z</time>
      </trkpt>
      <trkpt lat="46.423346400260925" lon="8.421079348772764">
        <ele>1829.26</ele>
        <time>2022-01-23T14:22:03Z</time>
      </trkpt>
      <trkpt lat="46.423260485753417" lon="8.421110110357404">
        <ele>1825.95</ele>
        <time>2022-01-23T14:22:14Z</time>
      </trkpt>
      <trkpt lat="46.423179600387812" lon="8.421116899698973">
        <ele>1823.5599999999999</ele>
        <time>2022-01-23T14:22:23Z</time>
      </trkpt>
      <trkpt lat="46.423186808824539" lon="8.421060824766755">
        <ele>1821.98</ele>
        <time>2022-01-23T14:22:32Z</time>
      </trkpt>
      <trkpt lat="46.423194017261267" lon="8.421037523075938">
        <ele>1821.0699999999999</ele>
        <time>2022-01-23T14:22:34Z</time>
      </trkpt>
      <trkpt lat="46.423197370022535" lon="8.421022100374103">
        <ele>1820.74</ele>
        <time>2022-01-23T14:22:35Z</time>
      </trkpt>
      <trkpt lat="46.423252271488309" lon="8.420878686010838">
        <ele>1817.72</ele>
        <time>2022-01-23T14:22:49Z</time>
      </trkpt>
      <trkpt lat="46.423258809372783" lon="8.420867118984461">
        <ele>1817.48</ele>
        <time>2022-01-23T14:22:50Z</time>
      </trkpt>
      <trkpt lat="46.42336810939014" lon="8.420778689906001">
        <ele>1814.8299999999999</ele>
        <time>2022-01-23T14:23:03Z</time>
      </trkpt>
      <trkpt lat="46.423344640061259" lon="8.420754969120026">
        <ele>1813.5699999999999</ele>
        <time>2022-01-23T14:23:08Z</time>
      </trkpt>
      <trkpt lat="46.423333240672946" lon="8.420748934149742">
        <ele>1813.0899999999999</ele>
        <time>2022-01-23T14:23:09Z</time>
      </trkpt>
      <trkpt lat="46.423341371119022" lon="8.420703923329711">
        <ele>1811.3199999999999</ele>
        <time>2022-01-23T14:23:18Z</time>
      </trkpt>
      <trkpt lat="46.423353776335716" lon="8.42063058167696">
        <ele>1808.01</ele>
        <time>2022-01-23T14:23:28Z</time>
      </trkpt>
      <trkpt lat="46.423318656161427" lon="8.420610800385475">
        <ele>1807.1400000000001</ele>
        <time>2022-01-23T14:23:32Z</time>
      </trkpt>
      <trkpt lat="46.423308262601495" lon="8.420602837577462">
        <ele>1806.99</ele>
        <time>2022-01-23T14:23:33Z</time>
      </trkpt>
      <trkpt lat="46.423245398327708" lon="8.420567801222205">
        <ele>1805.23</ele>
        <time>2022-01-23T14:23:40Z</time>
      </trkpt>
      <trkpt lat="46.423247242346406" lon="8.420546846464276">
        <ele>1804.9000000000001</ele>
        <time>2022-01-23T14:23:42Z</time>
      </trkpt>
      <trkpt lat="46.423256546258926" lon="8.420540727674961">
        <ele>1804.6900000000001</ele>
        <time>2022-01-23T14:23:43Z</time>
      </trkpt>
      <trkpt lat="46.423266688361764" lon="8.42053578235209">
        <ele>1804.48</ele>
        <time>2022-01-23T14:23:44Z</time>
      </trkpt>
      <trkpt lat="46.423265933990479" lon="8.420477276667953">
        <ele>1801.6900000000001</ele>
        <time>2022-01-23T14:23:56Z</time>
      </trkpt>
      <trkpt lat="46.423254115507007" lon="8.420471828430891">
        <ele>1801.4000000000001</ele>
        <time>2022-01-23T14:23:57Z</time>
      </trkpt>
      <trkpt lat="46.423236345872283" lon="8.42045615427196">
        <ele>1800.5899999999999</ele>
        <time>2022-01-23T14:23:59Z</time>
      </trkpt>
      <trkpt lat="46.423153365030885" lon="8.420404018834233">
        <ele>1797.6500000000001</ele>
        <time>2022-01-23T14:24:09Z</time>
      </trkpt>
      <trkpt lat="46.42304708249867" lon="8.420381974428892">
        <ele>1794.6099999999999</ele>
        <time>2022-01-23T14:24:22Z</time>
      </trkpt>
      <trkpt lat="46.423020511865616" lon="8.420361606404185">
        <ele>1793.3</ele>
        <time>2022-01-23T14:24:26Z</time>
      </trkpt>
      <trkpt lat="46.423009615391493" lon="8.420359343290329">
        <ele>1792.79</ele>
        <time>2022-01-23T14:24:27Z</time>
      </trkpt>
      <trkpt lat="46.422998802736402" lon="8.420358588919044">
        <ele>1792.3900000000001</ele>
        <time>2022-01-23T14:24:28Z</time>
      </trkpt>
      <trkpt lat="46.422988828271627" lon="8.420355571433902">
        <ele>1792.02</ele>
        <time>2022-01-23T14:24:29Z</time>
      </trkpt>
      <trkpt lat="46.422979943454266" lon="8.420350039377809">
        <ele>1791.73</ele>
        <time>2022-01-23T14:24:30Z</time>
      </trkpt>
      <trkpt lat="46.422915821895003" lon="8.420279799029231">
        <ele>1788.6199999999999</ele>
        <time>2022-01-23T14:24:39Z</time>
      </trkpt>
      <trkpt lat="46.422864105552435" lon="8.420235626399517">
        <ele>1787.25</ele>
        <time>2022-01-23T14:24:51Z</time>
      </trkpt>
      <trkpt lat="46.42286921851337" lon="8.420233195647597">
        <ele>1787.3599999999999</ele>
        <time>2022-01-23T14:25:07Z</time>
      </trkpt>
      <trkpt lat="46.422875840216875" lon="8.420234955847263">
        <ele>1787.54</ele>
        <time>2022-01-23T14:25:28Z</time>
      </trkpt>
      <trkpt lat="46.422877600416541" lon="8.420243673026562">
        <ele>1787.78</ele>
        <time>2022-01-23T14:25:54Z</time>
      </trkpt>
      <trkpt lat="46.422882210463285" lon="8.420260436832905">
        <ele>1787.97</ele>
        <time>2022-01-23T14:26:17Z</time>
      </trkpt>
      <trkpt lat="46.422881875187159" lon="8.420258173719049">
        <ele>1787.6400000000001</ele>
        <time>2022-01-23T14:26:39Z</time>
      </trkpt>
      <trkpt lat="46.422877181321383" lon="8.420256329700351">
        <ele>1788.3800000000001</ele>
        <time>2022-01-23T14:27:05Z</time>
      </trkpt>
      <trkpt lat="46.422877684235573" lon="8.420250294730067">
        <ele>1788.1199999999999</ele>
        <time>2022-01-23T14:27:31Z</time>
      </trkpt>
      <trkpt lat="46.422879109159112" lon="8.420257419347763">
        <ele>1788.23</ele>
        <time>2022-01-23T14:27:51Z</time>
      </trkpt>
      <trkpt lat="46.422862177714705" lon="8.420239733532071">
        <ele>1787.95</ele>
        <time>2022-01-23T14:27:55Z</time>
      </trkpt>
      <trkpt lat="46.422852873802185" lon="8.42022942379117">
        <ele>1787.6099999999999</ele>
        <time>2022-01-23T14:27:56Z</time>
      </trkpt>
      <trkpt lat="46.42283845692873" lon="8.420206708833575">
        <ele>1787.1600000000001</ele>
        <time>2022-01-23T14:27:58Z</time>
      </trkpt>
      <trkpt lat="46.422831751406193" lon="8.420194471254945">
        <ele>1787</ele>
        <time>2022-01-23T14:27:59Z</time>
      </trkpt>
      <trkpt lat="46.422826303169131" lon="8.420180222019553">
        <ele>1786.6300000000001</ele>
        <time>2022-01-23T14:28:00Z</time>
      </trkpt>
      <trkpt lat="46.422810629010201" lon="8.420098330825567">
        <ele>1785.1199999999999</ele>
        <time>2022-01-23T14:28:05Z</time>
      </trkpt>
      <trkpt lat="46.422841642051935" lon="8.420088440179825">
        <ele>1783.6199999999999</ele>
        <time>2022-01-23T14:28:13Z</time>
      </trkpt>
      <trkpt lat="46.422849437221885" lon="8.420069497078657">
        <ele>1783.05</ele>
        <time>2022-01-23T14:28:16Z</time>
      </trkpt>
      <trkpt lat="46.422834685072303" lon="8.420025575906038">
        <ele>1780.47</ele>
        <time>2022-01-23T14:28:26Z</time>
      </trkpt>
      <trkpt lat="46.422754134982824" lon="8.420008728280664">
        <ele>1777.4400000000001</ele>
        <time>2022-01-23T14:28:39Z</time>
      </trkpt>
      <trkpt lat="46.422696718946099" lon="8.419978301972151">
        <ele>1774.79</ele>
        <time>2022-01-23T14:28:51Z</time>
      </trkpt>
      <trkpt lat="46.422671992331743" lon="8.419967405498028">
        <ele>1774</ele>
        <time>2022-01-23T14:28:55Z</time>
      </trkpt>
      <trkpt lat="46.422653635963798" lon="8.419939829036593">
        <ele>1772.73</ele>
        <time>2022-01-23T14:29:00Z</time>
      </trkpt>
      <trkpt lat="46.422695713117719" lon="8.419842179864645">
        <ele>1770.51</ele>
        <time>2022-01-23T14:29:11Z</time>
      </trkpt>
      <trkpt lat="46.422678865492344" lon="8.419833546504378">
        <ele>1770.1900000000001</ele>
        <time>2022-01-23T14:29:13Z</time>
      </trkpt>
      <trkpt lat="46.422671405598521" lon="8.419824242591858">
        <ele>1769.5699999999999</ele>
        <time>2022-01-23T14:29:14Z</time>
      </trkpt>
      <trkpt lat="46.422651708126068" lon="8.419784344732761">
        <ele>1768.1900000000001</ele>
        <time>2022-01-23T14:29:18Z</time>
      </trkpt>
      <trkpt lat="46.422561602666974" lon="8.419740675017238">
        <ele>1765.1099999999999</ele>
        <time>2022-01-23T14:29:29Z</time>
      </trkpt>
      <trkpt lat="46.422539977356791" lon="8.419736316427589">
        <ele>1764.8099999999999</ele>
        <time>2022-01-23T14:29:32Z</time>
      </trkpt>
      <trkpt lat="46.422529583796859" lon="8.419736148789525">
        <ele>1764.46</ele>
        <time>2022-01-23T14:29:33Z</time>
      </trkpt>
      <trkpt lat="46.422518352046609" lon="8.419736148789525">
        <ele>1764.25</ele>
        <time>2022-01-23T14:29:34Z</time>
      </trkpt>
      <trkpt lat="46.422507371753454" lon="8.41973640024662">
        <ele>1763.9400000000001</ele>
        <time>2022-01-23T14:29:35Z</time>
      </trkpt>
      <trkpt lat="46.422494547441602" lon="8.41973640024662">
        <ele>1763.76</ele>
        <time>2022-01-23T14:29:36Z</time>
      </trkpt>
      <trkpt lat="46.422356329858303" lon="8.419733718037605">
        <ele>1762.6900000000001</ele>
        <time>2022-01-23T14:29:49Z</time>
      </trkpt>
      <trkpt lat="46.422218112275004" lon="8.419642774388194">
        <ele>1759.49</ele>
        <time>2022-01-23T14:30:04Z</time>
      </trkpt>
      <trkpt lat="46.422130102291703" lon="8.419582676142454">
        <ele>1757.3199999999999</ele>
        <time>2022-01-23T14:30:14Z</time>
      </trkpt>
      <trkpt lat="46.422004038468003" lon="8.419499611482024">
        <ele>1754.55</ele>
        <time>2022-01-23T14:30:27Z</time>
      </trkpt>
      <trkpt lat="46.42191301099956" lon="8.419380588456988">
        <ele>1752.9200000000001</ele>
        <time>2022-01-23T14:30:39Z</time>
      </trkpt>
      <trkpt lat="46.421813853085041" lon="8.419244131073356">
        <ele>1751.29</ele>
        <time>2022-01-23T14:30:51Z</time>
      </trkpt>
      <trkpt lat="46.421791892498732" lon="8.419208005070686">
        <ele>1750.7</ele>
        <time>2022-01-23T14:30:54Z</time>
      </trkpt>
      <trkpt lat="46.421710923314095" lon="8.419075654819608">
        <ele>1749.1800000000001</ele>
        <time>2022-01-23T14:31:06Z</time>
      </trkpt>
      <trkpt lat="46.42159977927804" lon="8.418945651501417">
        <ele>1747.7</ele>
        <time>2022-01-23T14:31:20Z</time>
      </trkpt>
      <trkpt lat="46.421587541699409" lon="8.418885301798582">
        <ele>1746.9300000000001</ele>
        <time>2022-01-23T14:31:25Z</time>
      </trkpt>
      <trkpt lat="46.421575890854001" lon="8.418823191896081">
        <ele>1746.1199999999999</ele>
        <time>2022-01-23T14:31:30Z</time>
      </trkpt>
      <trkpt lat="46.42146592028439" lon="8.418704252690077">
        <ele>1742.8800000000001</ele>
        <time>2022-01-23T14:31:44Z</time>
      </trkpt>
      <trkpt lat="46.421446725726128" lon="8.418674413114786">
        <ele>1742.3199999999999</ele>
        <time>2022-01-23T14:31:47Z</time>
      </trkpt>
      <trkpt lat="46.421429039910436" lon="8.418613811954856">
        <ele>1740.9100000000001</ele>
        <time>2022-01-23T14:31:51Z</time>
      </trkpt>
      <trkpt lat="46.421414539217949" lon="8.418571231886745">
        <ele>1740.3599999999999</ele>
        <time>2022-01-23T14:31:54Z</time>
      </trkpt>
      <trkpt lat="46.421400709077716" lon="8.418432176113129">
        <ele>1739.3900000000001</ele>
        <time>2022-01-23T14:32:03Z</time>
      </trkpt>
      <trkpt lat="46.421321667730808" lon="8.418239140883088">
        <ele>1738.9200000000001</ele>
        <time>2022-01-23T14:32:17Z</time>
      </trkpt>
      <trkpt lat="46.42123525030911" lon="8.418067982420325">
        <ele>1738.7</ele>
        <time>2022-01-23T14:32:30Z</time>
      </trkpt>
      <trkpt lat="46.421186719089746" lon="8.417838402092457">
        <ele>1738.4400000000001</ele>
        <time>2022-01-23T14:32:45Z</time>
      </trkpt>
      <trkpt lat="46.421135924756527" lon="8.417691048234701">
        <ele>1738.0799999999999</ele>
        <time>2022-01-23T14:32:57Z</time>
      </trkpt>
      <trkpt lat="46.421083956956863" lon="8.417580239474773">
        <ele>1738.1900000000001</ele>
        <time>2022-01-23T14:33:08Z</time>
      </trkpt>
      <trkpt lat="46.421070378273726" lon="8.417560206726193">
        <ele>1738.1600000000001</ele>
        <time>2022-01-23T14:33:10Z</time>
      </trkpt>
      <trkpt lat="46.421002233400941" lon="8.41743104159832">
        <ele>1737.24</ele>
        <time>2022-01-23T14:33:22Z</time>
      </trkpt>
      <trkpt lat="46.42095135524869" lon="8.417387120425701">
        <ele>1737.54</ele>
        <time>2022-01-23T14:33:29Z</time>
      </trkpt>
      <trkpt lat="46.420901147648692" lon="8.417365495115519">
        <ele>1737.1700000000001</ele>
        <time>2022-01-23T14:33:38Z</time>
      </trkpt>
      <trkpt lat="46.420866027474403" lon="8.417324339970946">
        <ele>1737.25</ele>
        <time>2022-01-23T14:33:42Z</time>
      </trkpt>
      <trkpt lat="46.420705346390605" lon="8.417222080752254">
        <ele>1737.25</ele>
        <time>2022-01-23T14:33:58Z</time>
      </trkpt>
      <trkpt lat="46.420551622286439" lon="8.417091323062778">
        <ele>1736.8199999999999</ele>
        <time>2022-01-23T14:34:13Z</time>
      </trkpt>
      <trkpt lat="46.420402759686112" lon="8.41706751845777">
        <ele>1735.8699999999999</ele>
        <time>2022-01-23T14:34:26Z</time>
      </trkpt>
      <trkpt lat="46.420240653678775" lon="8.417084533721209">
        <ele>1735.1099999999999</ele>
        <time>2022-01-23T14:34:43Z</time>
      </trkpt>
      <trkpt lat="46.420223051682115" lon="8.417070787400007">
        <ele>1735.1600000000001</ele>
        <time>2022-01-23T14:34:45Z</time>
      </trkpt>
      <trkpt lat="46.420213663950562" lon="8.417030638083816">
        <ele>1735.47</ele>
        <time>2022-01-23T14:34:49Z</time>
      </trkpt>
      <trkpt lat="46.420194385573268" lon="8.416974144056439">
        <ele>1735.24</ele>
        <time>2022-01-23T14:34:53Z</time>
      </trkpt>
      <trkpt lat="46.420163372531533" lon="8.416907843202353">
        <ele>1735.02</ele>
        <time>2022-01-23T14:34:58Z</time>
      </trkpt>
      <trkpt lat="46.419997997581959" lon="8.416901640594006">
        <ele>1734.51</ele>
        <time>2022-01-23T14:35:13Z</time>
      </trkpt>
      <trkpt lat="46.419917866587639" lon="8.416890660300851">
        <ele>1734.45</ele>
        <time>2022-01-23T14:35:26Z</time>
      </trkpt>
      <trkpt lat="46.419913927093148" lon="8.416907843202353">
        <ele>1734.1400000000001</ele>
        <time>2022-01-23T14:35:29Z</time>
      </trkpt>
      <trkpt lat="46.419901102781296" lon="8.416928546503186">
        <ele>1734.03</ele>
        <time>2022-01-23T14:35:31Z</time>
      </trkpt>
      <trkpt lat="46.419817535206676" lon="8.416883870959282">
        <ele>1734.1199999999999</ele>
        <time>2022-01-23T14:35:40Z</time>
      </trkpt>
      <trkpt lat="46.419775877147913" lon="8.416799800470471">
        <ele>1734.1400000000001</ele>
        <time>2022-01-23T14:35:47Z</time>
      </trkpt>
      <trkpt lat="46.419714773073792" lon="8.416683794930577">
        <ele>1734.3499999999999</ele>
        <time>2022-01-23T14:35:58Z</time>
      </trkpt>
      <trkpt lat="46.419680826365948" lon="8.416685974225402">
        <ele>1734.3699999999999</ele>
        <time>2022-01-23T14:36:09Z</time>
      </trkpt>
      <trkpt lat="46.4196711871773" lon="8.416686644777656">
        <ele>1733.0999999999999</ele>
        <time>2022-01-23T14:36:23Z</time>
      </trkpt>
      <trkpt lat="46.419664984568954" lon="8.4166912548244">
        <ele>1732.3</ele>
        <time>2022-01-23T14:37:01Z</time>
      </trkpt>
      <trkpt lat="46.419651070609689" lon="8.416674826294184">
        <ele>1732.6400000000001</ele>
        <time>2022-01-23T14:37:41Z</time>
      </trkpt>
      <trkpt lat="46.419643443077803" lon="8.416663343086839">
        <ele>1733.49</ele>
        <time>2022-01-23T14:38:13Z</time>
      </trkpt>
      <trkpt lat="46.419656099751592" lon="8.416685219854116">
        <ele>1731.5599999999999</ele>
        <time>2022-01-23T14:38:27Z</time>
      </trkpt>
    </trkseg>
  </trk>

</gpx>